Date StartTime U_cm/s V_cm/s W_cm/s Ustd_cm/s Vstd_cm/s Wstd_cm/s Uvar_(cm/s)^2 Vvar_(cm/s)^2 Wvar_(cm/s)^2 KE_(m/s)^2 TurbulentKE_(m/s)^2 HorizWindSpeed_cm/s FrictionSpeec_cm/s DragCoef SpeedOfSound_m/s SonicTemperature_C Pressure_mb 
05/21/2014  00:00:00      104.721       91.108        3.356       70.453       51.981       40.126     4963.630     2702.041     1610.063        1.428        0.464      138.806       32.707        0.056      337.476        9.476      858.645
05/21/2014  00:01:00      150.810      117.084       16.987       72.755       57.303       52.514     5293.308     3283.604     2757.728        2.404        0.567      190.925       33.674        0.031      337.496        9.505      858.656
05/21/2014  00:02:00      106.898       63.312        6.579       61.632       41.664       28.480     3798.487     1735.851      811.115        1.091        0.317      124.240       20.416        0.027      337.514        9.539      858.660
05/21/2014  00:03:00      133.840       79.376       14.540       47.073       38.926       32.208     2215.849     1515.195     1037.365        1.460        0.238      155.608       17.125        0.012      337.505        9.524      858.667
05/21/2014  00:04:00      173.755      125.546       15.094       80.468       62.878       50.592     6475.166     3953.627     2559.532        2.958        0.649      214.366       35.784        0.028      337.517        9.542      858.668
05/21/2014  00:05:00      176.343      112.823       18.945       56.483       62.290       46.889     3190.304     3880.032     2198.570        2.672        0.463      209.346       16.044        0.006      337.519        9.544      858.660
05/21/2014  00:06:00      175.921      102.577       30.342       66.777       63.026       52.534     4459.155     3972.310     2759.856        2.679        0.560      203.642       32.836        0.026      337.509        9.526      858.650
05/21/2014  00:07:00      153.176       67.765       30.562       78.010       52.842       44.557     6085.627     2792.298     1985.363        1.992        0.543      167.497       33.417        0.040      337.533        9.569      858.667
05/21/2014  00:08:00      177.557      105.681       22.852       71.428       62.480       51.214     5101.977     3903.800     2622.831        2.742        0.581      206.628       31.806        0.024      337.507        9.525      858.710
05/21/2014  00:09:00      147.252       92.759       28.303       74.039       57.090       47.267     5481.814     3259.230     2234.152        2.103        0.549      174.033       23.173        0.018      337.508        9.527      858.736
05/21/2014  00:10:00      140.958       91.222       21.740       70.594       50.047       34.105     4983.557     2504.677     1163.128        1.866        0.433      167.900       16.648        0.010      337.500        9.514      858.730
05/21/2014  00:11:00      124.864       84.908       27.013       53.347       46.138       39.016     2845.935     2128.756     1522.265        1.501        0.325      150.998       19.201        0.016      337.489        9.498      858.721
05/21/2014  00:12:00      150.010       81.646       31.389       59.997       43.367       39.110     3599.661     1880.680     1529.627        1.858        0.350      170.789       28.259        0.027      337.485        9.491      858.731
05/21/2014  00:13:00      168.873       77.096       23.475       54.636       64.586       42.589     2985.091     4171.413     1813.796        2.199        0.449      185.639       19.661        0.011      337.471        9.466      858.747
05/21/2014  00:14:00      121.534       70.784       32.657       67.435       48.084       32.328     4547.448     2312.044     1045.105        1.437        0.395      140.645       32.722        0.054      337.457        9.443      858.761
05/21/2014  00:15:00      162.069       83.092       16.218       57.115       59.115       39.075     3262.083     3494.576     1526.848        2.086        0.414      182.128       19.578        0.012      337.422        9.384      858.781
05/21/2014  00:16:00      147.939       69.446       11.841       69.246       56.378       37.966     4795.055     3178.462     1441.394        1.813        0.471      163.428       16.765        0.011      337.415        9.372      858.803
05/21/2014  00:17:00       99.412       59.555        4.264       61.916       47.112       34.022     3833.549     2219.561     1157.493        1.033        0.361      115.885       22.015        0.036      337.403        9.353      858.808
05/21/2014  00:18:00      120.038       89.086       16.428       51.332       37.378       42.718     2635.002     1397.125     1824.838        1.423        0.293      149.484       29.451        0.039      337.421        9.384      858.805
05/21/2014  00:19:00      103.357       73.192       24.642       58.254       39.763       35.632     3393.473     1581.104     1269.608        1.144        0.312      126.648       25.490        0.041      337.410        9.365      858.816
05/21/2014  00:20:00       87.729       55.489        6.868       46.409       32.176       26.523     2153.775     1035.281      703.456        0.736        0.195      103.805       16.881        0.026      337.399        9.348      858.824
05/21/2014  00:21:00       41.715       31.882        5.957       42.313       21.955       21.674     1790.374      482.025      469.784        0.277        0.137       52.504       13.981        0.071      337.455        9.440      858.826
05/21/2014  00:22:00       53.483       67.784        0.360       34.653       36.470       33.094     1200.817     1330.053     1095.245        0.554        0.181       86.343       26.638        0.095      337.408        9.362      858.839
05/21/2014  00:23:00       57.241       57.853        6.311       35.388       28.753       17.804     1252.319      826.752      316.976        0.453        0.120       81.385       19.258        0.056      337.397        9.346      858.833
05/21/2014  00:24:00       32.655       49.070       -0.655       25.955       24.610       19.856      673.646      605.669      394.264        0.257        0.084       58.943       20.077        0.116      337.460        9.448      858.808
05/21/2014  00:25:00        7.470       50.834      -14.297       16.201       19.039        9.190      262.457      362.502       84.448        0.178        0.035       51.380        8.206        0.026      337.397        9.344      858.770
05/21/2014  00:26:00        6.322       40.953      -11.838       13.251       16.055        6.953      175.584      257.779       48.348        0.117        0.024       41.439        4.611        0.012      337.403        9.354      858.733
05/21/2014  00:27:00       -5.190       18.217        3.408       53.365       26.544       24.628     2847.826      704.589      606.551        0.226        0.208       18.942       23.283        1.511      337.502        9.518      858.721
05/21/2014  00:28:00      -67.928       43.692      -14.121       23.068       29.602       20.372      532.122      876.268      415.010        0.427        0.091       80.766       19.547        0.059      337.835       10.078      858.732
05/21/2014  00:29:00      -53.522       34.018       -6.080       30.421       31.256       21.872      925.448      976.929      478.380        0.322        0.119       63.418       17.510        0.076      337.585        9.659      858.776
05/21/2014  00:30:00      -21.015       29.929       -1.848       27.691       24.188       16.909      766.768      585.078      285.904        0.149        0.082       36.570        9.560        0.068      337.672        9.805      858.801
05/21/2014  00:31:00      -42.689       59.320       -7.121       25.235       31.444       17.034      636.791      988.753      290.168        0.365        0.096       73.084       15.467        0.045      337.611        9.701      858.811
05/21/2014  00:32:00      -66.934       91.422      -26.301       18.788       21.399       11.900      352.977      457.900      141.601        0.724        0.048      113.305        4.499        0.002      337.490        9.498      858.843
05/21/2014  00:33:00      -98.031       84.050      -27.601       25.021       31.487       16.000      626.061      991.404      256.014        0.965        0.094      129.130        9.168        0.005      337.646        9.762      858.878
05/21/2014  00:34:00      -90.295      110.631      -27.786       21.626       20.245       16.695      467.697      409.852      278.737        1.116        0.058      142.802        9.226        0.004      337.493        9.504      858.916
05/21/2014  00:35:00      -54.780       39.753      -15.241       24.374       37.046       18.428      594.072     1372.396      339.588        0.356        0.115       67.684       16.353        0.058      337.695        9.845      858.925
05/21/2014  00:36:00     -108.702      -43.628      -12.583       36.346       29.828       13.025     1321.042      889.685      169.641        0.813        0.119      117.130       11.166        0.009      337.505        9.523      858.882
05/21/2014  00:37:00     -142.832      -35.389       -3.740       46.155       36.490       21.304     2130.262     1331.506      453.849        1.279        0.196      147.151       16.705        0.013      337.466        9.458      858.876
05/21/2014  00:38:00     -107.823      -22.118       -9.474       50.281       62.335       25.862     2528.145     3885.712      668.831        0.964        0.354      110.068       24.597        0.050      337.488        9.496      858.919
05/21/2014  00:39:00     -135.943       -2.956      -11.771       38.302       38.898       26.786     1467.027     1513.056      717.464        1.116        0.185      135.975       22.067        0.026      337.505        9.524      858.962
05/21/2014  00:40:00     -137.830       20.170      -25.517       33.972       48.212       24.486     1154.095     2324.444      599.574        1.207        0.204      139.298       13.699        0.010      337.417        9.377      858.975
05/21/2014  00:41:00      -57.513      -34.150        7.816       34.758       29.416       23.642     1208.143      865.286      558.961        0.358        0.132       66.887       18.318        0.075      337.411        9.366      858.942
05/21/2014  00:42:00     -175.039      -90.098       -9.894       46.177       53.804       29.831     2132.311     2894.821      889.898        2.238        0.296      196.866       22.916        0.014      337.374        9.304      858.904
05/21/2014  00:43:00     -174.196      -76.590       -2.381       75.629       71.154       34.821     5719.791     5062.949     1212.470        2.410        0.600      190.290       27.207        0.020      337.347        9.258      858.857
05/21/2014  00:44:00     -120.716      -44.893        3.181       89.598       58.320       39.224     8027.713     3401.238     1538.540        1.478        0.648      128.793       40.295        0.098      337.340        9.246      858.847
05/21/2014  00:45:00     -151.188      -30.154        0.880       88.016       52.424       41.219     7746.823     2748.255     1699.015        1.798        0.610      154.165       46.581        0.091      337.332        9.232      858.846
05/21/2014  00:46:00     -178.321      -41.190       -5.898       72.371       70.875       40.499     5237.589     5023.216     1640.175        2.271        0.595      183.017       46.653        0.065      337.352        9.266      858.849
05/21/2014  00:47:00     -201.528      -67.657      -11.078       89.588       65.112       41.043     8026.027     4239.626     1684.523        2.963        0.698      212.581       43.638        0.042      337.329        9.226      858.867
05/21/2014  00:48:00     -225.224      -35.841      -14.386       67.395       58.624       35.951     4542.029     3436.721     1292.480        3.074        0.464      228.057       32.189        0.020      337.335        9.234      858.867
05/21/2014  00:49:00     -217.051      -33.495       -5.250       86.543       58.560       33.865     7489.606     3429.325     1146.840        3.016        0.603      219.621       35.662        0.026      337.381        9.314      858.835
05/21/2014  00:50:00     -209.945      -90.646       -8.657       86.451       58.633       36.957     7473.691     3437.807     1365.814        3.232        0.614      228.678       41.271        0.033      337.317        9.206      858.807
05/21/2014  00:51:00     -142.378      -69.724       -6.542       92.216       54.020       40.898     8503.834     2918.162     1672.667        1.913        0.655      158.534       39.288        0.061      337.335        9.238      858.784
05/21/2014  00:52:00     -137.930      -21.575        2.322       70.929       56.856       31.566     5030.903     3232.639      996.423        1.438        0.463      139.607       33.187        0.057      337.361        9.282      858.761
05/21/2014  00:53:00     -118.885      -61.722        4.080       58.242       63.777       40.080     3392.105     4067.518     1606.385        1.351        0.453      133.953       34.572        0.067      337.341        9.248      858.724
05/21/2014  00:54:00     -142.709      -25.958       -1.106       65.783       66.797       37.652     4327.372     4461.808     1417.706        1.562        0.510      145.051       39.888        0.076      337.338        9.244      858.712
05/21/2014  00:55:00     -163.580      -34.414       -1.672       66.812       56.970       36.792     4463.820     3245.549     1353.655        1.850        0.453      167.161       37.237        0.050      337.323        9.217      858.695
05/21/2014  00:56:00     -110.220      -60.372        3.950       54.222       50.544       33.362     2939.978     2554.723     1112.995        1.121        0.330      125.671       29.664        0.056      337.333        9.236      858.670
05/21/2014  00:57:00      -56.614      -20.807       16.367       57.940       37.026       23.081     3357.018     1370.896      532.727        0.458        0.263       60.317       28.426        0.222      337.373        9.301      858.663
05/21/2014  00:58:00     -111.867      -28.851       -7.063       60.024       54.279       27.962     3602.937     2946.237      781.870        1.036        0.367      115.528       27.453        0.056      337.440        9.416      858.670
05/21/2014  00:59:00     -107.554      -67.390       -8.644       48.735       44.850       26.574     2375.140     2011.485      706.178        1.064        0.255      126.922       27.143        0.046      337.380        9.315      858.656
05/21/2014  01:00:00      -67.440      -65.208       -2.702       74.547       47.210       33.466     5557.220     2228.802     1119.975        0.885        0.445       93.809       37.029        0.156      337.435        9.407      858.644
05/21/2014  01:01:00      -90.081      -73.459       -0.907       56.009       39.811       26.959     3137.062     1584.918      726.811        0.948        0.272      116.236       27.993        0.058      337.409        9.364      858.630
05/21/2014  01:02:00      -96.781      -69.272        0.790       47.535       45.427       26.523     2259.564     2063.618      703.446        0.960        0.251      119.017       29.422        0.061      337.446        9.426      858.624
05/21/2014  01:03:00     -109.906      -72.454        3.497       46.717       34.978       22.753     2182.525     1223.431      517.692        1.063        0.196      131.639       21.387        0.026      337.445        9.422      858.634
05/21/2014  01:04:00     -152.753      -93.247       -6.288       40.552       40.003       25.116     1644.443     1600.259      630.794        1.797        0.194      178.965       26.047        0.021      337.405        9.355      858.642
05/21/2014  01:05:00     -128.204      -68.114       -0.444       62.979       47.861       32.569     3966.348     2290.696     1060.717        1.420        0.366      145.175       38.629        0.071      337.399        9.345      858.637
05/21/2014  01:06:00     -171.357     -103.113       -5.671       51.569       43.654       26.061     2659.373     1905.648      679.185        2.263        0.262      199.989       27.773        0.019      337.374        9.301      858.623
05/21/2014  01:07:00     -142.867     -100.749        2.699       67.556       47.168       30.583     4563.816     2224.786      935.313        1.914        0.386      174.819       33.924        0.038      337.380        9.313      858.604
05/21/2014  01:08:00     -140.644      -91.922        8.301       83.809       61.209       38.890     7023.867     3746.539     1512.425        2.029        0.614      168.019       44.068        0.069      337.379        9.311      858.575
05/21/2014  01:09:00     -122.837     -138.442        1.361      104.979       72.974       49.357    11020.603     5325.236     2436.101        2.652        0.939      185.081       53.425        0.083      337.379        9.310      858.527
05/21/2014  01:10:00     -111.718     -107.190       15.789       89.643       61.198       52.454     8035.865     3745.141     2751.444        1.937        0.727      154.824       56.670        0.134      337.325        9.220      858.499
05/21/2014  01:11:00     -151.128     -146.413        0.719       71.936       70.896       44.389     5174.731     5026.301     1970.368        2.822        0.609      210.420       39.318        0.035      337.333        9.234      858.465
05/21/2014  01:12:00     -151.989      -94.605       -0.722       82.904       54.446       36.350     6873.084     2964.334     1321.352        2.160        0.558      179.027       30.714        0.029      337.330        9.229      858.419
05/21/2014  01:13:00     -205.695     -116.857        0.202       66.246       55.553       38.200     4388.498     3086.190     1459.263        3.245        0.447      236.572       39.177        0.027      337.324        9.216      858.393
05/21/2014  01:14:00     -178.662     -119.082       -2.588       71.737       60.994       39.868     5146.157     3720.308     1589.464        2.828        0.523      214.710       36.319        0.029      337.327        9.223      858.379
05/21/2014  01:15:00     -206.072     -102.094      -15.344       83.787       53.092       33.879     7020.335     2818.765     1147.789        3.205        0.549      229.975       35.969        0.024      337.312        9.200      858.366
05/21/2014  01:16:00     -138.681     -132.159       -1.797       68.282       51.446       36.633     4662.415     2646.666     1341.968        2.267        0.433      191.568       34.167        0.032      337.347        9.257      858.355
05/21/2014  01:17:00     -151.307     -168.273       -7.961       78.392       74.660       38.490     6145.232     5574.086     1481.474        3.223        0.660      226.295       38.009        0.028      337.378        9.307      858.355
05/21/2014  01:18:00     -112.330      -68.460      -16.371       68.893       37.187       26.470     4746.177     1382.879      700.687        1.220        0.341      131.548       11.653        0.008      337.411        9.367      858.380
05/21/2014  01:19:00      -49.562      -75.635       16.582       64.234       62.548       30.404     4125.991     3912.231      924.425        0.871        0.448       90.427       36.385        0.162      337.432        9.401      858.421
05/21/2014  01:20:00      -80.905     -108.962        7.474       61.356       50.538       31.845     3764.524     2554.074     1014.096        1.290        0.367      135.714       32.345        0.057      337.419        9.379      858.449
05/21/2014  01:21:00      -98.857      -22.145        0.660       51.957       38.043       27.385     2699.492     1447.287      749.947        0.758        0.245      101.307       24.336        0.058      337.399        9.347      858.466
05/21/2014  01:22:00      -39.858      -30.001       10.101       52.569       47.295       27.708     2763.460     2236.830      767.731        0.418        0.288       49.887       30.899        0.384      337.489        9.497      858.482
05/21/2014  01:23:00     -117.284     -110.110        0.372       41.270       45.022       27.961     1703.223     2026.973      781.826        1.519        0.226      160.871       22.002        0.019      337.455        9.441      858.485
05/21/2014  01:24:00      -83.674      -32.728       -4.070       63.428       29.750       22.729     4023.163      885.075      516.601        0.676        0.271       89.847       27.334        0.093      337.482        9.485      858.475
05/21/2014  01:25:00      -89.559      -36.750        0.052       35.340       36.243       20.244     1248.924     1313.569      409.824        0.617        0.149       96.806       18.570        0.037      337.435        9.407      858.464
05/21/2014  01:26:00      -51.193      -33.086        7.877       50.413       34.806       28.210     2541.429     1211.438      795.816        0.416        0.227       60.954       30.404        0.249      337.464        9.454      858.467
05/21/2014  01:27:00     -123.960      -61.757       -7.314       48.012       44.002       24.335     2305.156     1936.156      592.198        1.203        0.242      138.492       23.038        0.028      337.505        9.523      858.482
05/21/2014  01:28:00     -116.804      -34.056       -1.918       49.549       37.025       30.892     2455.140     1370.868      954.335        0.979        0.239      121.667       31.037        0.065      337.507        9.528      858.495
05/21/2014  01:29:00     -154.095      -58.913       -6.788       37.023       23.069       22.472     1370.705      532.169      505.009        1.483        0.120      164.973       22.127        0.018      337.484        9.489      858.500
05/21/2014  01:30:00     -114.111      -48.929        3.695       43.101       38.952       20.924     1857.706     1517.297      437.811        0.962        0.191      124.159       19.683        0.025      337.500        9.514      858.485
05/21/2014  01:31:00     -105.131      -54.635       -0.059       56.545       34.687       23.805     3197.338     1203.172      566.675        0.950        0.248      118.480       30.161        0.065      337.491        9.500      858.460
05/21/2014  01:32:00      -52.184      -49.754       10.199       49.311       49.131       21.363     2431.555     2413.829      456.370        0.530        0.265       72.102       21.487        0.089      337.533        9.572      858.423
05/21/2014  01:33:00      -66.708      -37.641        4.943       47.751       34.553       22.108     2280.185     1193.887      488.751        0.493        0.198       76.595       22.427        0.086      337.538        9.580      858.401
05/21/2014  01:34:00      -28.406      -12.103        6.402       26.376       23.559       18.000      695.702      555.031      324.001        0.128        0.079       30.877       18.034        0.341      337.488        9.497      858.395
05/21/2014  01:35:00      -64.334      -47.528       -1.458       69.325       41.985       30.322     4805.951     1762.729      919.421        0.694        0.374       79.986       27.724        0.120      337.546        9.593      858.395
05/21/2014  01:36:00      -80.197      -27.227        3.917       40.445       36.412       31.117     1635.805     1325.825      968.282        0.556        0.196       84.692       19.769        0.054      337.549        9.597      858.392
05/21/2014  01:37:00      -16.233      -15.576       10.435       24.451       21.928       21.828      597.855      480.852      476.445        0.108        0.078       22.498       20.983        0.870      337.585        9.658      858.365
05/21/2014  01:38:00      -47.100      -88.977        3.623       80.384       65.639       35.056     6461.629     4308.527     1228.913        1.107        0.600      100.674       39.997        0.158      337.579        9.647      858.346
05/21/2014  01:39:00     -100.340      -86.139       -9.363       41.015       58.927       20.429     1682.231     3472.421      417.347        1.157        0.279      132.243       23.967        0.033      337.569        9.631      858.325
05/21/2014  01:40:00      -78.523      -41.265        2.254       46.425       43.786       26.793     2155.285     1917.200      717.889        0.633        0.240       88.706       28.127        0.101      337.577        9.644      858.315
05/21/2014  01:41:00      -67.261       -0.391       -7.153       38.444       18.197       19.215     1477.916      331.143      369.231        0.338        0.109       67.262       20.273        0.091      337.506        9.524      858.311
05/21/2014  01:42:00      -53.592      -45.955        8.309       54.671       36.677       21.112     2988.920     1345.180      445.708        0.492        0.239       70.597       25.169        0.127      337.584        9.656      858.316
05/21/2014  01:43:00      -98.300      -29.627       -6.474       41.802       33.881       22.679     1747.388     1147.903      514.314        0.700        0.170      102.668       22.631        0.049      337.570        9.632      858.310
05/21/2014  01:44:00      -34.455       -1.200        6.076       48.740       11.724       17.364     2375.575      137.459      301.523        0.202        0.141       34.476       26.850        0.607      337.597        9.678      858.315
05/21/2014  01:45:00      -12.487        3.413        3.453       18.667       21.506       13.073      348.449      462.499      170.914        0.058        0.049       12.945       13.976        1.166      337.648        9.763      858.326
05/21/2014  01:46:00     -127.513       41.189       -3.752       49.506       31.449       22.163     2450.818      989.022      491.217        1.095        0.197      134.000       19.493        0.021      337.746        9.926      858.346
05/21/2014  01:47:00      -89.506       36.949       -8.163       39.227       36.601       22.297     1538.787     1339.600      497.151        0.641        0.169       96.833       16.752        0.030      337.677        9.813      858.356
05/21/2014  01:48:00       -5.529       90.503      -10.763       24.708       25.024       13.792      610.488      626.198      190.208        0.488        0.071       90.672        3.824        0.002      337.545        9.592      858.352
05/21/2014  01:49:00      -56.254      -11.304       -2.127       27.377       31.593       18.975      749.481      998.093      360.064        0.270        0.105       57.378       13.388        0.054      337.688        9.831      858.342
05/21/2014  01:50:00     -140.725      -38.267      -11.628       50.504       44.146       27.598     2550.677     1948.890      761.633        1.333        0.263      145.835       23.884        0.027      337.557        9.611      858.341
05/21/2014  01:51:00     -100.961      -23.774       13.647       75.169       42.970       32.603     5650.325     1846.439     1062.962        0.975        0.428      103.722       36.064        0.121      337.565        9.625      858.325
05/21/2014  01:52:00     -104.682      -38.401       13.813       89.231       71.861       46.001     7962.103     5163.971     2116.064        1.393        0.762      111.504       48.339        0.188      337.667        9.796      858.315
05/21/2014  01:53:00     -184.574      -45.231       -7.226       55.169       67.987       30.354     3043.666     4622.223      921.375        2.237        0.429      190.035       24.324        0.016      337.740        9.917      858.288
05/21/2014  01:54:00     -194.642      -97.671        4.715       78.161       90.654       35.260     6109.132     8218.071     1243.259        3.151        0.779      217.773       37.560        0.030      337.586        9.657      858.279
05/21/2014  01:55:00     -302.481     -105.974      -14.834       74.335       84.535       47.616     5525.653     7146.212     2267.266        5.894        0.747      320.508       38.035        0.014      337.600        9.678      858.281
05/21/2014  01:56:00     -179.082      -61.001       -6.597      104.775       61.614       41.140    10977.800     3796.299     1692.487        2.615        0.823      189.187       45.975        0.059      337.627        9.726      858.290
05/21/2014  01:57:00     -179.190      -65.079       -2.732       71.379       67.940       42.278     5094.972     4615.795     1787.431        2.392        0.575      190.642       41.230        0.047      337.598        9.678      858.276
05/21/2014  01:58:00     -225.737      -77.733      -13.044       90.124       76.505       44.917     8122.386     5853.047     2017.579        3.658        0.800      238.746       41.468        0.030      337.632        9.732      858.259
05/21/2014  01:59:00     -183.448      -50.223        3.811      106.628       75.701       49.127    11369.583     5730.623     2413.478        2.785        0.976      190.198       55.430        0.085      337.616        9.708      858.275
05/21/2014  02:00:00     -154.063      -54.722       -4.359       62.727       63.565       40.758     3934.676     4040.531     1661.193        1.819        0.482      163.493       23.232        0.020      337.614        9.706      858.289
05/21/2014  02:01:00     -105.177       -8.252        6.725       54.618       44.181       36.974     2983.132     1951.950     1367.072        0.874        0.315      105.500       30.890        0.086      337.656        9.776      858.287
05/21/2014  02:02:00     -125.908      -31.998       -8.096       66.171       62.711       33.965     4378.631     3932.657     1153.610        1.320        0.473      129.911       36.962        0.081      337.616        9.709      858.281
05/21/2014  02:03:00     -187.278      -92.084       -4.865       85.319       61.467       38.502     7279.330     3778.201     1482.395        2.806        0.627      208.692       31.899        0.023      337.596        9.674      858.279
05/21/2014  02:04:00     -176.998      -55.700       -5.056       60.378       54.564       28.241     3645.502     2977.189      797.526        2.094        0.371      185.555       26.906        0.021      337.600        9.682      858.266
05/21/2014  02:05:00     -111.516      -23.578       -2.877       96.141       50.812       34.524     9243.158     2581.826     1191.912        1.301        0.651      113.981       37.421        0.108      337.740        9.918      858.274
05/21/2014  02:06:00      -64.775      -53.314       14.393       75.511       57.041       42.353     5701.887     3253.667     1793.815        0.900        0.537       83.894       43.007        0.263      337.703        9.856      858.281
05/21/2014  02:07:00      -95.298      -60.938        2.805       80.823       49.176       37.554     6532.299     2418.279     1410.296        1.158        0.518      113.115       45.620        0.163      337.720        9.885      858.278
05/21/2014  02:08:00     -107.675      -24.749       -2.133       49.326       39.111       25.814     2433.078     1529.684      666.379        0.842        0.231      110.482       20.277        0.034      337.757        9.948      858.266
05/21/2014  02:09:00     -122.370      -49.337       -3.986       54.104       47.398       31.500     2927.294     2246.565      992.274        1.179        0.308      131.941       33.833        0.066      337.724        9.892      858.255
05/21/2014  02:10:00     -138.401      -44.048       -1.700       52.542       42.608       24.964     2760.621     1815.434      623.189        1.315        0.260      145.241       25.463        0.031      337.664        9.792      858.246
05/21/2014  02:11:00     -120.554      -49.027        4.568       53.220       39.693       29.345     2832.335     1575.545      861.151        1.111        0.263      130.142       30.083        0.053      337.662        9.789      858.236
05/21/2014  02:12:00     -161.303      -57.114       -0.900       56.961       35.155       23.145     3244.611     1235.890      535.682        1.715        0.251      171.116       22.303        0.017      337.706        9.860      858.216
05/21/2014  02:13:00      -88.310      -65.766        1.758       42.568       36.487       22.326     1812.051     1331.267      498.443        0.788        0.182      110.108       19.499        0.031      337.714        9.875      858.202
05/21/2014  02:14:00      -42.951      -59.695        1.840       36.136       23.100       19.627     1305.836      533.612      385.214        0.382        0.111       73.541       19.440        0.070      337.784        9.991      858.184
05/21/2014  02:15:00      -28.671      -45.079       -8.668       39.560       22.626       17.964     1565.029      511.935      322.697        0.266        0.120       53.424       12.653        0.056      337.802       10.022      858.176
05/21/2014  02:16:00        8.637       -9.728       -7.248       16.823       36.242       17.735      283.028     1313.478      314.543        0.107        0.096       13.009       12.838        0.974      337.879       10.151      858.197
05/21/2014  02:17:00       36.842       21.787        0.438       14.808       18.316       15.099      219.287      335.470      227.977        0.131        0.039       42.802        8.454        0.039      337.807       10.031      858.221
05/21/2014  02:18:00       75.870       54.049        4.376       30.780       19.711       18.315      947.388      388.523      335.436        0.518        0.084       93.153        7.416        0.006      337.566        9.626      858.235
05/21/2014  02:19:00       88.620       47.241       22.687       45.655       30.710       34.219     2084.360      943.109     1170.937        0.740        0.210      100.425       31.627        0.099      337.530        9.565      858.235
05/21/2014  02:20:00       94.898       61.326       42.578       44.510       36.344       32.372     1981.169     1320.852     1047.933        0.946        0.217      112.989       27.931        0.061      337.514        9.540      858.222
05/21/2014  02:21:00      132.979       69.826       22.297       31.214       33.499       33.377      974.331     1122.165     1113.992        1.313        0.161      150.197       15.764        0.011      337.460        9.449      858.210
05/21/2014  02:22:00       71.175       38.314       24.012       48.774       38.540       32.036     2378.902     1485.307     1026.303        0.600        0.245       80.832       28.290        0.122      337.507        9.528      858.211
05/21/2014  02:23:00       69.206       64.281       35.943       37.282       41.906       31.206     1389.925     1756.095      973.844        0.717        0.206       94.454       25.320        0.072      337.500        9.517      858.216
05/21/2014  02:24:00       70.405       74.632       59.496       36.984       26.309       25.900     1367.847      692.138      670.797        0.840        0.137      102.600        9.542        0.009      337.598        9.680      858.214
05/21/2014  02:25:00       13.370       45.202       58.072       36.751       32.866       22.330     1350.624     1080.143      498.650        0.426        0.146       47.138       19.448        0.170      337.633        9.740      858.206
05/21/2014  02:26:00        4.593       43.112       62.389       27.020       30.707       22.752      730.058      942.928      517.675        0.398        0.110       43.356       22.465        0.268      337.601        9.685      858.194
05/21/2014  02:27:00       -3.288       -0.160       18.882       12.320       22.448       19.984      151.785      503.897      399.369        0.071        0.053        3.292       17.316       27.663      337.688        9.832      858.189
05/21/2014  02:28:00      -25.513      -23.648        5.679       22.545       16.177       10.738      508.268      261.695      115.307        0.106        0.044       34.787       10.322        0.088      337.725        9.893      858.190
05/21/2014  02:29:00      -43.182      -13.127       11.887       20.710       23.102       13.448      428.920      533.723      180.842        0.166        0.057       45.133       12.718        0.079      337.673        9.806      858.183
05/21/2014  02:30:00      -23.473       14.815       -1.377       15.994       11.507       17.671      255.807      132.412      312.250        0.074        0.035       27.757        9.121        0.108      337.622        9.719      858.170
05/21/2014  02:31:00      -32.460        9.349       -4.075       19.162       12.420       10.145      367.185      154.258      102.927        0.089        0.031       33.779        8.755        0.067      337.730        9.904      858.150
05/21/2014  02:32:00      -44.510      -19.492        0.327       16.211       14.286       12.778      262.786      204.092      163.277        0.150        0.032       48.591        8.563        0.031      337.740        9.917      858.131
05/21/2014  02:33:00      -26.969      -21.566       -1.296        9.794       11.546        7.478       95.923      133.299       55.925        0.074        0.014       34.532        5.129        0.022      337.806       10.031      858.112
05/21/2014  02:34:00      -33.172      -14.312        1.280       13.898       13.106        8.989      193.166      171.760       80.803        0.088        0.022       36.128        7.173        0.039      337.826       10.063      858.102
05/21/2014  02:35:00      -22.320      -15.100        5.614       15.538       19.857       11.271      241.422      394.309      127.038        0.076        0.038       26.948       10.402        0.149      337.829       10.068      858.102
05/21/2014  02:36:00       12.347       12.764        7.998        8.419        8.282       13.447       70.878       68.586      180.814        0.035        0.016       17.759        6.283        0.125      337.789       10.001      858.094
05/21/2014  02:37:00      -13.188       13.546       19.838       10.024       14.564       17.441      100.489      212.111      304.199        0.068        0.031       18.906       14.741        0.608      337.773        9.971      858.082
05/21/2014  02:38:00      -15.108       19.307       13.172       14.054       17.141       18.589      197.527      293.803      345.533        0.081        0.042       24.516       13.490        0.303      337.773        9.973      858.067
05/21/2014  02:39:00        6.902       20.614       48.204       20.835       17.364       10.323      434.084      301.518      106.570        0.182        0.042       21.739       10.181        0.219      337.753        9.939      858.071
05/21/2014  02:40:00        1.284       26.238       22.866       20.318       23.324       23.652      412.825      544.021      559.396        0.136        0.076       26.269       17.138        0.426      337.700        9.851      858.074
05/21/2014  02:41:00       27.371       36.879       -8.249       31.078       27.523       25.198      965.812      757.518      634.963        0.227        0.118       45.927       21.917        0.228      337.478        9.479      858.094
05/21/2014  02:42:00       24.784       24.528        9.102       23.075       25.322       22.853      532.460      641.206      522.252        0.150        0.085       34.869       14.403        0.171      337.496        9.507      858.103
05/21/2014  02:43:00      102.721       70.363        6.572       31.611       26.026       22.278      999.251      677.364      496.328        0.886        0.109      124.510       14.692        0.014      337.504        9.523      858.093
05/21/2014  02:44:00       87.640       64.266       23.221       30.177       27.702       22.895      910.681      767.403      524.178        0.728        0.110      108.678       13.910        0.016      337.519        9.547      858.072
05/21/2014  02:45:00       75.240       62.292       45.547       25.491       27.272       23.967      649.816      743.771      574.428        0.679        0.098       97.680       16.127        0.027      337.612        9.703      858.048
05/21/2014  02:46:00       48.689       30.121       35.831       32.225       21.555       22.535     1038.421      464.612      507.833        0.329        0.101       57.253       18.252        0.102      337.608        9.698      858.042
05/21/2014  02:47:00       25.175       40.614       46.820       20.907       17.097       16.019      437.084      292.312      256.614        0.273        0.049       47.783       11.001        0.053      337.609        9.698      858.036
05/21/2014  02:48:00       44.452       12.446       11.476       32.946       17.642       22.676     1085.407      311.234      514.199        0.209        0.096       46.162       20.651        0.200      337.621        9.719      858.031
05/21/2014  02:49:00       48.511       22.214        2.579       23.005       23.577       13.625      529.250      555.871      185.652        0.206        0.064       53.356        7.378        0.019      337.574        9.639      858.030
05/21/2014  02:50:00       76.530       41.983        5.350       26.461       23.377       16.351      700.202      546.465      267.357        0.458        0.076       87.289       14.065        0.026      337.524        9.556      858.036
05/21/2014  02:51:00       89.236       50.132       11.557       35.009       26.848       26.981     1225.646      720.794      727.956        0.664        0.134      102.353       22.310        0.048      337.508        9.528      858.041
05/21/2014  02:52:00       61.087       47.748       32.214       22.901       23.961       20.178      524.453      574.149      407.165        0.428        0.075       77.533       11.089        0.020      337.506        9.525      858.060
05/21/2014  02:53:00       29.510       23.045       -3.592       23.748       17.054       10.780      563.967      290.830      116.200        0.119        0.049       37.442       10.959        0.086      337.437        9.410      858.082
05/21/2014  02:54:00       60.281       35.675        5.096       27.795       16.155       11.494      772.578      260.994      132.116        0.305        0.058       70.047        5.995        0.007      337.484        9.486      858.083
05/21/2014  02:55:00       83.428       43.548       22.519       28.135       25.206       23.388      791.562      635.331      547.003        0.567        0.099       94.110       12.432        0.017      337.530        9.566      858.075
05/21/2014  02:56:00       88.314       66.811       33.907       33.119       21.279       23.643     1096.859      452.813      558.993        0.776        0.105      110.739       16.267        0.022      337.462        9.451      858.082
05/21/2014  02:57:00       42.996       32.648       19.388       31.434       23.920       22.850      988.120      572.146      522.112        0.269        0.104       53.986       19.165        0.126      337.471        9.466      858.100
05/21/2014  02:58:00       90.487       62.766        5.501       29.621       23.684       20.434      877.415      560.950      417.540        0.701        0.093      110.125       16.949        0.024      337.439        9.414      858.101
05/21/2014  02:59:00       85.079       49.104       -3.050       34.836       21.598       25.254     1213.532      466.490      637.778        0.599        0.116       98.233       21.397        0.047      337.428        9.396      858.090
05/21/2014  03:00:00       76.074       18.399       -4.261       44.719       33.536       24.299     1999.769     1124.663      590.423        0.493        0.186       78.267       12.647        0.026      337.409        9.363      858.082
05/21/2014  03:01:00       49.976       29.539        3.447       33.869       24.408       23.043     1147.094      595.769      530.978        0.283        0.114       58.053       16.185        0.078      337.404        9.355      858.079
05/21/2014  03:02:00       95.330       52.385        3.650       27.896       24.763       21.410      778.184      613.209      458.377        0.685        0.092      108.775       19.378        0.032      337.371        9.298      858.092
05/21/2014  03:03:00       80.445       53.348       16.561       27.813       38.048       22.530      773.581     1447.676      507.623        0.616        0.136       96.527       20.678        0.046      337.382        9.318      858.109
05/21/2014  03:04:00       69.552       45.124        4.895       39.554       32.840       27.340     1564.520     1078.478      747.449        0.514        0.170       82.908       21.253        0.066      337.355        9.272      858.124
05/21/2014  03:05:00       50.704       39.813       11.974       30.798       25.194       18.179      948.522      634.742      330.463        0.311        0.096       64.467        9.448        0.021      337.360        9.280      858.132
05/21/2014  03:06:00       49.848       44.316        8.915       37.755       31.662       22.460     1425.421     1002.452      504.442        0.373        0.147       66.699       16.377        0.060      337.358        9.278      858.136
05/21/2014  03:07:00       94.227       64.960        5.930       28.921       22.192       24.459      836.451      492.504      598.230        0.753        0.096      114.448       16.834        0.022      337.348        9.260      858.130
05/21/2014  03:08:00      106.831       50.972        9.377       43.206       29.224       28.227     1866.729      854.053      796.762        0.881        0.176      118.368       14.521        0.015      337.373        9.304      858.116
05/21/2014  03:09:00      102.229       60.089       12.485       37.268       28.898       29.149     1388.880      835.107      849.682        0.864        0.154      118.581       12.523        0.011      337.352        9.269      858.114
05/21/2014  03:10:00       78.866       54.443       19.114       37.899       34.778       29.283     1436.363     1209.490      857.470        0.653        0.175       95.832       17.132        0.032      337.348        9.260      858.118
05/21/2014  03:11:00      110.900       86.279       24.313       56.754       34.805       27.583     3221.014     1211.385      760.810        1.276        0.260      140.510       11.624        0.007      337.300        9.181      858.128
05/21/2014  03:12:00      101.480       65.428       28.527       45.566       29.684       41.901     2076.226      881.168     1755.668        1.005        0.236      120.744       27.407        0.052      337.310        9.197      858.124
05/21/2014  03:13:00      163.621       77.375       24.009       60.592       39.432       33.197     3671.340     1554.870     1102.054        1.983        0.316      180.994       26.800        0.022      337.288        9.160      858.115
05/21/2014  03:14:00      130.145       81.359       15.328       57.974       56.574       40.977     3360.997     3200.597     1679.147        1.601        0.412      153.483       29.348        0.037      337.284        9.153      858.114
05/21/2014  03:15:00       99.611       66.907       28.890       44.992       30.532       26.428     2024.249      932.184      698.429        0.944        0.183      119.996       21.678        0.033      337.307        9.194      858.111
05/21/2014  03:16:00       80.346       65.777       -7.661       56.477       36.129       30.936     3189.650     1305.271      957.057        0.815        0.273      103.837       10.207        0.010      337.289        9.163      858.117
05/21/2014  03:17:00       86.476       56.383        4.009       40.550       41.736       28.183     1644.295     1741.896      794.269        0.743        0.209      103.234       17.702        0.029      337.274        9.138      858.137
05/21/2014  03:18:00       52.388       37.564       10.291       46.737       30.761       24.329     2184.360      946.269      591.903        0.399        0.186       64.464       25.642        0.158      337.308        9.194      858.168
05/21/2014  03:19:00       86.188       71.680        3.119       44.749       37.425       31.357     2002.481     1400.641      983.261        0.848        0.219      112.100       27.291        0.059      337.270        9.132      858.195
05/21/2014  03:20:00      102.499       80.099       11.825       33.997       32.972       31.864     1155.813     1087.168     1015.346        1.016        0.163      130.084       18.903        0.021      337.258        9.113      858.211
05/21/2014  03:21:00       84.550       53.022       19.605       53.158       33.323       25.282     2825.758     1110.403      639.204        0.746        0.229       99.800       24.153        0.059      337.273        9.137      858.220
05/21/2014  03:22:00       89.584       68.628        8.295       41.303       41.083       33.111     1705.934     1687.828     1096.358        0.865        0.225      112.850       16.662        0.022      337.267        9.127      858.233
05/21/2014  03:23:00      118.453       73.494       14.474       34.735       31.494       27.274     1206.490      991.866      743.869        1.129        0.147      139.400       13.455        0.009      337.256        9.110      858.227
05/21/2014  03:24:00      102.674       41.268       15.268       41.335       31.620       28.925     1708.602      999.824      836.634        0.801        0.177      110.657       21.456        0.038      337.260        9.117      858.216
05/21/2014  03:25:00       71.901       51.846       17.705       33.920       33.681       20.578     1150.540     1134.397      423.456        0.544        0.135       88.644       13.497        0.023      337.282        9.151      858.208
05/21/2014  03:26:00      117.818       73.678       16.699       39.166       49.195       30.348     1533.986     2420.110      921.015        1.223        0.244      138.959       16.498        0.014      337.279        9.147      858.210
05/21/2014  03:27:00       83.799       80.160       20.437       36.412       44.437       29.371     1325.869     1974.622      862.669        0.901        0.208      115.965       24.588        0.045      337.286        9.159      858.203
05/21/2014  03:28:00      149.585       75.990       13.301       51.989       33.921       35.008     2702.805     1150.612     1225.569        1.670        0.254      167.780       30.425        0.033      337.252        9.100      858.184
05/21/2014  03:29:00      148.217       72.473        5.975       53.791       39.819       36.531     2893.515     1585.539     1334.484        1.653        0.291      164.986       12.611        0.006      337.236        9.073      858.171
05/21/2014  03:30:00      128.439       59.325       16.398       47.375       34.926       30.097     2244.399     1219.816      905.837        1.233        0.219      141.478       24.648        0.030      337.242        9.083      858.163
05/21/2014  03:31:00      110.021       81.548       16.374       46.794       29.648       31.006     2189.706      878.990      961.366        1.153        0.202      136.948       26.223        0.037      337.247        9.093      858.153
05/21/2014  03:32:00       72.795       61.773       36.119       57.805       38.547       37.148     3341.417     1485.887     1379.971        0.831        0.310       95.473       33.223        0.121      337.346        9.258      858.154
05/21/2014  03:33:00       46.665       54.127       43.464       38.217       26.369       24.564     1460.519      695.344      603.410        0.488        0.138       71.466       14.813        0.043      337.322        9.216      858.163
05/21/2014  03:34:00       97.456       75.274       39.354       45.900       31.560       39.106     2106.795      996.046     1529.255        1.067        0.232      123.141       25.248        0.042      337.301        9.183      858.187
05/21/2014  03:35:00      126.085       36.864       20.858       46.594       38.197       34.242     2170.981     1459.042     1172.525        1.125        0.240      131.363       27.461        0.044      337.255        9.106      858.192
05/21/2014  03:36:00       95.428       12.128       25.150       56.320       36.932       34.695     3171.969     1363.971     1203.714        0.781        0.287       96.195       32.624        0.115      337.265        9.123      858.196
05/21/2014  03:37:00       44.533       22.001        7.489       35.465       31.234       17.477     1257.752      975.592      305.440        0.253        0.127       49.672       16.491        0.110      337.256        9.108      858.210
05/21/2014  03:38:00      126.292       69.706       16.608       35.649       27.521       29.417     1270.836      757.401      865.338        1.199        0.145      144.252       12.297        0.007      337.239        9.078      858.244
05/21/2014  03:39:00      105.543       40.487       21.042       46.651       36.894       30.231     2176.343     1361.178      913.915        0.884        0.223      113.042       20.646        0.033      337.265        9.122      858.262
05/21/2014  03:40:00       57.594       31.393       12.385       38.480       26.653       25.586     1480.748      710.371      654.634        0.365        0.142       65.594       17.820        0.074      337.258        9.112      858.254
05/21/2014  03:41:00       40.031       36.344       35.016       41.756       34.039       33.682     1743.562     1158.649     1134.477        0.409        0.202       54.068       29.412        0.296      337.317        9.210      858.247
05/21/2014  03:42:00       61.509       54.006       43.856       36.664       28.304       26.959     1344.280      801.108      726.807        0.575        0.144       81.854       22.633        0.076      337.261        9.116      858.239
05/21/2014  03:43:00       74.474       67.793       45.561       21.988       19.348       22.098      483.463      374.361      488.327        0.678        0.067      100.709       18.449        0.034      337.262        9.119      858.231
05/21/2014  03:44:00       97.942       51.259       32.427       17.431       29.398       24.108      303.834      864.246      581.175        0.751        0.087      110.544       24.322        0.048      337.258        9.112      858.215
05/21/2014  03:45:00       51.710       24.437       10.851       38.316       17.619       17.278     1468.112      310.441      298.523        0.273        0.104       57.194       15.381        0.072      337.319        9.212      858.190
05/21/2014  03:46:00       14.346       19.694       32.740       16.682       19.811       13.479      278.275      392.472      181.682        0.126        0.043       24.365        7.673        0.099      337.363        9.287      858.154
05/21/2014  03:47:00       48.474      -29.579       25.895       27.811       36.816       31.068      773.458     1355.447      965.193        0.349        0.155       56.786       26.696        0.221      337.449        9.430      858.131
05/21/2014  03:48:00       -9.120       -9.357      -12.014       29.224       23.981       24.577      854.061      575.108      604.053        0.117        0.102       13.067       15.036        1.324      337.433        9.405      858.117
05/21/2014  03:49:00      -36.758        3.862      -23.417       11.562        7.988       10.340      133.671       63.813      106.923        0.111        0.015       36.961        4.642        0.016      337.406        9.358      858.123
05/21/2014  03:50:00      -38.789      -59.320       -5.830       17.239       23.404       13.414      297.173      547.735      179.947        0.304        0.051       70.876        8.689        0.015      337.490        9.499      858.124
05/21/2014  03:51:00      -18.791      -26.104        6.719       24.363       23.712       19.989      593.565      562.261      399.553        0.132        0.078       32.164       15.832        0.242      337.553        9.605      858.126
05/21/2014  03:52:00      -19.061      -21.298        2.715       28.681       21.118       18.310      822.574      445.959      335.271        0.121        0.080       28.582       14.900        0.272      337.560        9.617      858.115
05/21/2014  03:53:00      -72.864      -36.115        5.482       40.076       25.191       19.555     1606.054      634.608      382.408        0.463        0.131       81.323       20.300        0.062      337.479        9.480      858.113
05/21/2014  03:54:00      -42.645      -21.504        6.187       30.303       21.335       15.215      918.287      455.178      231.482        0.196        0.080       47.760       15.478        0.105      337.466        9.457      858.116
05/21/2014  03:55:00      -81.803       -0.842       -7.811       13.910       20.447       10.790      193.480      418.060      116.434        0.374        0.036       81.808        9.603        0.014      337.433        9.403      858.117
05/21/2014  03:56:00      -78.775      -25.596      -10.553       17.112       15.965       11.873      292.806      254.876      140.974        0.383        0.034       82.829       10.053        0.015      337.441        9.414      858.116
05/21/2014  03:57:00      -50.072      -30.757       -8.562        8.039        8.795        6.002       64.621       77.351       36.023        0.185        0.009       58.764        3.980        0.005      337.445        9.425      858.116
05/21/2014  03:58:00      -59.642      -38.665      -10.503       10.107       17.017        8.208      102.154      289.563       67.365        0.281        0.023       71.078        4.277        0.004      337.468        9.462      858.117
05/21/2014  03:59:00      -45.112       -2.696       -4.424       12.119       11.636        6.914      146.877      135.386       47.806        0.120        0.017       45.192        4.094        0.008      337.483        9.489      858.136
05/21/2014  04:00:00      -74.514        0.316       -9.289       16.508       11.068       11.036      272.530      122.506      121.801        0.308        0.026       74.514        8.802        0.014      337.491        9.499      858.162
05/21/2014  04:01:00      -23.673       -4.922       -7.824       12.666       12.047        3.980      160.421      145.140       15.843        0.048        0.016       24.179        4.779        0.039      337.480        9.474      858.183
05/21/2014  04:02:00      -41.890      -30.148       -3.272       16.482       15.224        9.738      271.670      231.773       94.836        0.164        0.030       51.611        5.921        0.013      337.549        9.596      858.189
05/21/2014  04:03:00      -55.820      -22.626      -10.035       14.052       14.198       10.663      197.450      201.591      113.691        0.212        0.026       60.232        6.648        0.012      337.508        9.527      858.191
05/21/2014  04:04:00      -25.789      -30.976       -6.709       14.850       14.128       12.838      220.519      199.604      164.816        0.113        0.029       40.306        8.313        0.043      337.473        9.468      858.185
05/21/2014  04:05:00      -46.365      -33.741       -8.839       22.362       15.460       17.074      500.058      239.004      291.533        0.220        0.052       57.342       11.368        0.039      337.544        9.588      858.184
05/21/2014  04:06:00      -84.706      -25.594      -11.767       19.254       12.375       10.347      370.713      153.145      107.052        0.430        0.032       88.489        4.592        0.003      337.485        9.491      858.194
05/21/2014  04:07:00      -69.089      -35.689      -10.010       17.980       11.129        6.318      323.286      123.858       39.914        0.332        0.024       77.763        7.215        0.009      337.444        9.421      858.196
05/21/2014  04:08:00      -73.639      -21.863       -2.001       22.127       12.018       11.192      489.590      144.439      125.264        0.333        0.038       76.816        6.640        0.007      337.477        9.475      858.197
05/21/2014  04:09:00      -68.838      -29.095       -1.869       21.168       17.912       12.051      448.076      320.856      145.237        0.325        0.046       74.734        5.585        0.006      337.524        9.557      858.219
05/21/2014  04:10:00      -25.898      -26.255        2.616       25.725       21.660       13.582      661.799      469.164      184.470        0.134        0.066       36.878       12.870        0.122      337.529        9.564      858.242
05/21/2014  04:11:00      -50.862      -72.798       -6.910       20.120       24.088       14.724      404.797      580.236      216.785        0.457        0.060       88.806        7.192        0.007      337.537        9.576      858.265
05/21/2014  04:12:00      -87.850      -33.229       -8.449       20.382       18.106       15.103      415.441      327.826      228.105        0.493        0.049       93.925       11.065        0.014      337.508        9.529      858.281
05/21/2014  04:13:00      -82.843      -70.850       -2.975       37.472       30.745       19.124     1404.161      945.275      365.719        0.730        0.136      109.008       19.853        0.033      337.558        9.613      858.288
05/21/2014  04:14:00      -98.551      -63.772        5.383       40.140       41.299       25.468     1611.192     1705.647      648.604        0.889        0.198      117.385       15.891        0.018      337.527        9.561      858.287
05/21/2014  04:15:00      -98.490      -47.285        0.987       48.825       40.563       29.859     2383.902     1645.335      891.559        0.843        0.246      109.252       26.950        0.061      337.498        9.514      858.293
05/21/2014  04:16:00     -130.907     -105.184       -8.025       50.923       47.818       30.892     2593.104     2286.562      954.320        1.705        0.292      167.929       29.911        0.032      337.524        9.555      858.295
05/21/2014  04:17:00     -138.146      -99.964       -6.519       58.389       55.583       35.403     3409.262     3089.459     1253.342        1.843        0.388      170.520       37.260        0.048      337.499        9.513      858.303
05/21/2014  04:18:00      -92.203      -88.112       -7.966       42.964       43.412       31.146     1845.912     1884.565      970.089        1.051        0.235      127.535       29.714        0.054      337.497        9.513      858.319
05/21/2014  04:19:00      -70.141      -38.207        5.576       34.361       43.418       20.836     1180.701     1885.081      434.145        0.495        0.175       79.872       20.740        0.067      337.515        9.541      858.338
05/21/2014  04:20:00      -57.334      -44.221        2.208       41.269       24.448       23.660     1703.094      597.704      559.784        0.405        0.143       72.407       23.684        0.107      337.577        9.646      858.354
05/21/2014  04:21:00      -70.865      -59.800       -0.365       28.519       30.203       24.959      813.343      912.223      622.970        0.547        0.117       92.725       18.193        0.038      337.536        9.576      858.367
05/21/2014  04:22:00      -93.605      -49.143       -6.099       42.235       28.222       24.729     1783.837      796.479      611.544        0.720        0.160      105.721       24.026        0.052      337.535        9.574      858.382
05/21/2014  04:23:00      -65.730      -54.938       -2.344       33.758       30.993       17.787     1139.615      960.536      316.368        0.488        0.121       85.665       14.259        0.028      337.547        9.596      858.395
05/21/2014  04:24:00      -49.816      -28.149       -2.558       29.927       25.392       18.943      895.654      644.749      358.847        0.259        0.095       57.219       14.749        0.066      337.575        9.639      858.400
05/21/2014  04:25:00      -30.085      -61.609        7.164       52.314       40.139       30.368     2736.725     1611.176      922.200        0.501        0.264       68.562       33.496        0.239      337.600        9.683      858.401
05/21/2014  04:26:00      -55.227      -47.900        3.490       41.975       27.542       20.728     1761.939      758.565      429.657        0.415        0.148       73.105       23.027        0.099      337.608        9.696      858.412
05/21/2014  04:27:00      -93.137      -57.924        0.041       35.596       28.092       18.063     1267.094      789.151      326.254        0.721        0.119      109.680       18.689        0.029      337.589        9.666      858.418
05/21/2014  04:28:00      -46.493      -24.581        4.838       47.627       26.159       19.866     2268.354      684.295      394.676        0.307        0.167       52.591       14.709        0.078      337.632        9.737      858.420
05/21/2014  04:29:00      -45.943      -30.266        8.383       32.757       20.113       15.737     1073.026      404.538      247.651        0.241        0.086       55.016       14.503        0.069      337.635        9.742      858.425
05/21/2014  04:30:00      -86.784      -47.358       -3.124       17.607       19.924        9.336      309.996      396.967       87.167        0.529        0.040       98.864        8.316        0.007      337.575        9.641      858.427
05/21/2014  04:31:00      -81.557      -54.525       -5.248       41.647       43.598       21.418     1734.480     1900.743      458.746        0.687        0.205       98.104       24.079        0.060      337.597        9.678      858.413
05/21/2014  04:32:00      -61.543      -40.329        3.398       41.920       38.895       20.791     1757.272     1512.832      432.249        0.456        0.185       73.579       21.538        0.086      337.650        9.768      858.417
05/21/2014  04:33:00      -85.714      -53.538       -1.474       41.712       27.624       17.997     1739.872      763.103      323.883        0.652        0.141      101.060       17.709        0.031      337.638        9.749      858.421
05/21/2014  04:34:00     -134.080      -52.187       -9.836       22.088       25.376       14.632      487.881      643.917      214.108        1.107        0.067      143.878       14.125        0.010      337.622        9.722      858.427
05/21/2014  04:35:00     -115.320      -43.679       -4.624       18.797       29.244       14.680      353.310      855.186      215.508        0.833        0.071      123.315       11.114        0.008      337.602        9.687      858.438
05/21/2014  04:36:00      -84.461      -56.038        5.462       37.398       20.883       17.376     1398.578      436.093      301.911        0.622        0.107      101.360       15.245        0.023      337.627        9.730      858.453
05/21/2014  04:37:00     -102.746      -42.064       -9.164       28.776       16.274       16.637      828.046      264.845      276.774        0.689        0.068      111.023       18.233        0.027      337.681        9.819      858.452
05/21/2014  04:38:00      -47.306      -30.088        0.701       34.532       15.524       12.608     1192.460      240.987      158.956        0.237        0.080       56.064       15.406        0.076      337.725        9.894      858.447
05/21/2014  04:39:00      -66.001      -66.985       -3.265       29.866       25.538       20.000      891.965      652.207      399.995        0.540        0.097       94.038       17.662        0.035      337.703        9.856      858.438
05/21/2014  04:40:00      -39.382      -39.089       11.460       37.475       36.424       18.719     1404.345     1326.723      350.387        0.315        0.154       55.487       17.372        0.098      337.711        9.869      858.431
05/21/2014  04:41:00      -53.119      -30.566       -0.800       22.917       23.763       16.591      525.173      564.671      275.251        0.256        0.068       61.286       16.672        0.074      337.611        9.702      858.439
05/21/2014  04:42:00      -23.269      -12.898       -0.014       19.848        9.959        8.615      393.948       99.175       74.215        0.064        0.028       26.605       10.136        0.145      337.637        9.745      858.451
05/21/2014  04:43:00      -46.235      -35.801      -10.194       15.532       13.217        8.487      241.255      174.686       72.027        0.201        0.024       58.476        3.880        0.004      337.677        9.812      858.458
05/21/2014  04:44:00      -30.888      -30.674       -4.153       10.088        6.959        5.373      101.777       48.422       28.871        0.105        0.009       43.532        3.387        0.006      337.674        9.808      858.461
05/21/2014  04:45:00      -26.627      -16.503        8.931       16.422       17.589       15.252      269.694      309.372      232.629        0.094        0.041       31.327        6.156        0.039      337.831       10.069      858.448
05/21/2014  04:46:00      -26.524        1.464       15.412       18.869       18.727       12.528      356.029      350.714      156.942        0.090        0.043       26.565        9.368        0.124      337.854       10.111      858.454
05/21/2014  04:47:00      -19.525       24.310       10.323       12.303       16.726       13.911      151.353      279.747      193.510        0.085        0.031       31.180        8.636        0.077      337.783        9.990      858.471
05/21/2014  04:48:00      -32.680      -12.859       -5.757       19.631       17.317        9.483      385.369      299.886       89.919        0.102        0.039       35.119        5.287        0.023      337.712        9.872      858.487
05/21/2014  04:49:00      -16.808      -17.469        7.534       25.296       18.140       15.564      639.883      329.077      242.226        0.093        0.061       24.242       14.061        0.336      337.777        9.980      858.488
05/21/2014  04:50:00      -21.073      -11.771       12.113       26.260       17.293       12.596      689.613      299.036      158.657        0.094        0.057       24.138       14.904        0.381      337.741        9.920      858.498
05/21/2014  04:51:00      -39.620      -25.199       -0.792       22.596       21.381       11.118      510.577      457.133      123.613        0.165        0.055       46.954        6.286        0.018      337.639        9.748      858.534
05/21/2014  04:52:00      -25.945      -25.164       -2.336       19.550       15.986       11.245      382.197      255.566      126.441        0.104        0.038       36.144        5.762        0.025      337.664        9.791      858.568
05/21/2014  04:53:00      -45.592      -46.071       -1.772       24.049       22.566       15.674      578.357      509.222      245.687        0.277        0.067       64.816       13.534        0.044      337.640        9.750      858.572
05/21/2014  04:54:00      -19.009      -21.801        5.549       28.170       46.537       20.469      793.539     2165.671      418.978        0.212        0.169       28.925       18.115        0.392      337.721        9.887      858.560
05/21/2014  04:55:00      -49.595      -44.041       -6.588       26.581       18.085       12.642      706.524      327.081      159.833        0.282        0.060       66.327        9.557        0.021      337.710        9.869      858.543
05/21/2014  04:56:00      -34.834      -28.254        2.612       34.668       18.734       14.332     1201.849      350.969      205.419        0.189        0.088       44.851       14.657        0.107      337.770        9.969      858.550
05/21/2014  04:57:00      -50.068      -29.114        3.831       27.605       16.476       12.094      762.062      271.452      146.276        0.227        0.059       57.918       12.787        0.049      337.660        9.786      858.573
05/21/2014  04:58:00      -89.956      -27.005       -5.624        8.584       11.927        7.451       73.690      142.245       55.524        0.456        0.014       93.922        4.776        0.003      337.601        9.685      858.595
05/21/2014  04:59:00     -101.643      -40.686       -8.036       12.018       11.986       11.035      144.431      143.662      121.768        0.623        0.020      109.484        2.699        0.001      337.585        9.657      858.608
05/21/2014  05:00:00      -90.702      -23.061      -10.434       15.543       12.481       12.313      241.600      155.766      151.603        0.471        0.027       93.588       10.276        0.012      337.619        9.716      858.613
05/21/2014  05:01:00      -52.723      -20.302       -5.915       23.075       14.696       13.600      532.456      215.980      184.962        0.208        0.047       56.496       11.188        0.039      337.671        9.805      858.608
05/21/2014  05:02:00      -66.429      -26.336       -5.912       21.097       21.033       11.548      445.104      442.396      133.363        0.308        0.051       71.459       10.639        0.022      337.665        9.796      858.613
05/21/2014  05:03:00      -38.776        2.491        2.467       19.792       22.321       13.651      391.711      498.224      186.357        0.130        0.054       38.855       13.354        0.118      337.710        9.867      858.623
05/21/2014  05:04:00      -81.067       -2.781       -6.576       35.648       22.205       15.225     1270.750      493.071      231.801        0.431        0.100       81.115       14.912        0.034      337.712        9.872      858.630
05/21/2014  05:05:00      -85.351       10.307      -12.762       29.158       14.920       15.500      850.165      222.611      240.261        0.443        0.066       85.971       12.931        0.023      337.696        9.842      858.643
05/21/2014  05:06:00      -75.243      -17.682      -16.574       29.935       22.209       15.216      896.125      493.248      231.530        0.393        0.081       77.293        9.057        0.014      337.735        9.910      858.660
05/21/2014  05:07:00      -77.446        5.462      -10.174       27.907       36.661       21.413      778.808     1344.039      458.528        0.436        0.129       77.638       17.056        0.048      337.771        9.971      858.674
05/21/2014  05:08:00      -95.094       -9.354      -10.771       24.071       34.046       20.255      579.432     1159.129      410.283        0.570        0.107       95.553        9.778        0.010      337.820       10.052      858.679
05/21/2014  05:09:00      -69.464      -14.141       -6.285       19.913       25.939       21.342      396.540      672.809      455.479        0.329        0.076       70.889        8.965        0.016      337.790       10.002      858.686
05/21/2014  05:10:00      -45.573      -14.230       -6.639       22.871       16.571       17.044      523.077      274.596      290.481        0.171        0.054       47.743        9.089        0.036      337.833       10.074      858.697
05/21/2014  05:11:00      -49.598      -13.391      -11.143       24.231       20.299       15.185      587.165      412.045      230.579        0.200        0.061       51.374        8.173        0.025      337.861       10.120      858.695
05/21/2014  05:12:00      -58.308      -13.771      -15.837       19.761       25.075       18.328      390.511      628.769      335.898        0.260        0.068       59.912       11.886        0.039      337.902       10.187      858.694
05/21/2014  05:13:00      -55.293      -17.281       -3.481       23.565       26.591       15.581      555.298      707.107      242.776        0.244        0.075       57.930       10.680        0.034      337.885       10.161      858.692
05/21/2014  05:14:00      -55.221      -16.086       -2.648       21.353       27.906       12.457      455.931      778.724      155.186        0.235        0.069       57.516        9.675        0.028      337.889       10.166      858.677
05/21/2014  05:15:00      -91.180        2.334      -15.930       26.099       33.570       17.430      681.134     1126.962      303.788        0.534        0.106       91.209       14.145        0.024      337.873       10.140      858.674
05/21/2014  05:16:00      -90.006       11.225      -12.562       29.173       18.391       19.669      851.068      338.231      386.887        0.498        0.079       90.704       15.429        0.029      337.881       10.154      858.683
05/21/2014  05:17:00      -60.118       26.096       -9.739       15.204       30.735       11.962      231.158      944.664      143.089        0.285        0.066       65.538        4.349        0.004      337.885       10.160      858.675
05/21/2014  05:18:00      -81.227       21.591       -5.224       23.355       23.632       15.521      545.459      558.486      240.891        0.422        0.067       84.047       12.340        0.022      337.895       10.178      858.663
05/21/2014  05:19:00      -75.320       37.903       -6.272       17.211       21.917       16.755      296.222      480.373      280.715        0.410        0.053       84.319        8.931        0.011      337.948       10.268      858.644
05/21/2014  05:20:00      -57.162       -4.768       -2.512       27.581       44.151       22.931      760.714     1949.296      525.825        0.327        0.162       57.361       26.970        0.221      338.043       10.426      858.632
05/21/2014  05:21:00      -41.779      -11.814        5.415       34.615       17.634       16.754     1198.199      310.974      280.703        0.185        0.089       43.418       16.536        0.145      338.030       10.406      858.610
05/21/2014  05:22:00      -57.512      -30.394       -2.467       38.737       33.749       15.355     1500.533     1138.970      235.787        0.356        0.144       65.049       18.170        0.078      337.989       10.337      858.595
05/21/2014  05:23:00      -68.121      -42.590       -2.113       20.163       18.360       16.340      406.542      337.077      266.994        0.373        0.051       80.339        6.142        0.006      337.994       10.345      858.598
05/21/2014  05:24:00      -70.493      -35.035       -4.867       29.814       24.032       17.904      888.869      577.541      320.538        0.400        0.089       78.719       12.578        0.026      337.994       10.345      858.596
05/21/2014  05:25:00      -53.793      -12.335      -10.726       14.239       24.928       15.424      202.740      621.416      237.895        0.211        0.053       55.189       10.957        0.039      337.887       10.167      858.579
05/21/2014  05:26:00      -16.652        4.354      -11.215       15.649        5.280        8.990      244.880       27.873       80.816        0.039        0.018       17.211        7.595        0.195      337.892       10.172      858.573
05/21/2014  05:27:00      -21.804      -24.159       -8.229       12.965       17.092        6.549      168.080      292.128       42.886        0.081        0.025       32.543        3.205        0.010      337.917       10.214      858.574
05/21/2014  05:28:00      -19.343      -12.039       -2.143       13.009       12.843       11.800      169.245      164.946      139.242        0.050        0.024       22.784        5.034        0.049      337.961       10.291      858.580
05/21/2014  05:29:00       -6.237       10.154      -10.764       10.276        8.702       11.032      105.600       75.728      121.714        0.028        0.015       11.916        3.446        0.084      337.982       10.324      858.588
05/21/2014  05:30:00      -18.738        9.022        1.233       12.636        7.544        6.316      159.658       56.913       39.897        0.035        0.013       20.797        5.590        0.072      337.963       10.294      858.594
05/21/2014  05:31:00       -3.027        8.413        4.536        3.800        3.989        4.890       14.441       15.916       23.916        0.008        0.003        8.941        1.394        0.024      337.979       10.317      858.606
05/21/2014  05:32:00        1.344        6.173       -1.215        5.711        8.534        7.682       32.618       72.821       59.010        0.010        0.008        6.318        4.007        0.402      337.987       10.332      858.604
05/21/2014  05:33:00       40.676       36.877       16.804       34.752       19.730       14.328     1207.678      389.291      205.303        0.255        0.090       54.904        7.892        0.021      337.974       10.311      858.616
05/21/2014  05:34:00       68.082       48.206        9.905       19.837       12.313       19.314      393.502      151.613      373.017        0.399        0.046       83.420        8.335        0.010      337.944       10.260      858.622
05/21/2014  05:35:00       59.268       53.246        9.551       13.978       12.717       10.287      195.376      161.734      105.823        0.345        0.023       79.673        6.841        0.007      337.919       10.218      858.622
05/21/2014  05:36:00       41.436       31.769       -0.149       12.491       14.188       11.047      156.035      201.311      122.045        0.160        0.024       52.214        6.726        0.017      337.951       10.274      858.627
05/21/2014  05:37:00       34.788       21.557       -0.046       11.116       11.561        7.335      123.564      133.659       53.800        0.099        0.016       40.925        6.294        0.024      337.930       10.240      858.627
05/21/2014  05:38:00       32.153       55.417       -4.515       14.430       26.157       16.735      208.214      684.170      280.054        0.265        0.059       64.070       15.708        0.060      337.965       10.296      858.630
05/21/2014  05:39:00       26.150       47.957       -5.784       20.109       19.746       18.935      404.369      389.912      358.533        0.208        0.058       54.624       14.648        0.072      337.985       10.331      858.645
05/21/2014  05:40:00      -20.696       37.526       -5.037       26.624       34.347        8.330      708.832     1179.747       69.395        0.191        0.098       42.855       13.443        0.098      337.987       10.332      858.651
05/21/2014  05:41:00      -59.736       14.920       -5.915       14.593       19.255       13.018      212.941      370.770      169.465        0.229        0.038       61.571        7.798        0.016      337.900       10.187      858.672
05/21/2014  05:42:00      -66.482       21.856       -6.853       16.173       15.335       10.636      261.579      235.161      113.115        0.278        0.030       69.983        8.030        0.013      337.889       10.169      858.696
05/21/2014  05:43:00      -62.432       27.011      -13.487       18.394       11.259        9.601      338.339      126.764       92.172        0.268        0.028       68.024        8.932        0.017      337.950       10.272      858.729
05/21/2014  05:44:00      -31.409       20.720        4.413       20.999       12.137       12.535      440.964      147.309      157.125        0.109        0.037       37.628       13.521        0.129      337.963       10.294      858.751
05/21/2014  05:45:00      -10.152       12.395        6.008        9.365       17.546        9.508       87.695      307.857       90.410        0.039        0.024       16.022        8.476        0.280      338.049       10.439      858.772
05/21/2014  05:46:00      -17.470       12.718       -2.122       16.732       12.772       10.862      279.954      163.118      117.983        0.052        0.028       21.609        7.859        0.132      337.951       10.273      858.773
05/21/2014  05:47:00      -30.966        6.188       -4.358       15.040        8.014        9.530      226.209       64.227       90.819        0.070        0.019       31.578        9.790        0.096      337.920       10.222      858.775
05/21/2014  05:48:00       -2.888        4.775        9.916        9.515        6.153        5.341       90.541       37.853       28.528        0.014        0.008        5.581        2.960        0.281      337.962       10.291      858.797
05/21/2014  05:49:00      -24.362       12.444        0.482       17.441       12.502       10.267      304.202      156.301      105.405        0.066        0.028       27.356       11.513        0.177      337.992       10.343      858.835
05/21/2014  05:50:00      -21.768       15.438        3.255       10.680       11.908       10.477      114.056      141.810      109.758        0.054        0.018       26.687        7.211        0.073      337.953       10.277      858.872
05/21/2014  05:51:00       -0.720       80.505       -7.590       12.450       27.617       13.089      154.991      762.692      171.318        0.381        0.054       80.508       10.180        0.016      337.970       10.305      858.917
05/21/2014  05:52:00        3.421       96.157      -16.410       20.387       18.232       13.115      415.636      332.405      171.993        0.522        0.046       96.218        9.786        0.010      337.941       10.255      858.952
05/21/2014  05:53:00      -35.750       94.095       -7.114       34.727       46.135       27.161     1205.936     2128.400      737.699        0.713        0.204      100.657       27.698        0.076      338.018       10.386      858.979
05/21/2014  05:54:00        3.016       74.635       10.615       27.666       47.308       25.395      765.429     2238.086      644.918        0.467        0.182       74.696       27.670        0.137      338.063       10.460      858.985
05/21/2014  05:55:00       49.998       76.649       -7.406       35.621       51.498       28.983     1268.855     2652.090      840.038        0.659        0.238       91.514       31.003        0.115      337.914       10.208      858.982
05/21/2014  05:56:00        9.483      106.180      -17.379       41.652       36.718       19.634     1734.923     1348.209      385.501        0.757        0.173      106.603        9.554        0.008      337.889       10.168      858.964
05/21/2014  05:57:00       20.956      170.175      -10.563       45.120       76.518       39.309     2035.808     5855.071     1545.173        1.947        0.472      171.461       35.742        0.043      337.901       10.187      858.980
05/21/2014  05:58:00       15.257      206.873      -27.853       51.923       59.016       32.201     2696.008     3482.908     1036.921        2.551        0.361      207.435       20.511        0.010      337.874       10.140      859.024
05/21/2014  05:59:00       88.571      132.270        2.380       61.401       80.311       49.888     3770.062     6449.904     2488.776        1.902        0.635      159.187       50.327        0.100      337.804       10.024      859.075
05/21/2014  06:00:00      146.323      107.762       13.891      101.125       48.600       47.313    10226.219     2361.984     2238.503        2.402        0.741      181.722       32.980        0.033      337.756        9.942      859.118
05/21/2014  06:01:00      153.739      146.568       27.662      142.372       71.724       71.744    20269.923     5144.362     5147.193        3.822        1.528      212.410       47.819        0.051      337.690        9.833      859.131
05/21/2014  06:02:00       94.878      210.057      -10.140      124.439      130.306       71.930    15484.955    16979.749     5173.872        4.543        1.882      230.490       68.526        0.088      337.625        9.723      859.147
05/21/2014  06:03:00      217.818      153.678        5.985      107.030       81.757       71.937    11455.352     6684.218     5174.924        4.720        1.166      266.574       62.368        0.055      337.551        9.598      859.143
05/21/2014  06:04:00      126.530      114.836       15.403      111.072       62.916       53.893    12336.995     3958.471     2904.409        2.431        0.960      170.872       35.900        0.044      337.485        9.488      859.140
05/21/2014  06:05:00      101.010      125.067        0.544       90.360       69.253       55.869     8164.852     4796.000     3121.392        2.096        0.804      160.763       37.807        0.055      337.455        9.439      859.132
05/21/2014  06:06:00      148.594      122.503       15.264      136.061       81.012       64.086    18512.511     6562.956     4107.035        3.325        1.459      192.580       44.323        0.053      337.424        9.387      859.142
05/21/2014  06:07:00       36.035      105.667       -1.583       70.150       59.970       45.893     4921.055     3596.400     2106.130        1.154        0.531      111.643       31.123        0.078      337.389        9.330      859.147
05/21/2014  06:08:00      135.507      117.303       10.564       93.255       58.110       47.983     8696.442     3376.720     2302.404        2.330        0.719      179.226       36.390        0.041      337.370        9.296      859.151
05/21/2014  06:09:00       92.802      121.582        7.592       78.791       89.072       64.955     6208.060     7933.880     4219.132        2.090        0.918      152.953       60.044        0.154      337.366        9.289      859.179
05/21/2014  06:10:00       60.330      128.100       -0.648       59.001       91.110       50.281     3481.144     8301.108     2528.150        1.718        0.716      141.596       52.453        0.137      337.360        9.279      859.215
05/21/2014  06:11:00       65.963       86.436       12.221       62.315       71.420       49.447     3883.144     5100.813     2445.016        1.170        0.571      108.731       45.048        0.172      337.351        9.266      859.266
05/21/2014  06:12:00      113.022      139.404        2.015       75.426       75.605       48.870     5689.157     5716.184     2388.276        2.300        0.690      179.464       42.299        0.056      337.332        9.232      859.304
05/21/2014  06:13:00       70.752      219.233      -16.740       83.066      117.062       63.580     6899.960    13703.462     4042.451        3.899        1.232      230.367       49.414        0.046      337.317        9.206      859.340
05/21/2014  06:14:00      110.748      210.610        1.764       95.032      116.285       82.025     9031.093    13522.139     6728.076        4.295        1.464      237.953       74.095        0.097      337.297        9.174      859.388
05/21/2014  06:15:00      132.272      113.047       14.029      124.916       88.900       66.542    15603.925     7903.142     4427.860        2.920        1.397      173.998       42.113        0.059      337.246        9.090      859.419
05/21/2014  06:16:00       90.154      188.706        8.695      103.751      129.473       85.148    10764.245    16763.355     7250.170        3.929        1.739      209.136       81.285        0.151      337.225        9.053      859.453
05/21/2014  06:17:00      100.405      200.613        7.148      107.295      132.166      102.749    11512.213    17467.794    10557.454        4.495        1.977      224.336       88.035        0.154      337.197        9.006      859.484
05/21/2014  06:18:00       62.362      166.901       -9.670       96.714      134.663       88.299     9353.664    18134.256     7796.741        3.355        1.764      178.171       84.063        0.223      337.169        8.959      859.510
05/21/2014  06:19:00      112.824      143.706        5.814      111.331       71.349       65.694    12394.633     5090.689     4315.767        2.760        1.090      182.704       49.103        0.072      337.124        8.883      859.521
05/21/2014  06:20:00       38.903      129.874       -0.488       62.880       91.961       57.740     3953.841     8456.801     3333.855        1.706        0.787      135.575       45.617        0.113      337.120        8.877      859.514
05/21/2014  06:21:00      104.732      185.125      -14.749       77.696      129.454       63.074     6036.631    16758.426     3978.360        3.611        1.339      212.697       75.444        0.126      337.132        8.897      859.486
05/21/2014  06:22:00       81.764      137.605       -4.768       81.427       86.563       60.772     6630.362     7493.205     3693.201        2.173        0.891      160.064       49.923        0.097      337.119        8.875      859.460
05/21/2014  06:23:00       49.191      110.287       -9.043       44.578       62.475       37.785     1987.212     3903.088     1427.732        1.099        0.366      120.760       38.900        0.104      337.108        8.858      859.465
05/21/2014  06:24:00       34.937      172.696      -20.023       49.920       91.003       45.569     2492.041     8281.493     2076.524        2.215        0.643      176.195       48.617        0.076      337.118        8.873      859.463
05/21/2014  06:25:00       46.505      154.434       -6.857       48.353       77.870       48.835     2338.058     6063.775     2384.830        1.842        0.539      161.284       48.686        0.091      337.097        8.838      859.457
05/21/2014  06:26:00       57.553       66.207        4.152       39.056       38.971       28.327     1525.402     1518.729      802.447        0.578        0.192       87.725       23.027        0.069      337.062        8.781      859.448
05/21/2014  06:27:00       34.762       87.627       -4.710       55.096       65.339       30.861     3035.571     4269.122      952.422        0.858        0.413       94.270       26.140        0.077      337.064        8.785      859.416
05/21/2014  06:28:00      -41.418      117.764       -2.523       54.737       50.407       36.739     2996.159     2540.833     1349.760        1.124        0.344      124.835       25.315        0.041      337.143        8.917      859.374
05/21/2014  06:29:00        1.426       75.547       -6.337       44.594       65.358       26.443     1988.669     4271.714      699.214        0.635        0.348       75.561       34.098        0.204      337.139        8.910      859.346
05/21/2014  06:30:00       -2.788      132.493      -13.714       29.182       30.796       15.109      851.615      948.369      228.283        0.989        0.101      132.523        8.816        0.004      337.092        8.830      859.322
05/21/2014  06:31:00        5.602      128.944      -18.659       29.360       42.235       20.759      862.027     1783.795      430.946        1.004        0.154      129.066       18.888        0.021      337.066        8.787      859.307
05/21/2014  06:32:00      -28.761      126.090      -17.168       30.957       47.539       28.471      958.337     2259.964      810.618        1.052        0.201      129.328       27.809        0.046      337.156        8.940      859.292
05/21/2014  06:33:00      -21.989       55.154        0.060       28.886       32.926       20.990      834.418     1084.106      440.599        0.294        0.118       59.376       19.382        0.107      337.205        9.023      859.275
05/21/2014  06:34:00       22.660       65.345       -2.395       36.886       28.578       20.819     1360.602      816.684      433.432        0.370        0.131       69.162       16.219        0.055      337.135        8.905      859.228
05/21/2014  06:35:00       24.358       65.796       -6.268       39.190       17.164       17.122     1535.828      294.605      293.170        0.354        0.106       70.160       16.029        0.052      337.084        8.815      859.190
05/21/2014  06:36:00        7.969       14.596        5.246       18.809       12.957       10.895      353.760      167.890      118.692        0.047        0.032       16.629        9.313        0.314      337.133        8.901      859.161
05/21/2014  06:37:00        3.076       22.179       -5.531       14.616       11.143       10.762      213.626      124.167      115.827        0.049        0.023       22.391        9.045        0.163      337.154        8.936      859.151
05/21/2014  06:38:00       10.672       42.030       -3.424       14.604       25.243       19.024      213.273      637.222      361.920        0.155        0.061       43.364       14.153        0.107      337.149        8.928      859.173
05/21/2014  06:39:00       28.213       27.394        6.079       35.973       27.019       20.111     1294.037      730.029      404.464        0.201        0.121       39.324       12.760        0.105      337.158        8.940      859.200
05/21/2014  06:40:00       -0.076       51.252        2.828       12.720       17.292       15.283      161.788      299.001      233.566        0.166        0.035       51.252       13.709        0.072      337.123        8.885      859.250
05/21/2014  06:41:00      -12.540      118.565      -16.489       20.153       32.736       16.870      406.142     1071.650      284.583        0.812        0.088      119.226       18.577        0.024      337.205        9.022      859.284
05/21/2014  06:42:00      -24.245       99.161      -19.633       24.905       28.437       17.306      620.267      808.664      299.483        0.627        0.086      102.082       16.623        0.027      337.203        9.019      859.299
05/21/2014  06:43:00      -41.368      108.021       -8.904       33.930       28.659       15.046     1151.229      821.354      226.390        0.783        0.110      115.671        6.603        0.003      337.253        9.103      859.304
05/21/2014  06:44:00      -38.779       48.103      -11.600       21.121       34.171       16.124      446.108     1167.648      259.978        0.291        0.094       61.788       17.467        0.080      337.175        8.973      859.295
05/21/2014  06:45:00      -55.384       14.552      -12.180       23.393       26.615       13.051      547.251      708.345      170.340        0.243        0.071       57.264       10.812        0.036      337.230        9.063      859.290
05/21/2014  06:46:00      -43.398       10.566       -6.986       13.865       15.916       10.963      192.241      253.328      120.198        0.130        0.028       44.666        5.223        0.014      337.253        9.103      859.282
05/21/2014  06:47:00      -30.867       14.528       -4.891        9.533       13.952        7.430       90.878      194.645       55.205        0.076        0.017       34.115        4.261        0.016      337.297        9.176      859.269
05/21/2014  06:48:00      -82.043       -4.967      -11.314       27.663       14.247       12.748      765.254      202.991      162.523        0.401        0.057       82.193        9.406        0.013      337.252        9.100      859.272
05/21/2014  06:49:00      -62.823        1.243       -5.504       18.642       18.892       12.154      347.535      356.892      147.727        0.242        0.043       62.835        8.863        0.020      337.283        9.153      859.273
05/21/2014  06:50:00      -71.592       -5.920       -8.494       22.296       22.420       10.094      497.113      502.654      101.896        0.317        0.055       71.837        7.363        0.011      337.317        9.210      859.275
05/21/2014  06:51:00      -72.759       -6.515       -4.723       29.185       19.256       17.034      851.745      370.778      290.161        0.344        0.076       73.050       14.302        0.038      337.264        9.122      859.272
05/21/2014  06:52:00      -82.776      -42.398       -6.561       38.888       37.817       21.642     1512.279     1430.135      468.387        0.605        0.171       93.002        8.667        0.009      337.267        9.127      859.269
05/21/2014  06:53:00     -160.859      -67.761       -5.357       31.001       26.562       19.836      961.058      705.528      393.468        1.628        0.103      174.548       13.766        0.006      337.151        8.931      859.288
05/21/2014  06:54:00     -147.566      -67.926      -11.054       22.614       24.648       17.805      511.375      607.537      317.024        1.397        0.072      162.449       12.018        0.005      337.159        8.944      859.294
05/21/2014  06:55:00     -137.262      -46.826      -14.686       39.447       26.690       21.789     1556.070      712.334      474.751        1.200        0.137      145.029       23.924        0.027      337.200        9.015      859.304
05/21/2014  06:56:00      -98.260      -40.132      -11.101       25.961       29.501       22.645      673.962      870.335      512.814        0.672        0.103      106.140       16.039        0.023      337.241        9.083      859.313
05/21/2014  06:57:00      -80.082        5.260       -6.306       21.364       25.016       17.016      456.402      625.798      289.543        0.393        0.069       80.255       10.854        0.018      337.282        9.151      859.329
05/21/2014  06:58:00      -59.869        3.267       -3.996       30.097       27.692       15.340      905.827      766.831      235.312        0.276        0.095       59.958        9.714        0.026      337.285        9.155      859.351
05/21/2014  06:59:00      -60.156      -48.618        0.063       43.022       25.965       27.024     1850.905      674.173      730.315        0.462        0.163       77.346       27.982        0.131      337.292        9.167      859.366
05/21/2014  07:00:00        7.748      -23.512        2.374       24.946       23.447       22.054      622.285      549.770      486.372        0.114        0.083       24.756       14.092        0.324      337.302        9.184      859.382
05/21/2014  07:01:00       -8.006      -20.906       11.400       43.503       21.495       23.141     1892.479      462.056      535.503        0.176        0.145       22.386       24.970        1.244      337.318        9.211      859.391
05/21/2014  07:02:00      -60.498      -27.480       -9.491       31.303       33.189       18.361      979.853     1101.479      337.129        0.346        0.121       66.447       13.955        0.044      337.336        9.241      859.391
05/21/2014  07:03:00      -95.842      -34.137      -10.314       39.341       18.040       14.505     1547.719      325.425      210.385        0.627        0.104      101.740       18.178        0.032      337.266        9.124      859.399
05/21/2014  07:04:00      -90.272       -6.913      -13.330       14.178       15.223       15.111      201.021      231.742      228.335        0.452        0.033       90.536       12.578        0.019      337.259        9.114      859.419
05/21/2014  07:05:00      -89.139      -29.948       -6.695       23.467       17.014       16.544      550.681      289.461      273.704        0.500        0.056       94.035       11.991        0.016      337.328        9.228      859.448
05/21/2014  07:06:00      -69.778      -23.923       -0.681       42.585       21.023       15.805     1813.469      441.960      249.784        0.397        0.125       73.765       13.816        0.035      337.314        9.204      859.476
05/21/2014  07:07:00       -7.815       10.839       13.275       15.403       13.683        8.964      237.245      187.211       80.354        0.043        0.025       13.363        8.038        0.362      337.395        9.339      859.497
05/21/2014  07:08:00       29.944       54.254        0.951       16.207       30.465       14.629      262.664      928.143      213.994        0.262        0.070       61.969       13.733        0.049      337.359        9.279      859.507
05/21/2014  07:09:00       20.535       25.522        4.639       16.566       17.224       13.760      274.434      296.674      189.339        0.093        0.038       32.758        8.188        0.062      337.343        9.252      859.513
05/21/2014  07:10:00       45.551       32.618        4.480       18.364       21.752       13.920      337.224      473.165      193.768        0.208        0.050       56.025        6.882        0.015      337.322        9.219      859.518
05/21/2014  07:11:00       56.129       41.635        4.894       25.222       20.540       20.039      636.147      421.879      401.548        0.318        0.073       69.885       13.240        0.036      337.327        9.229      859.527
05/21/2014  07:12:00       30.412       38.089       25.649       22.066       14.050       14.767      486.901      197.409      218.063        0.197        0.045       48.741        8.961        0.034      337.323        9.219      859.528
05/21/2014  07:13:00       23.763       31.510       18.525       12.348        9.664       13.488      152.485       93.399      181.936        0.116        0.021       39.466        8.922        0.051      337.294        9.172      859.527
05/21/2014  07:14:00       24.725       25.300        9.353        7.808        7.478        7.908       60.963       55.923       62.531        0.076        0.009       35.375        4.611        0.017      337.302        9.185      859.515
05/21/2014  07:15:00       19.367       24.106        3.897       11.089       15.114        9.525      122.968      228.418       90.733        0.071        0.022       30.922        5.115        0.027      337.313        9.203      859.507
05/21/2014  07:16:00       17.631       38.488       -1.206       14.955       15.766       12.837      223.650      248.571      164.801        0.122        0.032       42.334       10.478        0.061      337.317        9.210      859.517
05/21/2014  07:17:00       28.594       11.755        1.992        8.575       19.586       11.477       73.523      383.592      131.721        0.077        0.029       30.916       10.363        0.112      337.319        9.216      859.529
05/21/2014  07:18:00       20.749       17.273        0.990       11.116       12.422       11.452      123.575      154.305      131.142        0.057        0.020       26.998        9.113        0.114      337.340        9.246      859.547
05/21/2014  07:19:00       28.223       25.164       16.621       35.384       12.867       17.231     1252.007      165.558      296.891        0.171        0.086       37.812       15.068        0.159      337.363        9.285      859.566
05/21/2014  07:20:00       49.185       40.635       -4.264       16.915       18.058       17.369      286.126      326.099      301.699        0.250        0.046       63.799       13.118        0.042      337.338        9.242      859.588
05/21/2014  07:21:00       24.254       43.045       -2.644       12.962       23.555       13.467      168.021      554.821      181.352        0.168        0.045       49.408       10.541        0.046      337.345        9.256      859.624
05/21/2014  07:22:00       11.546       19.826        2.357       13.542       14.075       11.793      183.381      198.095      139.071        0.053        0.026       22.943       10.836        0.223      337.366        9.291      859.639
05/21/2014  07:23:00       23.700       38.888       -7.167       14.519       14.836       10.609      210.791      220.106      112.552        0.133        0.027       45.541        8.049        0.031      337.323        9.220      859.639
05/21/2014  07:24:00       31.280       19.685        2.034       16.799       13.538        8.660      282.211      183.288       74.990        0.096        0.027       36.959        5.211        0.020      337.320        9.213      859.633
05/21/2014  07:25:00       27.071       34.338       -8.126       17.228       13.242       14.176      296.804      175.351      200.973        0.133        0.034       43.726        5.685        0.017      337.294        9.172      859.621
05/21/2014  07:26:00       49.379       56.615        9.877       21.328       10.153       16.491      454.894      103.092      271.943        0.329        0.041       75.123        6.944        0.009      337.285        9.157      859.619
05/21/2014  07:27:00       45.200       63.175       26.775       18.854       20.292       18.596      355.487      411.781      345.814        0.393        0.056       77.680       15.592        0.040      337.275        9.141      859.614
05/21/2014  07:28:00       37.744       35.389       40.577       19.220       16.293       10.324      369.391      265.460      106.578        0.253        0.037       51.740        5.281        0.010      337.263        9.119      859.630
05/21/2014  07:29:00       51.449       37.891       33.784       16.855       11.025       15.467      284.088      121.560      239.215        0.293        0.032       63.897        7.338        0.013      337.238        9.078      859.642
05/21/2014  07:30:00       41.524       22.858       -9.323       11.055       15.799       15.102      122.218      249.601      228.066        0.147        0.030       47.399        6.476        0.019      337.228        9.061      859.652
05/21/2014  07:31:00       18.091       39.201       -4.644       15.993       23.493       19.925      255.766      551.942      397.008        0.154        0.060       43.174       12.452        0.083      337.230        9.063      859.662
05/21/2014  07:32:00       51.747       47.807       30.703       21.433       16.749       19.180      459.360      280.534      367.886        0.351        0.055       70.450       10.984        0.024      337.232        9.068      859.666
05/21/2014  07:33:00       81.668       63.545       32.028       19.329       12.609       25.985      373.617      158.975      675.220        0.647        0.060      103.478       15.781        0.023      337.202        9.019      859.677
05/21/2014  07:34:00       77.198       53.659       18.728       20.422       16.108       25.764      417.076      259.458      663.788        0.526        0.067       94.015       12.355        0.017      337.203        9.020      859.683
05/21/2014  07:35:00       67.724       41.274       26.720       32.980       19.870       24.993     1087.652      394.799      624.641        0.456        0.105       79.310       17.370        0.048      337.207        9.026      859.692
05/21/2014  07:36:00       59.584       59.824       29.844       35.429       44.908       29.344     1255.229     2016.755      861.061        0.608        0.207       84.435        7.625        0.008      337.197        9.009      859.705
05/21/2014  07:37:00       56.942       62.774       21.794       27.250       20.625       23.766      742.566      425.399      564.803        0.470        0.087       84.753       11.256        0.018      337.185        8.990      859.721
05/21/2014  07:38:00       14.932       37.634       -8.649       22.744       24.465       11.919      517.307      598.552      142.063        0.149        0.063       40.488       14.666        0.131      337.185        8.994      859.735
05/21/2014  07:39:00      -25.184      -12.301        2.100       28.190       16.528       10.228      794.653      273.181      104.616        0.098        0.059       28.027        7.734        0.076      337.272        9.137      859.735
05/21/2014  07:40:00      -56.764       -4.391       -6.775       24.211       14.833       20.013      586.193      220.019      400.510        0.225        0.060       56.933       20.061        0.124      337.242        9.085      859.737
05/21/2014  07:41:00      -53.174        0.317       -9.756       24.295       10.223       13.704      590.233      104.511      187.808        0.190        0.044       53.175        6.642        0.016      337.267        9.127      859.743
05/21/2014  07:42:00      -70.197      -18.541       -5.729       17.957       22.507       13.280      322.457      506.555      176.368        0.315        0.050       72.604       10.763        0.022      337.305        9.191      859.741
05/21/2014  07:43:00      -34.087       -0.355       -4.060       16.101       11.738        8.861      259.249      137.771       78.526        0.083        0.024       34.089        4.007        0.014      337.293        9.171      859.754
05/21/2014  07:44:00      -61.189       -9.570       -1.263       31.172       23.881       14.957      971.689      570.310      223.705        0.280        0.088       61.933        7.539        0.015      337.262        9.117      859.760
05/21/2014  07:45:00      -89.590      -25.203       -9.778       22.608       15.901       13.541      511.114      252.835      183.366        0.485        0.047       93.068        7.934        0.007      337.232        9.066      859.761
05/21/2014  07:46:00       -3.462      -42.975      -22.002       25.630       20.455       21.135      656.874      418.399      446.671        0.193        0.076       43.114        9.794        0.052      337.247        9.091      859.747
05/21/2014  07:47:00      -42.232       10.712      -20.744       16.147       23.432       20.525      260.722      549.037      421.290        0.178        0.062       43.570       12.156        0.078      337.292        9.168      859.745
05/21/2014  07:48:00      -47.775      -15.123       -4.792       33.258       20.389        9.965     1106.077      415.699       99.297        0.208        0.081       50.112        9.751        0.038      337.299        9.179      859.749
05/21/2014  07:49:00     -102.890      -38.052       -1.722       43.443       29.542       17.280     1887.326      872.700      298.600        0.755        0.153      109.701       15.624        0.020      337.325        9.223      859.769
05/21/2014  07:50:00     -101.167      -33.920       -2.762       28.703       40.409       17.713      823.883     1632.872      313.757        0.708        0.139      106.702       16.783        0.025      337.264        9.122      859.797
05/21/2014  07:51:00      -89.634       36.089      -18.775       20.537       29.732       12.467      421.783      884.004      155.416        0.557        0.073       96.626       14.214        0.022      337.199        9.016      859.817
05/21/2014  07:52:00      -73.578       35.054      -11.191       36.714       29.582       21.305     1347.890      875.078      453.912        0.472        0.134       81.501       16.046        0.039      337.245        9.090      859.812
05/21/2014  07:53:00        5.246       38.369        0.929       29.581       35.637       15.555      875.017     1270.013      241.943        0.194        0.119       38.726       11.876        0.094      337.322        9.217      859.793
05/21/2014  07:54:00        3.147       59.202        3.276       42.028       29.489       24.757     1766.343      869.585      612.900        0.339        0.162       59.286       21.202        0.128      337.315        9.206      859.794
05/21/2014  07:55:00      -83.932        4.731       -7.512       43.419       23.700       15.904     1885.200      561.680      252.922        0.491        0.135       84.065       12.931        0.024      337.350        9.264      859.804
05/21/2014  07:56:00     -132.529      -13.633      -18.462       36.478       31.889       22.872     1330.619     1016.921      523.111        1.048        0.144      133.228       20.263        0.023      337.277        9.144      859.811
05/21/2014  07:57:00     -102.144       -9.316       -1.138       38.294       29.921       25.510     1466.460      895.247      650.778        0.677        0.151      102.568       20.907        0.042      337.280        9.147      859.814
05/21/2014  07:58:00      -76.334       14.050       -0.120       29.419       11.263       12.781      865.506      126.863      163.351        0.359        0.058       77.616       11.382        0.022      337.303        9.185      859.808
05/21/2014  07:59:00      -56.390       46.410      -15.291       27.423       49.749       20.940      752.044     2474.977      438.464        0.462        0.183       73.032       23.808        0.106      337.298        9.178      859.804
05/21/2014  08:00:00      -19.717      117.266       -9.950       21.724       36.335       20.040      471.937     1320.261      401.609        0.822        0.110      118.912       17.390        0.021      337.314        9.205      859.804
05/21/2014  08:01:00       -5.605       21.869        8.643       19.219       18.362       15.375      369.385      337.170      236.398        0.076        0.047       22.576       12.553        0.309      337.468        9.461      859.815
05/21/2014  08:02:00       -4.676      -14.750       11.600       10.215       15.608        8.337      104.356      243.622       69.504        0.040        0.021       15.474        5.850        0.143      337.467        9.461      859.811
05/21/2014  08:03:00        8.283       12.484        7.371       15.339       15.041       18.466      235.298      226.219      341.008        0.054        0.040       14.982       14.874        0.986      337.393        9.338      859.813
05/21/2014  08:04:00      -51.994       -3.735      -10.549       32.278       21.261        9.512     1041.900      452.041       90.485        0.221        0.079       52.128        3.764        0.005      337.348        9.261      859.817
05/21/2014  08:05:00      -90.664      -55.190       -6.387       36.052       21.354       18.457     1299.734      455.972      340.669        0.670        0.105      106.141       15.905        0.022      337.309        9.196      859.819
05/21/2014  08:06:00      -79.650      -44.504       -3.093       43.720       31.969       21.488     1911.438     1022.049      461.726        0.586        0.170       91.240       20.979        0.053      337.450        9.431      859.815
05/21/2014  08:07:00      -40.839       -5.268       -0.037       32.842       29.950       19.534     1078.574      897.005      381.560        0.203        0.118       41.177       17.354        0.178      337.531        9.567      859.816
05/21/2014  08:08:00      -28.517      -34.609        5.598       30.293       25.078       17.819      917.671      628.912      317.522        0.195        0.093       44.844       16.541        0.136      337.457        9.443      859.823
05/21/2014  08:09:00      -74.798      -30.569       -0.775       31.729       16.492       15.167     1006.753      271.990      230.029        0.402        0.075       80.803       13.507        0.028      337.412        9.368      859.843
05/21/2014  08:10:00      -57.159      -35.273       -5.675       16.279       15.765       10.621      265.013      248.543      112.808        0.258        0.031       67.166        7.199        0.011      337.416        9.375      859.859
05/21/2014  08:11:00      -72.988       14.202       -3.854       28.986       19.799       13.997      840.193      391.983      195.910        0.349        0.071       74.357       14.564        0.038      337.516        9.542      859.864
05/21/2014  08:12:00      -86.945      -11.950      -16.588       20.159       20.501       12.667      406.405      420.287      160.443        0.448        0.049       87.763        6.729        0.006      337.450        9.432      859.867
05/21/2014  08:13:00      -27.574      -15.118      -11.609       31.466       14.439       10.751      990.102      208.486      115.578        0.122        0.066       31.446        7.328        0.054      337.452        9.436      859.881
05/21/2014  08:14:00        1.378      -15.637        9.171       17.286       19.889       18.233      298.822      395.587      332.430        0.068        0.051       15.698        3.926        0.063      337.603        9.689      859.900
05/21/2014  08:15:00     -116.886      -26.978       -7.828       44.800       22.935       18.694     2007.081      526.024      349.470        0.867        0.144      119.959       19.846        0.027      337.522        9.553      859.911
05/21/2014  08:16:00      -97.300      -54.195       -1.286       63.350       35.063       24.185     4013.276     1229.394      584.921        0.912        0.291      111.375       20.655        0.034      337.593        9.672      859.907
05/21/2014  08:17:00     -137.836      -39.420       -4.498       32.048       47.012       18.196     1027.093     2210.136      331.103        1.207        0.178      143.362       17.336        0.015      337.570        9.634      859.917
05/21/2014  08:18:00      -90.572       -6.899       -0.746       34.882       29.996       22.442     1216.756      899.760      503.641        0.544        0.131       90.835       18.464        0.041      337.611        9.701      859.917
05/21/2014  08:19:00      -96.875       -9.573        6.411       60.188       30.647       24.735     3622.579      939.212      611.811        0.734        0.259       97.347       31.163        0.102      337.665        9.792      859.921
05/21/2014  08:20:00      -82.265      -27.103        4.370       53.228       36.635       25.819     2833.206     1342.106      666.620        0.618        0.242       86.615       22.533        0.068      337.706        9.862      859.931
05/21/2014  08:21:00     -124.316       -5.690       -5.090       60.673       39.275       28.136     3681.235     1542.489      791.616        1.076        0.301      124.446       25.354        0.042      337.587        9.661      859.949
05/21/2014  08:22:00     -167.884      -25.848       -4.971       41.967       38.893       27.240     1761.192     1512.652      742.007        1.645        0.201      169.862       23.965        0.020      337.605        9.691      859.957
05/21/2014  08:23:00      -98.465      -15.681       -7.694       31.089       37.680       23.148      966.554     1419.767      535.818        0.646        0.146       99.706       16.334        0.027      337.601        9.684      859.949
05/21/2014  08:24:00      -98.806      -48.172        2.673       65.703       44.447       26.928     4316.871     1975.516      725.118        0.955        0.351      109.923       27.182        0.061      337.665        9.792      859.942
05/21/2014  08:25:00      -69.522      -61.780        4.038       68.305       53.347       31.990     4665.523     2845.952     1023.348        0.860        0.427       93.006       28.408        0.093      337.692        9.837      859.930
05/21/2014  08:26:00     -126.581      -40.028      -12.162       70.550       58.556       29.349     4977.241     3428.836      861.373        1.352        0.463      132.759       26.386        0.040      337.635        9.743      859.926
05/21/2014  08:27:00     -175.682      -60.490      -27.098       49.323       41.182       26.623     2432.779     1695.949      708.800        2.005        0.242      185.804       14.079        0.006      337.607        9.695      859.924
05/21/2014  08:28:00     -110.120      -43.176       -2.910       51.269       59.918       28.606     2628.545     3590.199      818.299        1.052        0.352      118.282       23.819        0.041      337.684        9.825      859.926
05/21/2014  08:29:00     -149.995      -43.518      -18.586       36.483       36.293       24.127     1331.045     1317.158      582.121        1.398        0.162      156.180       14.385        0.008      337.672        9.804      859.938
05/21/2014  08:30:00      -43.551       22.586      -17.744       63.228       58.169       35.510     3997.795     3383.666     1260.985        0.568        0.432       49.060       37.676        0.590      337.826       10.062      859.936
05/21/2014  08:31:00      -51.878      104.700      -13.850       32.639       51.192       27.496     1065.288     2620.600      756.032        0.914        0.222      116.848       22.963        0.039      337.833       10.074      859.923
05/21/2014  08:32:00      -44.127       87.010       -2.073       45.441       60.004       27.806     2064.890     3600.446      773.190        0.798        0.322       97.560       31.477        0.104      337.884       10.160      859.908
05/21/2014  08:33:00      -64.591       31.146      -12.642       23.399       47.489       24.520      547.527     2255.235      601.252        0.435        0.170       71.708       17.349        0.059      337.876       10.145      859.902
05/21/2014  08:34:00      -22.225       89.945        1.116       28.178       85.340       34.379      794.022     7282.953     1181.914        0.892        0.463       92.651       28.865        0.097      337.921       10.222      859.903
05/21/2014  08:35:00      -71.287       95.691       -4.062       46.314       69.388       32.863     2144.949     4814.634     1079.968        1.115        0.402      119.325       26.884        0.051      337.857       10.115      859.908
05/21/2014  08:36:00     -110.871      -34.570        1.134       58.502       65.681       32.236     3422.537     4313.985     1039.163        1.113        0.439      116.135       21.068        0.033      337.789       10.000      859.882
05/21/2014  08:37:00      -77.638      -41.305        6.886       56.439       66.440       32.673     3185.360     4414.245     1067.519        0.822        0.433       87.942       22.371        0.065      337.778        9.983      859.876
05/21/2014  08:38:00      -26.296      -11.514       16.437       61.669       27.107       21.540     3803.124      734.807      463.958        0.305        0.250       28.706       19.671        0.470      337.911       10.204      859.879
05/21/2014  08:39:00       -0.137        0.719       26.136       44.881       35.430       22.487     2014.304     1255.262      505.684        0.223        0.189        0.732       20.617      793.939      337.951       10.272      859.871
05/21/2014  08:40:00      -69.207       22.770      -16.608       35.131       33.213       30.250     1234.163     1103.130      915.045        0.442        0.163       72.857       24.321        0.111      337.752        9.938      859.885
05/21/2014  08:41:00      -21.749        5.435        6.288       33.065       33.232       20.751     1093.317     1104.385      430.590        0.158        0.131       22.418       19.066        0.723      337.853       10.108      859.883
05/21/2014  08:42:00      -39.143      -34.911       -4.166       47.740       37.308       23.862     2279.099     1391.900      569.418        0.350        0.212       52.450       23.302        0.197      337.823       10.056      859.891
05/21/2014  08:43:00     -104.859        2.479       -2.875       71.655       46.087       34.704     5134.399     2124.047     1204.345        0.973        0.423      104.888       39.891        0.145      337.767        9.963      859.902
05/21/2014  08:44:00      -49.819       14.939       -0.345       33.370       26.786       23.331     1113.573      717.507      544.325        0.254        0.119       52.011       10.648        0.042      337.824       10.059      859.909
05/21/2014  08:45:00      -93.112      132.362      -22.961       66.349       54.714       31.070     4402.227     2993.671      965.323        1.754        0.418      161.832       30.621        0.036      337.711        9.869      859.923
05/21/2014  08:46:00      -86.010       52.337      -13.822       38.100       76.277       29.831     1451.580     5818.166      889.892        0.924        0.408      100.682       33.393        0.110      337.727        9.896      859.933
05/21/2014  08:47:00      -13.165       39.621       -9.793       24.532       38.102       25.335      601.822     1451.781      641.849        0.227        0.135       41.751       20.408        0.239      337.755        9.944      859.958
05/21/2014  08:48:00      -45.378       74.156       -3.507       46.805       38.464       31.807     2190.755     1479.451     1011.701        0.613        0.234       86.938       29.663        0.116      337.741        9.920      859.974
05/21/2014  08:49:00      -56.015       48.340       -3.033       36.868       48.110       23.368     1359.230     2314.586      546.061        0.485        0.211       73.990       26.221        0.126      337.756        9.944      859.991
05/21/2014  08:50:00      -52.985      112.081      -22.865       33.214       34.169       20.798     1103.168     1167.502      432.541        0.930        0.135      123.974       16.430        0.018      337.664        9.791      859.990
05/21/2014  08:51:00      -33.917       52.541      -12.995       22.623       27.083       12.300      511.810      733.466      151.300        0.274        0.070       62.538       11.403        0.033      337.674        9.809      859.995
05/21/2014  08:52:00       -6.448       28.726        6.578       22.876       19.215       19.529      523.289      369.213      381.381        0.109        0.064       29.441       11.368        0.149      337.826       10.062      860.013
05/21/2014  08:53:00      -28.215       46.329       -0.626       17.186       44.750       26.107      295.374     2002.538      681.550        0.296        0.149       54.244       28.167        0.270      337.792       10.005      860.019
05/21/2014  08:54:00       -8.303       84.477      -13.455       21.721       33.445       20.778      471.785     1118.563      431.743        0.470        0.101       84.884       20.364        0.058      337.737        9.914      860.035
05/21/2014  08:55:00       -4.152       49.787      -13.686       18.032       27.448       16.433      325.168      753.370      270.058        0.202        0.067       49.960       15.943        0.102      337.729        9.899      860.049
05/21/2014  08:56:00       -9.694       32.763        6.967       18.509       31.946       17.408      342.600     1020.546      303.027        0.144        0.083       34.167       14.898        0.190      337.843       10.091      860.038
05/21/2014  08:57:00      -39.366       -8.846        0.174       32.758       23.045       13.509     1073.058      531.071      182.482        0.171        0.089       40.347       13.801        0.117      337.855       10.112      860.046
05/21/2014  08:58:00      -26.757       15.465       25.103       36.427       30.211       24.115     1326.914      912.734      581.531        0.220        0.141       30.905       25.550        0.683      337.833       10.075      860.056
05/21/2014  08:59:00      -72.722      -49.620      -18.889       37.895       23.292       20.390     1436.007      542.527      415.762        0.525        0.120       88.037       12.399        0.020      337.710        9.868      860.064
05/21/2014  09:00:00      -70.702      -28.218       -5.963       20.189       19.072       10.744      407.587      363.742      115.437        0.336        0.044       76.125        8.717        0.013      337.657        9.779      860.063
05/21/2014  09:01:00      -28.948      -36.294        7.774       24.004       17.588       18.616      576.213      309.338      346.563        0.172        0.062       46.424       15.012        0.105      337.714        9.875      860.059
05/21/2014  09:02:00      -13.025       -9.508       12.447       22.634       22.350       21.182      512.292      499.541      448.679        0.094        0.073       16.126       17.085        1.123      337.792       10.005      860.062
05/21/2014  09:03:00       -0.742       11.196        0.165       31.581       30.484       19.241      997.357      929.303      370.221        0.121        0.115       11.220       11.384        1.029      337.797       10.015      860.058
05/21/2014  09:04:00       22.656       25.261       15.637       26.807       17.894       19.715      718.625      320.178      388.665        0.141        0.071       33.933       14.832        0.191      337.839       10.084      860.071
05/21/2014  09:05:00       67.025       53.369       -2.087       13.636       16.952       14.494      185.951      287.357      210.087        0.401        0.034       85.678        9.509        0.012      337.672        9.805      860.070
05/21/2014  09:06:00       60.120       60.981        2.702       16.830       14.934       16.621      283.245      223.021      276.252        0.406        0.039       85.633        8.560        0.010      337.704        9.856      860.075
05/21/2014  09:07:00       13.069       58.757       -4.397       18.742       14.712       14.555      351.253      216.449      211.839        0.221        0.039       60.193        8.272        0.019      337.734        9.907      860.091
05/21/2014  09:08:00      -13.328       70.656       -6.329       28.725       30.302       19.066      825.150      918.235      363.525        0.366        0.105       71.902       16.003        0.050      337.816       10.045      860.100
05/21/2014  09:09:00       18.390      127.214      -15.046       27.456       46.176       25.377      753.806     2132.213      643.974        1.014        0.176      128.536       29.365        0.052      337.724        9.893      860.114
05/21/2014  09:10:00      -19.938      146.285      -16.797       24.279       25.018       16.325      589.487      625.907      266.522        1.178        0.074      147.638       11.170        0.006      337.711        9.871      860.122
05/21/2014  09:11:00       -9.681      128.299      -18.534       15.900       16.904       12.644      252.801      285.740      159.867        0.880        0.035      128.663        5.362        0.002      337.722        9.887      860.125
05/21/2014  09:12:00      -31.948       89.603       -8.403       23.475       36.805       18.785      551.064     1354.575      352.858        0.569        0.113       95.128       16.822        0.031      337.953       10.275      860.128
05/21/2014  09:13:00       15.357      141.903      -15.753       24.963       40.729       17.304      623.168     1658.838      299.424        1.160        0.129      142.732       20.771        0.021      337.771        9.971      860.128
05/21/2014  09:14:00        8.841      128.034      -10.489       31.860       45.501       33.823     1015.030     2070.310     1144.024        1.040        0.211      128.339       32.860        0.066      337.785        9.994      860.135
05/21/2014  09:15:00      -27.150      155.528      -19.120       27.900       35.938       24.852      778.413     1291.562      617.645        1.399        0.134      157.880       12.940        0.007      337.795       10.011      860.139
05/21/2014  09:16:00        3.840       56.540       18.215       41.267       47.268       31.425     1702.949     2234.254      987.543        0.423        0.246       56.671       28.898        0.260      337.884       10.160      860.138
05/21/2014  09:17:00       34.331       90.495        0.620       32.225       49.289       28.342     1038.456     2429.377      803.272        0.682        0.214       96.788       28.089        0.084      337.770        9.968      860.154
05/21/2014  09:18:00       66.687       34.946       11.348       23.114       23.021       19.648      534.277      529.958      386.029        0.362        0.073       75.289        9.288        0.015      337.759        9.948      860.160
05/21/2014  09:19:00       20.662       93.193      -10.992       22.900       51.987       23.714      524.431     2702.683      562.339        0.651        0.189       95.456       30.199        0.100      337.675        9.808      860.164
05/21/2014  09:20:00       37.709       61.464       -3.634       41.082       47.075       26.365     1687.701     2216.092      695.090        0.490        0.230       72.109       32.264        0.200      337.643        9.755      860.160
05/21/2014  09:21:00       47.849       46.184        7.065       54.557       33.840       27.275     2976.470     1145.142      743.938        0.467        0.243       66.501       12.063        0.033      337.658        9.780      860.159
05/21/2014  09:22:00        3.720       56.624       -1.634       31.535       38.478       18.057      994.482     1480.549      326.072        0.301        0.140       56.746       19.975        0.124      337.627        9.728      860.172
05/21/2014  09:23:00       37.467       82.387       10.375       44.467       41.267       35.439     1977.326     1702.973     1255.913        0.662        0.247       90.506       32.114        0.126      337.620        9.718      860.174
05/21/2014  09:24:00       19.402       87.312      -11.770       70.230       60.777       45.364     4932.311     3693.789     2057.870        0.941        0.534       89.441       31.444        0.124      337.533        9.571      860.156
05/21/2014  09:25:00       -5.445       84.348       -7.805       31.152       50.652       24.239      970.458     2565.621      587.506        0.566        0.206       84.524       24.764        0.086      337.605        9.693      860.153
05/21/2014  09:26:00      -12.813      115.271      -14.081       38.952       47.097       30.724     1517.250     2218.142      943.959        0.916        0.234      115.981       25.114        0.047      337.553        9.603      860.149
05/21/2014  09:27:00      -26.912       30.283       19.231       26.233       44.597       18.065      688.156     1988.906      326.360        0.251        0.150       40.514       17.668        0.190      337.776        9.979      860.150
05/21/2014  09:28:00       18.592       29.908        6.339       28.037       31.335       17.035      786.097      981.877      290.184        0.167        0.103       35.216       17.592        0.250      337.629        9.732      860.163
05/21/2014  09:29:00       13.686      139.553      -11.474       39.594       31.847       26.561     1567.646     1014.259      705.468        1.154        0.164      140.222       22.525        0.026      337.520        9.548      860.164
05/21/2014  09:30:00       -9.786       92.483       -2.685       23.702       39.004       26.144      561.765     1521.342      683.507        0.571        0.138       92.999       27.548        0.088      337.614        9.706      860.150
05/21/2014  09:31:00      -31.602       81.781      -15.839       35.921       47.740       24.218     1290.331     2279.127      586.504        0.605        0.208       87.675       10.847        0.015      337.669        9.799      860.150
05/21/2014  09:32:00      -79.347       59.748      -20.664       24.157       53.562       19.362      583.552     2868.890      374.903        0.706        0.191       99.327       23.134        0.054      337.602        9.688      860.151
05/21/2014  09:33:00      -63.069       38.586      -15.835       40.466       28.635       16.641     1637.508      819.960      276.909        0.423        0.137       73.936       10.621        0.021      337.605        9.692      860.143
05/21/2014  09:34:00      -38.978       74.332      -10.273       18.651       27.275       21.867      347.845      743.952      478.185        0.436        0.078       83.932       14.617        0.030      337.609        9.696      860.139
05/21/2014  09:35:00        6.797       38.719       -4.083       19.945       25.571       15.003      397.818      653.882      225.087        0.142        0.064       39.311       15.818        0.162      337.659        9.783      860.151
05/21/2014  09:36:00       17.240       29.603       11.700       26.601       34.643       21.004      707.606     1200.135      441.163        0.183        0.117       34.257       22.692        0.439      337.788        9.997      860.171
05/21/2014  09:37:00      -11.988       31.782        1.528       28.065       26.211       22.870      787.648      687.003      523.046        0.158        0.100       33.968       20.683        0.371      337.777        9.980      860.180
05/21/2014  09:38:00       12.529       25.608       12.667       27.859       23.004       15.505      776.128      529.199      240.416        0.126        0.077       28.509       11.282        0.157      337.997       10.343      860.180
05/21/2014  09:39:00       44.293       75.179       12.885       20.097       28.879       28.828      403.884      833.974      831.045        0.492        0.103       87.257       19.011        0.047      337.815       10.047      860.176
05/21/2014  09:40:00        5.883       64.682       -1.954       25.793       32.597       19.549      665.290     1062.556      382.171        0.317        0.106       64.949       18.675        0.083      337.679        9.817      860.175
05/21/2014  09:41:00        6.952       47.060        3.182       16.921       18.903       12.866      286.307      357.324      165.535        0.154        0.040       47.571       10.794        0.051      337.766        9.961      860.162
05/21/2014  09:42:00       -0.515       42.214      -19.204        7.665       18.551       11.913       58.754      344.157      141.912        0.135        0.027       42.217        9.465        0.050      337.687        9.831      860.150
05/21/2014  09:43:00       21.490       20.843       11.832       20.465       24.108       14.968      418.798      581.198      224.044        0.113        0.061       29.937        7.649        0.065      337.833       10.073      860.129
05/21/2014  09:44:00       33.776       62.720       -0.650       33.106       38.192       18.859     1095.983     1458.616      355.650        0.399        0.146       71.236       20.956        0.087      337.772        9.971      860.122
05/21/2014  09:45:00       24.584       51.183        1.039       25.696       32.935       19.807      660.260     1084.697      392.331        0.268        0.107       56.781       16.190        0.081      337.860       10.119      860.117
05/21/2014  09:46:00       37.892       21.519      -16.837       12.867       22.227       11.165      165.554      494.051      124.668        0.148        0.039       43.576        4.652        0.011      337.708        9.864      860.104
05/21/2014  09:47:00       -0.468       13.102        8.891       23.421       26.954       21.980      548.521      726.525      483.099        0.100        0.088       13.110       15.661        1.427      337.928       10.234      860.086
05/21/2014  09:48:00       21.389      -71.429       21.778       35.719       68.052       31.518     1275.850     4631.057      993.366        0.647        0.345       74.563       33.102        0.197      337.921       10.221      860.066
05/21/2014  09:49:00       42.820      -93.805       -3.789       34.665       49.251       25.481     1201.634     2425.632      649.272        0.746        0.214      103.116       20.458        0.039      337.895       10.178      860.057
05/21/2014  09:50:00       39.938       18.249       24.066       34.359       48.250       24.859     1180.555     2328.076      617.963        0.332        0.206       43.910       18.716        0.182      337.948       10.267      860.047
05/21/2014  09:51:00       66.251      -46.402       -2.752       38.952       42.907       26.937     1517.256     1840.971      725.592        0.532        0.204       80.885       30.295        0.140      337.933       10.242      860.042
05/21/2014  09:52:00       46.797     -112.964      -17.256       38.749       37.089       31.163     1501.523     1375.599      971.127        0.955        0.192      122.274       24.509        0.040      337.986       10.332      860.036
05/21/2014  09:53:00       68.596     -140.837       -4.978       51.293       37.339       28.280     2630.938     1394.178      799.782        1.469        0.241      156.654       24.534        0.025      337.921       10.221      860.035
05/21/2014  09:54:00       40.797      -98.376       19.517       41.414       36.644       35.405     1715.101     1342.747     1253.522        0.802        0.216      106.500       18.114        0.029      337.918       10.218      860.024
05/21/2014  09:55:00      -27.377      -76.470       20.694       41.413       48.443       30.855     1715.035     2346.726      952.008        0.602        0.251       81.223       21.501        0.070      338.087       10.500      860.024
05/21/2014  09:56:00       17.164      -56.308       15.914       55.731       57.648       27.986     3105.945     3323.249      783.209        0.546        0.361       58.866       29.483        0.251      338.245       10.766      860.037
05/21/2014  09:57:00       90.973     -126.234      -13.907       39.267       59.269       31.482     1541.869     3512.755      991.128        1.522        0.302      155.599       19.804        0.016      338.051       10.441      860.043
05/21/2014  09:58:00       31.224      -27.042       32.031       42.997       62.779       45.906     1848.771     3941.196     2107.329        0.531        0.395       41.307       37.458        0.822      338.306       10.870      860.049
05/21/2014  09:59:00       63.238      -43.324       24.330       52.812       65.620       45.468     2789.056     4306.048     2067.368        0.781        0.458       76.655       42.146        0.302      338.094       10.512      860.070
05/21/2014  10:00:00       48.829      -52.817       -7.215       48.609       40.350       25.943     2362.812     1628.092      673.017        0.494        0.233       71.930       29.262        0.165      338.050       10.437      860.079
05/21/2014  10:01:00       59.220       76.006       70.353       53.169       50.153       44.611     2826.989     2515.335     1990.183        1.078        0.367       96.353       25.693        0.071      338.186       10.666      860.091
05/21/2014  10:02:00       47.253       77.218       71.853       53.938       50.523       40.326     2909.267     2552.595     1626.180        1.022        0.354       90.529       29.148        0.104      338.112       10.543      860.095
05/21/2014  10:03:00       -2.899      -12.292       29.732       43.485       62.830       34.359     1890.909     3947.662     1180.539        0.403        0.351       12.629       24.291        3.699      338.335       10.917      860.092
05/21/2014  10:04:00       30.593      -37.114       21.610       43.318       64.542       37.027     1876.425     4165.673     1370.975        0.510        0.371       48.098       36.387        0.572      338.342       10.929      860.082
05/21/2014  10:05:00       79.622       54.638       25.627       54.743       54.809       29.922     2996.812     3003.996      895.342        0.844        0.345       96.566       20.368        0.044      338.220       10.725      860.088
05/21/2014  10:06:00       76.356       62.275       23.338       40.405       32.956       42.031     1632.570     1086.103     1766.643        0.737        0.224       98.532       32.294        0.107      338.120       10.558      860.075
05/21/2014  10:07:00       53.339      -68.307       -2.521       49.836       59.772       39.818     2483.671     3572.752     1585.481        0.758        0.382       86.665       27.103        0.098      338.271       10.811      860.075
05/21/2014  10:08:00       73.570      -98.190      -18.365       40.112       70.226       37.595     1609.007     4931.630     1413.362        1.167        0.398      122.694       38.776        0.100      338.100       10.522      860.088
05/21/2014  10:09:00       32.032      -21.774       10.474       16.866       21.262       26.771      284.472      452.063      716.670        0.153        0.073       38.732       17.721        0.209      338.186       10.666      860.116
05/21/2014  10:10:00       33.770       -6.872       19.087       25.211       29.440       20.418      635.606      866.695      416.888        0.174        0.096       34.462       20.184        0.343      338.259       10.789      860.129
05/21/2014  10:11:00       28.243       14.661       28.716       27.047       34.051       26.454      731.564     1159.465      699.824        0.221        0.130       31.822       17.283        0.295      338.365       10.967      860.138
05/21/2014  10:12:00      115.417       72.061       26.460       53.918       31.498       31.708     2907.168      992.149     1005.425        1.206        0.245      136.066       24.319        0.032      338.143       10.594      860.147
05/21/2014  10:13:00      112.958       68.076       -3.843       24.322       26.641       19.842      591.572      709.740      393.702        0.955        0.085      131.886       13.437        0.010      337.926       10.230      860.153
05/21/2014  10:14:00       20.029       11.762       22.303       30.349       40.220       18.868      921.063     1617.677      355.983        0.197        0.145       23.227       16.587        0.510      338.354       10.948      860.158
05/21/2014  10:15:00       42.187       24.609       30.507       20.899       39.522       18.129      436.754     1561.993      328.651        0.282        0.116       48.840       11.918        0.060      338.294       10.849      860.153
05/21/2014  10:16:00       14.412       54.265       47.717       33.301       26.176       28.047     1108.976      685.196      786.639        0.400        0.129       56.146       19.357        0.119      338.413       11.047      860.152
05/21/2014  10:17:00       59.373       64.015       30.449       39.118       27.386       35.156     1530.240      749.975     1235.946        0.603        0.176       87.310       30.791        0.124      338.251       10.776      860.159
05/21/2014  10:18:00       34.161       56.481        1.026       26.933       23.803       24.323      725.409      566.599      591.609        0.312        0.094       66.008       11.755        0.032      338.379       10.989      860.151
05/21/2014  10:19:00       14.704       37.516        1.121       24.357       27.109       20.271      593.268      734.918      410.896        0.168        0.087       40.295       16.170        0.161      338.376       10.984      860.148
05/21/2014  10:20:00       13.032       74.107        3.398       23.150       39.256       24.167      535.901     1541.030      584.031        0.417        0.133       75.244       25.330        0.113      338.478       11.158      860.154
05/21/2014  10:21:00       12.000       77.108       -3.850       26.200       31.819       20.128      686.427     1012.419      405.119        0.410        0.105       78.037       16.117        0.043      338.341       10.927      860.160
05/21/2014  10:22:00       17.638       39.486        5.338       21.153       31.768       24.952      447.441     1009.219      622.612        0.199        0.104       43.246       19.219        0.197      338.523       11.232      860.163
05/21/2014  10:23:00       -4.854       -0.513       19.263       12.852       10.591       12.159      165.162      112.161      147.853        0.041        0.021        4.881        7.869        2.599      338.915       11.890      860.166
05/21/2014  10:24:00      -21.167        0.783       10.668       25.857       19.038       18.641      668.581      362.452      347.499        0.097        0.069       21.182       16.068        0.575      338.773       11.653      860.155
05/21/2014  10:25:00      -80.859      -26.067       10.380       42.607       41.633       22.919     1815.397     1733.300      525.266        0.570        0.204       84.957       20.522        0.058      338.529       11.242      860.150
05/21/2014  10:26:00      -20.188      -51.705        1.117       21.516       45.094       22.754      462.929     2033.509      517.735        0.305        0.151       55.507       23.135        0.174      338.516       11.219      860.128
05/21/2014  10:27:00      -33.349      -66.723       -1.418       24.392       26.233       19.739      594.976      688.168      389.621        0.362        0.084       74.593        8.802        0.014      338.367       10.970      860.115
05/21/2014  10:28:00      -63.765      -17.730        0.214       25.067       23.023       19.077      628.349      530.076      363.913        0.295        0.076       66.184       15.290        0.053      338.550       11.277      860.100
05/21/2014  10:29:00      -29.333      -17.490       -9.552       23.830       20.284       14.228      567.849      411.453      202.444        0.122        0.059       34.152       12.057        0.125      338.515       11.218      860.108
05/21/2014  10:30:00       -9.076      -13.853        5.591       26.898       29.769       30.685      723.522      886.207      941.589        0.143        0.128       16.561       22.923        1.916      338.835       11.757      860.117
05/21/2014  10:31:00       -6.218       -9.287       21.440       20.636       40.086       27.929      425.846     1606.889      780.002        0.170        0.141       11.177       20.629        3.407      338.951       11.952      860.127
05/21/2014  10:32:00      -16.017      -59.797       14.585       45.595       52.242       32.714     2078.938     2729.204     1070.176        0.496        0.294       61.905       20.748        0.112      338.849       11.779      860.137
05/21/2014  10:33:00       39.708      -53.848       27.465       48.591       50.241       42.484     2361.112     2524.173     1804.903        0.596        0.335       66.906       30.809        0.212      338.600       11.362      860.138
05/21/2014  10:34:00       47.475       85.434        2.199       41.911       32.335       32.484     1756.546     1045.530     1055.224        0.671        0.193       97.739       27.629        0.080      338.418       11.056      860.151
05/21/2014  10:35:00        2.699      -43.827       -8.203       32.695       45.760       27.946     1068.978     2093.981      780.963        0.297        0.197       43.910       23.380        0.284      338.489       11.175      860.170
05/21/2014  10:36:00      -23.924      -29.148        3.831       31.451       37.229       25.985      989.194     1385.999      675.221        0.224        0.153       37.709       26.106        0.479      338.658       11.460      860.178
05/21/2014  10:37:00      -37.349        8.856       -2.639       33.399       19.119       16.224     1115.510      365.529      263.211        0.161        0.087       38.384        9.461        0.061      338.698       11.526      860.181
05/21/2014  10:38:00       -8.801       11.757        2.729       18.647       17.802       21.427      347.697      316.927      459.121        0.067        0.056       14.686       11.229        0.585      339.059       12.133      860.196
05/21/2014  10:39:00      -15.118       10.761       -4.228       20.552       34.490       17.756      422.402     1189.586      315.263        0.114        0.096       18.557       16.600        0.800      338.903       11.870      860.199
05/21/2014  10:40:00      -38.981       59.640      -13.770       40.432       30.471       25.724     1634.727      928.478      661.704        0.424        0.161       71.249       23.061        0.105      338.595       11.353      860.212
05/21/2014  10:41:00      -37.703       -7.989        1.787       33.106       32.856       25.411     1096.013     1079.508      645.720        0.215        0.141       38.541       20.732        0.289      338.681       11.498      860.222
05/21/2014  10:42:00      -38.651        1.977        2.646       42.753       38.066       21.753     1827.856     1449.010      473.190        0.263        0.188       38.702       16.986        0.193      338.804       11.704      860.225
05/21/2014  10:43:00      -41.574        4.986        0.996       24.661       18.751       21.873      608.184      351.585      478.418        0.160        0.072       41.872       17.885        0.182      338.884       11.838      860.231
05/21/2014  10:44:00      -61.533       27.110        3.465       20.689       13.691       13.756      428.034      187.434      189.235        0.267        0.040       67.240       11.783        0.031      338.514       11.218      860.230
05/21/2014  10:45:00      -41.938       13.909       16.839       18.632       13.939       14.502      347.152      194.288      210.313        0.149        0.038       44.185        5.345        0.015      338.652       11.448      860.228
05/21/2014  10:46:00      -11.594       30.634       11.444       15.472       22.725       22.682      239.387      516.426      514.454        0.124        0.064       32.755       11.206        0.117      339.019       12.067      860.223
05/21/2014  10:47:00      -19.234      -39.961       12.408       23.841       41.981       21.079      568.409     1762.410      444.323        0.245        0.139       44.348       15.512        0.122      339.011       12.053      860.220
05/21/2014  10:48:00      -30.326      -16.204       15.660       32.469       33.457       20.975     1054.256     1119.361      439.971        0.202        0.131       34.383       15.478        0.203      339.130       12.253      860.200
05/21/2014  10:49:00      -14.962      -14.988       25.075       13.141       26.969       23.772      172.685      727.348      565.091        0.127        0.073       21.178       20.196        0.909      339.589       13.027      860.186
05/21/2014  10:50:00       -0.261      -52.306       -6.032       34.609       33.156       29.857     1197.751     1099.344      891.448        0.298        0.159       52.306       23.587        0.203      339.307       12.551      860.169
05/21/2014  10:51:00       42.265     -101.476      -18.946       35.297       32.741       24.120     1245.859     1071.956      581.756        0.767        0.145      109.926       12.802        0.014      338.879       11.831      860.160
05/21/2014  10:52:00      -27.952      -89.065       12.003       40.375       48.226       37.120     1630.172     2325.711     1377.901        0.709        0.267       93.348       29.591        0.100      339.264       12.479      860.159
05/21/2014  10:53:00       -5.914        4.169       34.005       50.449       57.614       34.442     2545.141     3319.329     1186.272        0.413        0.353        7.236       36.724       25.756      339.512       12.896      860.180
05/21/2014  10:54:00      -36.697      -42.781      -15.351       59.466       51.945       25.583     3536.250     2698.278      654.476        0.515        0.344       56.364       19.675        0.122      339.081       12.169      860.186
05/21/2014  10:55:00       41.632      -66.758       18.958       50.916       79.189       45.943     2592.482     6270.966     2110.757        0.876        0.549       78.676       56.623        0.518      339.111       12.221      860.202
05/21/2014  10:56:00       12.216       12.454       35.535       37.475       25.891       34.967     1404.370      670.340     1222.685        0.243        0.165       17.445       23.982        1.890      339.185       12.346      860.213
05/21/2014  10:57:00       17.354        1.225       -3.550       17.627       29.132       17.744      310.720      848.686      314.842        0.089        0.074       17.397        9.593        0.304      339.108       12.215      860.198
05/21/2014  10:58:00        8.007      -33.635       14.689       33.586       40.176       33.614     1128.023     1614.077     1129.911        0.264        0.194       34.575       20.138        0.339      339.177       12.331      860.178
05/21/2014  10:59:00       32.441       53.456       54.220       33.020       43.496       28.385     1090.304     1891.914      805.682        0.532        0.189       62.530       24.294        0.151      339.139       12.267      860.172
05/21/2014  11:00:00       29.497        0.023       27.834       47.992       33.897       35.520     2303.247     1149.010     1261.650        0.318        0.236       29.497       22.747        0.595      339.310       12.556      860.168
05/21/2014  11:01:00       72.551      -47.859        9.855       54.457       63.749       44.586     2965.538     4063.960     1987.941        0.833        0.451       86.915       44.250        0.259      339.239       12.438      860.168
05/21/2014  11:02:00       29.062      -56.484       33.747       49.513       61.647       43.238     2451.505     3800.304     1869.488        0.665        0.406       63.522       33.354        0.276      339.127       12.247      860.159
05/21/2014  11:03:00      -15.047       12.533       59.913       31.335       53.299       32.084      981.888     2840.798     1029.397        0.441        0.243       19.583       33.554        2.936      339.515       12.902      860.148
05/21/2014  11:04:00       -9.704      -58.835       15.302       54.570       82.470       46.932     2977.909     6801.303     2202.581        0.788        0.599       59.630       25.274        0.180      339.378       12.671      860.136
05/21/2014  11:05:00       26.605      -15.924       33.390       48.564       56.367       53.844     2358.475     3177.194     2899.192        0.525        0.422       31.007       33.496        1.167      339.493       12.864      860.123
05/21/2014  11:06:00       60.491        2.426       36.059       47.885       55.148       31.966     2292.983     3041.330     1021.806        0.566        0.318       60.540       36.080        0.355      339.146       12.281      860.118
05/21/2014  11:07:00       29.315      -14.642       35.606       32.596       55.521       31.150     1062.516     3082.630      970.347        0.373        0.256       32.769       28.779        0.771      339.516       12.902      860.099
05/21/2014  11:08:00       -1.207      -33.233       12.389       55.575       53.972       28.069     3088.610     2913.027      787.867        0.402        0.339       33.255       34.972        1.106      339.241       12.439      860.096
05/21/2014  11:09:00       -2.692      -11.518        8.910       15.128       17.612       19.973      228.846      310.180      398.902        0.058        0.047       11.829       10.178        0.740      339.798       13.379      860.094
05/21/2014  11:10:00      -36.838      -20.234        1.862       32.922       33.892       20.742     1083.886     1148.669      430.234        0.222        0.133       42.029       19.190        0.208      339.709       13.229      860.082
05/21/2014  11:11:00      -63.004      -32.534        7.274       54.204       44.921       24.110     2938.078     2017.887      581.298        0.531        0.277       70.908       19.718        0.077      339.494       12.865      860.087
05/21/2014  11:12:00       -8.382      -37.376       31.175       55.626       43.202       31.155     3094.292     1866.434      970.654        0.418        0.297       38.305       34.124        0.794      339.760       13.314      860.077
05/21/2014  11:13:00      -76.039      -49.457       13.888       68.707       37.408       30.835     4720.591     1399.346      950.785        0.774        0.354       90.708       24.637        0.074      339.708       13.226      860.084
05/21/2014  11:14:00      -74.134      -90.515        7.888       69.625       76.189       36.526     4847.658     5804.740     1334.128        1.287        0.599      117.000       41.423        0.125      339.634       13.102      860.086
05/21/2014  11:15:00     -157.996     -139.883        1.018       91.077       64.483       44.113     8295.020     4158.065     1945.955        2.946        0.720      211.021       47.849        0.051      339.306       12.547      860.087
05/21/2014  11:16:00     -134.029      -39.522        5.856       89.111       67.457       38.642     7940.858     4550.504     1493.170        1.677        0.699      139.735       29.601        0.045      339.412       12.728      860.090
05/21/2014  11:17:00      -90.002      -54.356        8.204       56.075       39.768       21.307     3144.357     1581.464      453.986        0.815        0.259      105.142       26.260        0.062      339.250       12.456      860.093
05/21/2014  11:18:00      -68.456      -64.378       -6.883       35.596       42.011       24.318     1267.070     1764.901      591.376        0.625        0.181       93.972       16.118        0.029      339.073       12.157      860.090
05/21/2014  11:19:00      -10.915      -91.290       -1.717       31.148       41.515       26.448      970.200     1723.516      699.500        0.592        0.170       91.940       13.999        0.023      339.266       12.481      860.087
05/21/2014  11:20:00      -69.727      -38.386       -2.202       69.623       28.709       22.906     4847.423      824.184      524.677        0.627        0.310       79.595       25.061        0.099      339.420       12.742      860.081
05/21/2014  11:21:00     -186.819       -0.021      -14.540       44.747       41.351       26.067     2002.323     1709.912      679.496        1.975        0.220      186.819       26.507        0.020      339.160       12.302      860.090
05/21/2014  11:22:00     -139.082       36.884      -11.644       60.107       25.105       18.987     3612.864      630.264      360.498        1.272        0.230      143.889       24.381        0.029      339.147       12.280      860.083
05/21/2014  11:23:00     -195.034        2.728      -23.115       53.980       30.461       19.842     2913.856      927.843      393.718        2.141        0.212      195.053       22.290        0.013      339.081       12.168      860.076
05/21/2014  11:24:00     -166.384        7.297      -11.351       60.733       30.123       26.077     3688.444      907.378      679.987        1.657        0.264      166.544       24.769        0.022      339.318       12.569      860.054
05/21/2014  11:25:00     -139.586      -71.950       -1.779       77.650       42.939       24.564     6029.550     1843.797      603.394        1.657        0.424      157.038       26.067        0.028      339.333       12.594      860.041
05/21/2014  11:26:00     -157.352      -55.333        1.820       54.040       63.767       35.101     2920.279     4066.289     1232.076        1.802        0.411      166.797       29.815        0.032      339.472       12.827      860.041
05/21/2014  11:27:00      -81.890      -84.514       13.630       61.033       81.622       38.570     3725.066     6662.224     1487.660        1.295        0.594      117.680       37.610        0.102      339.621       13.079      860.034
05/21/2014  11:28:00      -73.676     -119.773        7.089       65.780       74.089       32.429     4326.977     5489.218     1051.634        1.534        0.543      140.618       16.320        0.013      339.455       12.799      860.026
05/21/2014  11:29:00     -110.634      -80.106       -8.459       41.286       88.067       23.199     1704.538     7755.826      538.215        1.436        0.500      136.591       22.319        0.027      339.336       12.600      860.021
05/21/2014  11:30:00      -73.593      -34.927       -1.717       34.813       47.214       24.015     1211.950     2229.176      576.702        0.533        0.201       81.461       23.607        0.084      339.593       13.033      860.006
05/21/2014  11:31:00      -49.593      -54.226        4.901       40.511       45.828       31.596     1641.125     2100.181      998.335        0.508        0.237       73.485       19.221        0.068      339.662       13.150      860.009
05/21/2014  11:32:00       39.330      -21.059       49.642       43.538       62.543       54.703     1895.521     3911.579     2992.403        0.663        0.440       44.613       44.131        0.979      339.888       13.531      860.001
05/21/2014  11:33:00       55.020      -51.623       15.000       48.183       53.616       39.782     2321.580     2874.711     1582.593        0.635        0.339       75.446       26.902        0.127      339.518       12.906      859.994
05/21/2014  11:34:00       72.402     -103.015       -6.698       42.864       48.166       43.212     1837.364     2319.921     1867.247        1.096        0.301      125.914       36.476        0.084      339.592       13.030      859.989
05/21/2014  11:35:00      106.036     -115.559      -27.777       56.289       66.080       40.709     3168.457     4366.558     1657.260        1.728        0.460      156.836       34.969        0.050      339.599       13.041      859.981
05/21/2014  11:36:00       49.006      -23.494       35.861       65.128       74.562       54.997     4241.682     5559.467     3024.635        0.853        0.641       54.346       54.721        1.014      340.159       13.988      859.957
05/21/2014  11:37:00       13.551       24.272       61.973       41.572       56.806       45.199     1728.205     3226.910     2042.937        0.580        0.350       27.799       38.988        1.967      340.315       14.252      859.941
05/21/2014  11:38:00       46.979      -86.528       19.807       59.028       73.612       51.502     3484.284     5418.755     2652.414        1.082        0.578       98.459       52.631        0.286      340.238       14.121      859.944
05/21/2014  11:39:00      -22.469      -64.663       -0.590       43.912       45.356       32.623     1928.226     2057.157     1064.247        0.487        0.252       68.456       11.875        0.030      340.262       14.161      859.953
05/21/2014  11:40:00      -72.667       -3.627       -8.583       42.502       24.216       20.288     1806.455      586.415      411.613        0.409        0.140       72.758       13.447        0.034      340.271       14.177      859.953
05/21/2014  11:41:00      -22.499      -37.465        5.699       48.334       34.820       24.108     2336.209     1212.438      581.211        0.304        0.206       43.701       25.503        0.341      340.722       14.940      859.956
05/21/2014  11:42:00      -36.646      -16.066       15.027       57.092       27.432       25.539     3259.551      752.496      652.253        0.324        0.233       40.013       22.111        0.305      340.770       15.022      859.959
05/21/2014  11:43:00      -93.134      -64.425        0.314       59.104       45.642       31.473     3493.228     2083.212      990.566        0.969        0.328      113.246       36.384        0.103      340.062       13.825      859.968
05/21/2014  11:44:00      -51.116      -65.365        5.002       51.398       36.564       25.317     2641.745     1336.912      640.933        0.576        0.231       82.978       25.083        0.091      339.938       13.616      859.972
05/21/2014  11:45:00      -10.235      -11.046       32.084       58.971       49.154       40.787     3477.635     2416.081     1663.582        0.441        0.378       15.059       38.844        6.654      340.646       14.812      859.964
05/21/2014  11:46:00       -7.273       59.537       22.996       47.544       52.822       52.724     2260.409     2790.203     2779.803        0.598        0.392       59.980       32.256        0.289      340.805       15.078      859.964
05/21/2014  11:47:00      -33.832       -7.630       24.373       75.597       70.373       40.142     5714.840     4952.395     1611.372        0.704        0.614       34.682       45.484        1.720      340.522       14.601      859.969
05/21/2014  11:48:00     -168.087        9.795      -11.681       62.481       40.465       38.363     3903.929     1637.450     1471.748        1.775        0.351      168.372       33.662        0.040      339.878       13.511      859.975
05/21/2014  11:49:00      -97.888        3.679      -10.864       67.075       26.274       24.580     4499.001      690.324      604.180        0.775        0.290       97.957       17.534        0.032      339.681       13.182      859.979
05/21/2014  11:50:00      -74.903      -14.381        0.809       38.930       43.273       26.477     1515.538     1872.583      701.057        0.495        0.204       76.271       23.584        0.096      339.837       13.443      859.986
05/21/2014  11:51:00      -52.523      -94.197        1.775       52.050       42.564       28.049     2709.156     1811.685      786.758        0.847        0.265      107.850       29.585        0.075      339.785       13.356      859.995
05/21/2014  11:52:00     -119.354      -74.416        2.579       82.980       37.991       31.373     6885.611     1443.331      984.276        1.455        0.466      140.653       26.612        0.036      339.899       13.548      859.986
05/21/2014  11:53:00      -96.259      -61.771       -1.578       56.900       41.331       23.984     3237.638     1708.259      575.238        0.930        0.276      114.375       28.710        0.063      339.812       13.401      859.985
05/21/2014  11:54:00      -99.375      -40.492        1.439       31.691       36.959       23.115     1004.325     1365.940      534.289        0.721        0.145      107.308       14.969        0.019      339.751       13.301      859.977
05/21/2014  11:55:00      -17.197       41.906       -3.335       38.989       24.158       24.324     1520.157      583.612      591.681        0.238        0.135       45.297       11.837        0.068      339.813       13.404      859.965
05/21/2014  11:56:00        5.152       36.544       -5.246       18.943       23.319       16.895      358.838      543.780      285.440        0.129        0.059       36.906        9.804        0.071      339.796       13.376      859.957
05/21/2014  11:57:00     -133.562       48.127      -10.665       72.656       44.245       29.373     5278.880     1957.629      862.745        1.418        0.405      141.968       22.611        0.025      339.895       13.540      859.956
05/21/2014  11:58:00     -123.253        0.193       -8.318       65.033       56.376       25.960     4229.241     3178.252      673.947        1.167        0.404      123.253       14.741        0.014      339.825       13.423      859.959
05/21/2014  11:59:00     -104.757      -17.045       -8.662       57.105       54.923       24.737     3260.984     3016.562      611.944        0.911        0.344      106.135       24.066        0.051      339.829       13.430      859.953
05/21/2014  12:00:00     -137.002      -82.593      -15.082       62.187       28.676       24.903     3867.203      822.303      620.143        1.556        0.265      159.972       11.339        0.005      339.728       13.260      859.945
05/21/2014  12:01:00     -114.557      -92.482       -6.192       60.401       51.902       29.591     3648.264     2693.820      875.609        1.446        0.361      147.228       32.151        0.048      339.917       13.579      859.934
05/21/2014  12:02:00     -160.511      -34.912      -19.908       51.474       33.141       25.747     2649.596     1098.297      662.922        1.589        0.221      164.264       24.003        0.021      339.826       13.424      859.938
05/21/2014  12:03:00      -57.805        2.543      -16.503       66.712       36.236       20.119     4450.460     1313.038      404.774        0.489        0.308       57.861       30.434        0.277      339.973       13.673      859.920
05/21/2014  12:04:00     -184.484       15.276       -0.914      112.470       84.093       42.158    12649.600     7071.616     1777.294        2.788        1.075      185.115       42.728        0.053      340.257       14.151      859.903
05/21/2014  12:05:00     -218.251      -15.190      -21.612      114.022       48.103       35.885    13001.054     2313.929     1287.709        3.246        0.830      218.779       44.294        0.041      339.965       13.658      859.917
05/21/2014  12:06:00     -136.266       67.897        0.619       70.318       33.106       35.671     4944.622     1095.975     1272.433        1.524        0.366      152.245       33.148        0.047      340.311       14.242      859.929
05/21/2014  12:07:00     -103.772       24.226       -1.604       33.399       52.669       29.365     1115.524     2773.979      862.323        0.805        0.238      106.562       17.265        0.026      340.215       14.082      859.936
05/21/2014  12:08:00      -96.708       53.352      -22.906       43.394       66.010       25.364     1883.038     4357.357      643.321        0.980        0.344      110.449       15.379        0.019      339.992       13.705      859.940
05/21/2014  12:09:00      -32.203       88.989       -0.376       29.426       39.381       32.045      865.912     1550.863     1026.899        0.620        0.172       94.636       25.651        0.073      340.360       14.327      859.945
05/21/2014  12:10:00      -14.511       83.557       -4.217       52.910       52.980       35.539     2799.465     2806.898     1263.041        0.704        0.343       84.807       28.713        0.115      340.417       14.425      859.926
05/21/2014  12:11:00       22.046       61.431       -4.409       39.185       41.873       28.516     1535.491     1753.314      813.159        0.419        0.205       65.267       25.752        0.156      340.200       14.057      859.921
05/21/2014  12:12:00       18.054       11.996        1.180       47.123       23.850       24.059     2220.581      568.842      578.825        0.192        0.168       21.676       11.494        0.281      340.249       14.139      859.916
05/21/2014  12:13:00       21.177        6.768       27.272       21.651       14.647       17.910      468.755      214.529      320.768        0.112        0.050       22.232       12.249        0.304      340.917       15.268      859.903
05/21/2014  12:14:00       20.131       32.764      -10.500       24.723       32.538       28.957      611.228     1058.731      838.483        0.205        0.125       38.454       22.567        0.344      340.277       14.188      859.892
05/21/2014  12:15:00      -47.816      -41.481       -2.657       47.353       24.685       20.341     2242.311      609.334      413.764        0.364        0.163       63.302        9.330        0.022      340.286       14.201      859.884
05/21/2014  12:16:00      -42.893       25.131        1.717       36.818       30.508       29.003     1355.541      930.768      841.182        0.280        0.156       49.713       17.960        0.131      340.448       14.476      859.870
05/21/2014  12:17:00       -4.850        9.527        5.120       26.227       29.819       30.055      687.872      889.180      903.323        0.131        0.124       10.691       18.628        3.036      340.808       15.084      859.871
05/21/2014  12:18:00      -69.466      -46.916        7.181       51.297       41.354       26.549     2631.353     1710.172      704.844        0.606        0.252       83.825       30.580        0.133      340.703       14.908      859.865
05/21/2014  12:19:00      -83.693      -46.690        7.475       45.064       28.417       30.114     2030.776      807.508      906.833        0.649        0.187       95.836       29.694        0.096      340.517       14.592      859.864
05/21/2014  12:20:00     -101.406      -19.486       -6.072       31.804       28.570       18.754     1011.491      816.246      351.729        0.644        0.109      103.261       15.299        0.022      340.079       13.852      859.864
05/21/2014  12:21:00      -74.244      -23.611       -4.787       27.713       26.902       25.204      768.026      723.697      635.256        0.411        0.106       77.908       14.243        0.033      340.424       14.435      859.859
05/21/2014  12:22:00      -60.723        8.218        0.281       22.731       21.377       18.493      516.718      456.974      341.997        0.253        0.066       61.276       15.573        0.065      340.568       14.678      859.858
05/21/2014  12:23:00       10.588       -7.822       38.016       61.090       76.007       45.477     3732.039     5777.049     2068.122        0.660        0.579       13.164       43.205       10.772      340.905       15.248      859.861
05/21/2014  12:24:00       31.882      -30.005       28.869       40.821       58.253       36.532     1666.353     3393.418     1334.558        0.457        0.320       43.780       35.143        0.644      340.996       15.403      859.864
05/21/2014  12:25:00       15.957      -35.256       11.020       28.380       43.340       33.079      805.435     1878.344     1094.238        0.270        0.189       38.699       25.751        0.443      340.714       14.924      859.863
05/21/2014  12:26:00       19.346        3.735       30.299       22.711       17.541       20.365      515.769      307.680      414.714        0.127        0.062       19.704        9.606        0.238      341.209       15.764      859.849
05/21/2014  12:27:00        9.231        8.773       32.568       44.435       47.504       30.271     1974.494     2256.650      916.351        0.318        0.257       12.735       22.353        3.081      341.502       16.259      859.835
05/21/2014  12:28:00       40.293       46.261        5.973       51.240       38.623       39.568     2625.579     1491.728     1565.607        0.474        0.284       61.348       17.158        0.078      340.709       14.916      859.832
05/21/2014  12:29:00       33.242       71.252        1.045       51.833       40.964       34.921     2686.622     1678.039     1219.447        0.588        0.279       78.625       19.323        0.060      340.804       15.077      859.825
05/21/2014  12:30:00       21.264       38.431        2.417       50.034       40.033       26.405     2503.356     1602.620      697.223        0.337        0.240       43.922       19.839        0.204      341.189       15.730      859.815
05/21/2014  12:31:00       74.218       50.491       15.841       48.169       27.857       41.760     2320.296      775.991     1743.858        0.657        0.242       89.764       24.405        0.074      340.912       15.261      859.797
05/21/2014  12:32:00        9.498       29.553       29.879       35.674       33.409       36.550     1272.661     1116.194     1335.902        0.279        0.186       31.042       20.890        0.453      341.462       16.193      859.772
05/21/2014  12:33:00      -13.285      -59.556        1.918       34.043       54.259       27.679     1158.949     2944.049      766.113        0.430        0.243       61.020       30.190        0.245      341.460       16.188      859.731
05/21/2014  12:34:00      -13.258      -24.588       28.658       34.362       28.723       20.308     1180.735      825.029      412.406        0.201        0.121       27.935        8.011        0.082      341.885       16.910      859.705
05/21/2014  12:35:00      -20.327      -14.848        2.674       47.905       34.771       23.236     2294.869     1209.036      539.895        0.234        0.202       25.172       17.192        0.466      341.422       16.124      859.660
05/21/2014  12:36:00      -50.899      -35.031        1.577       65.613       40.860       33.128     4305.049     1669.521     1097.450        0.544        0.354       61.789       32.216        0.272      340.995       15.401      859.630
05/21/2014  12:37:00       -1.492      -60.091        8.846       37.757       58.026       37.313     1425.570     3367.053     1392.287        0.494        0.309       60.110       42.254        0.494      341.222       15.786      859.606
05/21/2014  12:38:00        9.820      -22.198       11.244       29.388       36.725       31.299      863.637     1348.733      979.647        0.195        0.160       24.273       24.168        0.991      341.366       16.031      859.584
05/21/2014  12:39:00       83.054     -129.602      -21.935       57.189       75.391       42.262     3270.601     5683.754     1786.098        1.746        0.537      153.930       40.485        0.069      340.940       15.307      859.568
05/21/2014  12:40:00      113.222     -176.953      -27.327       83.959      138.291       57.733     7049.195    19124.328     3333.121        3.719        1.475      210.075       79.090        0.142      340.816       15.095      859.544
05/21/2014  12:41:00      165.798     -207.352      -22.042       69.181       76.768       42.124     4785.952     5893.307     1774.427        4.171        0.623      265.488       35.728        0.018      340.466       14.501      859.551
05/21/2014  12:42:00       45.463      -10.133       18.279       90.557       60.879       40.333     8200.573     3706.305     1626.757        0.802        0.677       46.579       36.130        0.602      340.784       15.044      859.569
05/21/2014  12:43:00       42.936      -43.100       20.888       67.218       61.066       41.922     4518.234     3729.114     1757.493        0.707        0.500       60.837       47.272        0.604      341.058       15.507      859.568
05/21/2014  12:44:00       -6.246      -67.883       49.897       32.711       66.649       28.459     1069.997     4442.132      809.915        0.673        0.316       68.170       13.612        0.040      341.349       15.999      859.566
05/21/2014  12:45:00        0.251      -25.122       -0.387       32.044       30.361       28.513     1026.793      921.805      813.018        0.170        0.138       25.124       17.183        0.468      341.554       16.346      859.578
05/21/2014  12:46:00      -25.582        7.465        1.195       55.113       45.002       39.182     3037.393     2025.148     1535.239        0.365        0.330       26.649       31.236        1.374      341.404       16.094      859.573
05/21/2014  12:47:00      -84.289      -55.309        6.643       92.420       50.009       36.670     8541.411     2500.874     1344.664        1.129        0.619      100.815       24.930        0.061      340.857       15.167      859.581
05/21/2014  12:48:00      -55.699     -113.082       -4.821       76.736       67.962       36.759     5888.470     4618.867     1351.192        1.388        0.593      126.055       33.706        0.071      340.688       14.881      859.584
05/21/2014  12:49:00     -109.932      -93.335        0.183       97.802      101.825       47.742     9565.273    10368.259     2279.274        2.150        1.111      144.209       55.103        0.146      340.696       14.894      859.566
05/21/2014  12:50:00      -83.789      -98.189        0.841       81.972       59.885       37.914     6719.431     3586.201     1437.454        1.420        0.587      129.080       32.046        0.062      340.695       14.892      859.535
05/21/2014  12:51:00      -62.942     -114.596        0.918       38.255       44.981       29.487     1463.447     2023.321      869.500        1.072        0.218      130.743       26.504        0.041      340.646       14.810      859.526
05/21/2014  12:52:00      -87.782      -76.809       10.246       67.413       56.672       37.353     4544.477     3211.745     1395.215        1.143        0.458      116.642       19.603        0.028      340.969       15.356      859.505
05/21/2014  12:53:00      -95.469      -66.420       -2.481       40.311       39.745       29.500     1624.950     1579.700      870.223        0.880        0.204      116.302       20.199        0.030      340.807       15.084      859.499
05/21/2014  12:54:00      -43.177        2.488        0.457       25.618       26.901       16.852      656.304      723.639      283.987        0.177        0.083       43.249        5.577        0.017      340.895       15.232      859.472
05/21/2014  12:55:00      -36.882        4.766      -21.397       21.849       24.110       15.476      477.394      581.294      239.491        0.157        0.065       37.188        7.318        0.039      340.791       15.055      859.459
05/21/2014  12:56:00      -89.941       -0.239        6.233       57.265       35.344       29.249     3279.278     1249.213      855.477        0.676        0.269       89.941       27.830        0.096      341.134       15.636      859.427
05/21/2014  12:57:00      -47.537       44.640       15.173       59.231       36.071       28.637     3508.296     1301.151      820.060        0.505        0.281       65.211       21.972        0.114      341.766       16.706      859.409
05/21/2014  12:58:00     -120.868       28.192       -0.768      141.048       80.117       46.318    19894.625     6418.744     2145.392        2.193        1.423      124.112       41.644        0.113      341.418       16.117      859.402
05/21/2014  12:59:00      -73.089      -38.470       27.176      156.387       84.557       69.698    24456.841     7149.818     4857.805        2.201        1.823       82.595       81.982        0.985      341.675       16.550      859.389
05/21/2014  13:00:00     -173.567     -121.245       -1.138      110.037       82.736       50.781    12108.179     6845.188     2578.728        3.318        1.077      211.721       53.454        0.064      340.919       15.269      859.411
05/21/2014  13:01:00      -97.115      -40.491        1.258       98.868       39.387       36.507     9774.948     1551.304     1332.794        1.186        0.633      105.218       41.616        0.156      340.848       15.151      859.422
05/21/2014  13:02:00      -60.295      -50.120       14.947       70.445       95.757       43.585     4962.506     9169.453     1899.615        1.120        0.802       78.407       43.052        0.302      341.123       15.618      859.411
05/21/2014  13:03:00      -51.846      -36.821       25.809       57.496       63.256       34.986     3305.741     4001.268     1224.044        0.662        0.427       63.591       32.098        0.255      341.166       15.693      859.421
05/21/2014  13:04:00     -158.693       21.986      -22.596      110.045       56.081       37.442    12109.991     3145.109     1401.868        2.141        0.833      160.208       20.470        0.016      340.919       15.271      859.437
05/21/2014  13:05:00     -222.579      -14.797       -8.753       76.471       54.460       39.852     5847.887     2965.945     1588.178        3.012        0.520      223.070       34.736        0.024      340.834       15.125      859.427
05/21/2014  13:06:00      -61.600       -5.078        7.796       35.966       23.801       24.374     1293.586      566.477      594.114        0.317        0.123       61.809       22.368        0.131      340.898       15.238      859.434
05/21/2014  13:07:00       51.815       74.223        8.034       40.539       50.268       37.697     1643.392     2526.917     1421.083        0.692        0.280       90.519       30.012        0.110      341.081       15.546      859.416
05/21/2014  13:08:00       94.621       72.915        7.170       51.441       50.176       35.705     2646.162     2517.594     1274.816        1.038        0.322      119.456       16.943        0.020      340.876       15.199      859.410
05/21/2014  13:09:00      -32.714        5.843        9.885       62.983       53.641       35.356     3966.839     2877.315     1250.081        0.465        0.405       33.232       26.144        0.619      341.412       16.106      859.410
05/21/2014  13:10:00      -97.726       68.095      -11.144       73.818       71.256       33.753     5449.074     5077.467     1139.232        1.299        0.583      119.110       22.637        0.036      341.241       15.817      859.414
05/21/2014  13:11:00      -22.400      256.468      -33.787       69.508       76.061       46.786     4831.313     5785.236     2188.951        4.011        0.640      257.444       31.990        0.015      340.935       15.295      859.418
05/21/2014  13:12:00       40.344      164.736      -11.283       48.858       69.695       44.690     2387.147     4857.399     1997.171        1.907        0.462      169.604       40.131        0.056      340.928       15.285      859.428
05/21/2014  13:13:00       77.116       81.471      -14.967       36.480       48.223       26.809     1330.774     2325.440      718.731        0.859        0.219      112.180       24.190        0.046      340.851       15.158      859.413
05/21/2014  13:14:00       33.339       45.787       38.229       48.594       41.999       34.225     2361.417     1763.915     1171.343        0.498        0.265       56.639       12.108        0.046      341.065       15.519      859.393
05/21/2014  13:15:00      102.298       59.542       45.588       60.735       52.004       45.722     3688.742     2704.431     2090.542        1.228        0.424      118.365       34.234        0.084      341.019       15.440      859.391
05/21/2014  13:16:00       61.160       55.765       18.398       58.197       42.162       29.576     3386.935     1777.640      874.769        0.661        0.302       82.766        5.954        0.005      340.959       15.340      859.426
05/21/2014  13:17:00        7.919       17.030        6.511       26.137       38.937       23.011      683.138     1516.108      529.507        0.156        0.136       18.781       10.426        0.308      341.087       15.556      859.460
05/21/2014  13:18:00       90.757       52.255       22.943       45.968       37.216       27.861     2113.034     1385.003      776.238        0.788        0.214      104.725       19.625        0.035      340.986       15.386      859.463
05/21/2014  13:19:00       80.144       51.921        8.242       64.456       39.158       33.166     4154.522     1533.349     1099.999        0.799        0.339       95.493       20.541        0.046      341.189       15.729      859.480
05/21/2014  13:20:00       48.249       69.155        8.109       67.104       48.134       31.463     4502.910     2316.836      989.942        0.749        0.390       84.323       23.085        0.075      341.139       15.645      859.510
05/21/2014  13:21:00       -0.387      -10.355       16.052       22.221       38.031       23.126      493.777     1446.356      534.817        0.142        0.124       10.362       14.370        1.923      341.199       15.745      859.547
05/21/2014  13:22:00      -10.555       -0.714       -0.105       68.901       19.474       32.907     4747.298      379.219     1082.882        0.316        0.310       10.579       38.275       13.090      341.157       15.675      859.573
05/21/2014  13:23:00       68.183       73.115       11.431       29.570       34.103       34.501      874.396     1163.045     1190.291        0.668        0.161       99.974       21.835        0.048      340.953       15.329      859.587
05/21/2014  13:24:00       42.928       43.338       18.215       50.055       44.810       30.586     2505.530     2007.901      935.523        0.475        0.272       61.000        7.046        0.013      341.062       15.514      859.617
05/21/2014  13:25:00      -43.064      103.730      -12.835       67.432       62.837       36.427     4547.068     3948.430     1326.891        1.130        0.491      112.313       31.713        0.080      340.995       15.401      859.619
05/21/2014  13:26:00     -149.478       84.618      -19.875      128.509       89.426       59.233    16514.440     7996.972     3508.517        2.895        1.401      171.766       66.738        0.151      341.053       15.497      859.627
05/21/2014  13:27:00     -104.472      206.009      -22.513       71.045       71.712       42.829     5047.441     5142.560     1834.302        3.294        0.601      230.985       24.941        0.012      340.989       15.387      859.651
05/21/2014  13:28:00      -85.382      120.967      -12.449       51.779       92.813       43.305     2681.078     8614.292     1875.335        1.762        0.659      148.064       43.704        0.087      341.055       15.501      859.661
05/21/2014  13:29:00      -53.250      109.136        0.640       44.208       56.989       37.522     1954.369     3247.772     1407.934        1.068        0.331      121.434       32.601        0.072      341.137       15.642      859.678
05/21/2014  13:30:00      -47.262       78.595        5.878       52.654       64.109       37.407     2772.486     4109.970     1399.258        0.836        0.414       91.711       32.650        0.127      341.113       15.599      859.685
05/21/2014  13:31:00       18.404      134.440       -7.091       72.287       96.029       47.489     5225.452     9221.499     2255.246        1.758        0.835      135.694       51.608        0.145      341.061       15.512      859.675
05/21/2014  13:32:00     -163.837       24.093       -8.465      126.591      148.896       48.348    16025.361    22170.117     2337.505        3.401        2.027      165.599       43.494        0.069      341.002       15.409      859.685
05/21/2014  13:33:00     -142.702       32.259      -22.836       58.547       67.749       30.891     3427.759     4589.896      954.276        1.545        0.449      146.303       23.133        0.025      340.922       15.277      859.684
05/21/2014  13:34:00        4.219       64.473        6.973       35.894       43.932       29.886     1288.373     1930.001      893.160        0.417        0.206       64.611       14.920        0.053      341.098       15.574      859.690
05/21/2014  13:35:00       57.629       54.635       -2.837       30.730       35.899       29.744      944.357     1288.727      884.681        0.472        0.156       79.411       27.643        0.121      341.052       15.496      859.690
05/21/2014  13:36:00      -20.990      -42.592       -8.199       46.036       32.427       18.921     2119.276     1051.535      358.007        0.292        0.176       47.483       12.611        0.071      341.022       15.447      859.700
05/21/2014  13:37:00       28.015       15.448       32.042       38.684       35.616       27.699     1496.462     1268.496      767.222        0.279        0.177       31.992       11.142        0.121      341.317       15.946      859.720
05/21/2014  13:38:00       37.858      127.840        6.117       64.277       89.453       41.502     4131.576     8001.904     1722.447        1.583        0.693      133.327       48.872        0.134      341.145       15.653      859.741
05/21/2014  13:39:00       54.729       68.020       16.204       73.608       55.343       39.773     5418.197     3062.861     1581.889        0.897        0.503       87.304       30.892        0.125      341.097       15.573      859.732
05/21/2014  13:40:00       11.170      173.314      -21.113       47.983       49.584       29.342     2302.414     2458.599      860.953        1.811        0.281      173.674       18.393        0.011      341.054       15.499      859.735
05/21/2014  13:41:00       71.724       93.248       14.749       81.258       72.312       54.354     6602.795     5229.076     2954.326        1.442        0.739      117.642       43.846        0.139      341.080       15.545      859.733
05/21/2014  13:42:00       21.256      212.940      -23.108       44.246       82.721       44.672     1957.750     6842.841     1995.577        2.856        0.540      213.999       41.376        0.037      341.166       15.689      859.774
05/21/2014  13:43:00       99.857      158.681        5.169       97.941       84.409       55.771     9592.494     7124.961     3110.362        2.750        0.991      187.486       44.999        0.058      341.145       15.650      859.813
05/21/2014  13:44:00      395.273      218.305       46.919      159.503      125.103      102.884    25441.256    15650.818    10585.081       12.888        2.584      451.550       53.207        0.014      341.050       15.489      859.893
05/21/2014  13:45:00      282.536      193.456      111.459      236.007      137.957      122.176    55699.437    19032.115    14926.989       10.965        4.483      342.421      112.002        0.107      340.104       13.890      859.932
05/21/2014  13:46:00      261.860      113.570      106.791      218.986      140.270      108.144    47954.785    19675.600    11695.156        8.608        3.966      285.427       95.823        0.113      339.964       13.654      859.930
05/21/2014  13:47:00      202.617      165.898      118.995      160.095      131.764      116.367    25630.427    17361.801    13541.276        6.962        2.827      261.870       94.724        0.131      339.782       13.349      859.906
05/21/2014  13:48:00      271.759      116.793       92.069      177.761      153.590      142.135    31598.962    23589.891    20202.291        8.567        3.770      295.793      108.165        0.134      339.846       13.455      859.893
05/21/2014  13:49:00      255.489      173.037      136.035      223.438      139.361      107.365    49924.709    19421.396    11527.144        9.728        4.044      308.571      107.351        0.121      339.830       13.427      859.927
05/21/2014  13:50:00      330.793      215.301       90.523      237.954      144.137      113.781    56622.167    20775.546    12946.181       12.714        4.517      394.688       61.840        0.025      339.547       12.952      859.923
05/21/2014  13:51:00      388.056      288.533      141.268      238.739      198.710      169.196    56996.416    39485.767    28627.234       18.943        6.255      483.568      114.982        0.057      339.366       12.647      859.937
05/21/2014  13:52:00      315.910      208.731      115.838      198.402      143.907      122.789    39363.304    20709.310    15077.032       11.595        3.757      378.640       87.136        0.053      339.241       12.435      859.960
05/21/2014  13:53:00      225.072      175.345      145.751      180.985      132.926      111.991    32755.519    17669.280    12541.970        8.279        3.148      285.312      107.516        0.142      339.200       12.369      859.969
05/21/2014  13:54:00      187.345      136.746      131.952      143.665      143.683      104.491    20639.673    20644.907    10918.339        6.170        2.610      231.943       87.726        0.143      339.192       12.354      859.971
05/21/2014  13:55:00      218.675      125.986      145.514      165.823      158.230      133.456    27497.124    25036.766    17810.378        7.759        3.517      252.371      116.128        0.212      339.135       12.259      859.961
05/21/2014  13:56:00      227.467      140.965      159.124      163.981      143.543      108.970    26889.816    20604.483    11874.462        7.814        2.968      267.605       91.426        0.117      339.038       12.094      859.992
05/21/2014  13:57:00      181.364       63.697      119.780      126.541      177.602       94.820    16012.736    31542.315     8990.902        5.391        2.827      192.225       91.473        0.226      338.990       12.014      860.021
05/21/2014  13:58:00       92.858      107.420      106.608      130.412      112.978       91.061    17007.213    12764.092     8292.175        3.479        1.903      141.991       69.805        0.242      339.062       12.137      860.036
05/21/2014  13:59:00       60.674      -38.138       52.528      113.308      157.110       82.538    12838.719    24683.512     6812.565        2.611        2.217       71.665       93.638        1.707      339.195       12.361      860.101
05/21/2014  14:00:00      131.937       31.337      148.163      160.964      238.816      142.208    25909.442    57033.082    20223.098        7.173        5.158      135.608      167.916        1.533      338.926       11.906      860.099
05/21/2014  14:01:00       82.543       19.581      109.555      120.092      151.087       83.849    14422.059    22827.310     7030.733        3.173        2.214       84.834       93.693        1.220      339.057       12.128      860.131
05/21/2014  14:02:00      162.322       20.989      100.384      152.343      223.444      116.844    23208.239    49927.383    13652.512        6.181        4.339      163.673      133.826        0.669      339.055       12.124      860.160
05/21/2014  14:03:00      168.073       82.793       94.929      117.417      190.754       92.225    13786.663    36386.916     8505.458        5.139        2.934      187.358       93.569        0.249      339.008       12.046      860.185
05/21/2014  14:04:00      165.263       76.818       97.729      113.804      115.033       76.520    12951.434    13232.667     5855.288        3.740        1.602      182.244       61.663        0.114      338.980       11.998      860.193
05/21/2014  14:05:00       60.076       34.971       52.197       60.042       61.745       40.217     3605.075     3812.462     1617.394        0.829        0.452       69.513       34.319        0.244      339.168       12.317      860.206
05/21/2014  14:06:00       50.240     -112.800        0.650       72.889      107.785       43.674     5312.790    11617.583     1907.445        1.704        0.942      123.483       36.344        0.087      339.320       12.572      860.224
05/21/2014  14:07:00       97.396     -110.267       13.587      103.994      146.422       72.962    10814.715    21439.467     5323.500        2.970        1.879      147.122       84.123        0.327      339.299       12.535      860.222
05/21/2014  14:08:00      115.538       34.495       50.226       83.305      116.487       72.002     6939.653    13569.114     5184.324        2.137        1.285      120.577       56.977        0.223      339.489       12.855      860.258
05/21/2014  14:09:00      115.251       12.878       56.726      125.873      164.330       67.128    15843.917    27004.330     4506.202        3.200        2.368      115.968       77.016        0.441      339.356       12.631      860.247
05/21/2014  14:10:00       86.094      -43.961       74.422      122.237      126.124       70.056    14941.832    15907.312     4907.796        2.531        1.788       96.668       73.137        0.572      339.435       12.764      860.221
05/21/2014  14:11:00      143.981     -155.386       11.691       87.727      103.758       68.550     7695.993    10765.769     4699.063        3.408        1.158      211.839       71.914        0.115      339.386       12.683      860.195
05/21/2014  14:12:00      195.027     -169.059       -1.257       62.084       79.464       45.808     3854.460     6314.602     2098.406        3.944        0.613      258.102       43.098        0.028      339.271       12.487      860.166
05/21/2014  14:13:00      122.690     -103.229       -4.769       84.179       87.763       59.439     7086.085     7702.315     3532.949        2.202        0.916      160.341       60.487        0.142      339.501       12.876      860.152
05/21/2014  14:14:00      112.716      -42.051       38.604       91.599       91.179       60.775     8390.346     8313.653     3693.546        1.818        1.020      120.304       67.177        0.312      339.651       13.129      860.141
05/21/2014  14:15:00       75.895      -63.812       12.427       72.871       68.236       37.062     5310.205     4656.121     1373.581        1.066        0.567       99.157       40.189        0.164      339.657       13.141      860.118
05/21/2014  14:16:00       79.282     -134.311      -20.811       66.491       75.321       40.418     4421.041     5673.211     1633.645        1.824        0.586      155.965       34.359        0.049      339.781       13.348      860.090
05/21/2014  14:17:00       82.820      -44.767       33.681       78.765      109.378       55.371     6203.887    11963.639     3065.989        1.561        1.062       94.145       61.920        0.433      339.954       13.640      860.057
05/21/2014  14:18:00       97.043     -118.199       17.311       65.898       80.386       46.376     4342.588     6461.936     2150.770        1.832        0.648      152.933       45.566        0.089      339.807       13.392      860.037
05/21/2014  14:19:00       92.377     -169.110        0.502       44.229       60.781       42.579     1956.216     3694.327     1812.967        2.230        0.373      192.696       30.616        0.025      339.938       13.612      860.006
05/21/2014  14:20:00       34.278      -49.388        7.998       53.696       61.563       35.817     2883.298     3790.001     1282.825        0.582        0.398       60.118       31.433        0.273      340.126       13.931      859.980
05/21/2014  14:21:00        0.091      -92.945       23.348       75.905       84.522       45.461     5761.550     7143.892     2066.704        1.207        0.749       92.945       48.793        0.276      340.154       13.977      859.937
05/21/2014  14:22:00      103.244     -170.767       -6.957       79.712       83.455       43.371     6354.079     6964.741     1881.076        2.753        0.760      199.551       31.063        0.024      340.079       13.850      859.907
05/21/2014  14:23:00       14.256      -84.620       19.146       55.902       83.597       67.354     3125.068     6988.526     4536.616        1.119        0.733       85.812       64.582        0.566      340.100       13.888      859.893
05/21/2014  14:24:00      -11.067      -37.234        4.498       50.636       43.674       30.616     2564.019     1907.406      937.339        0.347        0.270       38.843       19.646        0.256      340.291       14.210      859.913
05/21/2014  14:25:00      -45.112      -59.454       -2.579       57.399       37.104       26.941     3294.608     1376.699      725.831        0.549        0.270       74.631       19.015        0.065      340.246       14.134      859.893
05/21/2014  14:26:00      -53.376      -52.243        6.660       54.781       46.903       34.320     3000.939     2199.928     1177.846        0.600        0.319       74.688       17.439        0.055      340.230       14.107      859.847
05/21/2014  14:27:00     -108.859     -153.735       -0.134       86.521       96.323       42.649     7485.952     9278.145     1818.901        2.703        0.929      188.374       49.861        0.070      340.071       13.836      859.805
05/21/2014  14:28:00     -121.901      -83.892        1.376       95.472       82.706       44.236     9114.826     6840.309     1956.802        1.990        0.896      147.978       37.092        0.063      340.091       13.871      859.827
05/21/2014  14:29:00     -108.316     -160.327        1.376       78.224      140.483       48.780     6118.969    19735.608     2379.441        3.283        1.412      193.487       61.968        0.103      340.082       13.855      859.854
05/21/2014  14:30:00     -156.032     -183.621      -10.085       96.559      108.757       52.106     9323.638    11828.102     2715.023        4.101        1.193      240.962       45.074        0.035      340.013       13.738      859.889
05/21/2014  14:31:00     -112.252      -56.485       23.735       99.984       89.097       57.450     9996.857     7938.310     3300.528        1.879        1.062      125.663       53.581        0.182      340.319       14.256      859.898
05/21/2014  14:32:00     -331.537     -180.607      -18.897      196.330      121.078       59.024    38545.589    14659.888     3483.861        9.978        2.834      377.539       76.060        0.041      339.816       13.405      859.891
05/21/2014  14:33:00     -363.219     -129.320       -0.224      150.214      145.086       71.780    22564.305    21050.041     5152.428        9.870        2.438      385.554       77.605        0.041      339.807       13.391      859.900
05/21/2014  14:34:00     -259.293      -72.480        1.724      156.127      133.125       76.718    24375.509    17722.398     5885.661        6.023        2.399      269.233       80.818        0.090      339.921       13.583      859.918
05/21/2014  14:35:00     -259.251      -92.805       -6.928      126.753      113.716       67.078    16066.342    12931.330     4499.425        5.468        1.675      275.361       66.881        0.059      339.906       13.557      859.945
05/21/2014  14:36:00     -381.660      -59.991      -15.960      142.262      147.753       78.771    20238.578    21831.037     6204.863        9.889        2.414      386.346       78.182        0.041      339.829       13.428      859.953
05/21/2014  14:37:00     -153.338       -5.170       23.283      149.829       95.280       68.639    22448.796     9078.239     4711.295        3.015        1.812      153.425       69.865        0.207      340.213       14.077      859.987
05/21/2014  14:38:00       27.959     -104.427       -1.117       78.780       86.297       56.569     6206.280     7447.242     3200.044        1.427        0.843      108.105       57.394        0.282      340.421       14.429      860.047
05/21/2014  14:39:00        3.168     -116.561       -4.178       80.690       77.753       72.324     6510.851     6045.584     5230.694        1.570        0.889      116.604       54.943        0.222      340.668       14.846      860.052
05/21/2014  14:40:00        0.540      -38.445       34.742       86.752       82.529       51.476     7525.992     6811.024     2649.751        0.983        0.849       38.449       62.053        2.605      340.494       14.554      860.081
05/21/2014  14:41:00      -65.356     -139.179        5.914       79.105       79.234       44.415     6257.647     6278.067     1972.712        1.909        0.725      153.760       48.244        0.098      340.531       14.614      860.092
05/21/2014  14:42:00      -99.000     -152.361      -10.315       90.452       97.885       64.015     8181.587     9581.497     4097.952        2.749        1.093      181.700       38.015        0.044      340.391       14.378      860.088
05/21/2014  14:43:00       39.772      -30.457       35.212       57.788       92.657       49.751     3339.409     8585.386     2475.121        0.907        0.720       50.094       54.950        1.203      340.986       15.385      860.088
05/21/2014  14:44:00      -55.757      -59.611       -9.812       65.283       70.145       51.468     4261.899     4920.359     2648.942        0.929        0.592       81.623       41.666        0.261      340.755       14.996      860.124
05/21/2014  14:45:00      -43.457      -77.371       21.437       74.381       61.993       39.614     5532.544     3843.150     1569.233        0.964        0.547       88.740       38.244        0.186      340.612       14.753      860.162
05/21/2014  14:46:00     -101.821      -97.037       15.131       69.150       65.940       45.330     4781.780     4348.133     2054.849        1.560        0.559      140.655       42.759        0.092      340.317       14.253      860.204
05/21/2014  14:47:00     -140.337     -126.376       -2.590      108.773       81.484       43.192    11831.514     6639.593     1865.521        2.800        1.017      188.853       31.042        0.027      340.389       14.374      860.236
05/21/2014  14:48:00     -221.654     -156.512       11.296      119.835       80.054       56.879    14360.377     6408.666     3235.240        4.887        1.200      271.342       55.076        0.041      340.278       14.185      860.243
05/21/2014  14:49:00     -303.038     -153.665      -25.770       73.804       68.344       47.545     5447.050     4670.923     2260.481        6.424        0.619      339.772       40.212        0.014      339.926       13.591      860.249
05/21/2014  14:50:00     -218.587      -32.160       10.032      124.811      116.019       56.210    15577.679    13460.408     3159.526        4.055        1.610      220.940       66.023        0.089      340.282       14.193      860.234
05/21/2014  14:51:00     -205.112      -31.632       13.528      117.215       85.931       50.992    13739.389     7384.128     2600.190        3.348        1.186      207.536       51.987        0.063      340.445       14.468      860.244
05/21/2014  14:52:00     -142.197      -79.448       -9.280       91.354       85.021       35.783     8345.639     7228.519     1280.458        2.173        0.843      162.886       35.072        0.046      340.407       14.404      860.252
05/21/2014  14:53:00     -207.465      -90.765      -10.179       93.194       65.507       37.560     8685.119     4291.179     1410.735        3.288        0.719      226.451       31.084        0.019      340.246       14.131      860.224
05/21/2014  14:54:00     -188.009      -18.708      -21.061      112.125       73.265       34.746    12571.986     5367.719     1207.259        2.764        0.957      188.937       37.280        0.039      340.213       14.075      860.187
05/21/2014  14:55:00     -164.180      -70.699        1.966       90.315       66.224       44.214     8156.719     4385.663     1954.840        2.322        0.725      178.755       34.194        0.037      340.641       14.799      860.148
05/21/2014  14:56:00     -169.136      -69.152      -18.874       61.365       42.905       32.830     3765.683     1840.819     1077.810        2.021        0.334      182.727       34.697        0.036      340.258       14.154      860.121
05/21/2014  14:57:00     -117.295      -70.002       -4.858       85.406       51.929       32.706     7294.139     2696.647     1069.655        1.487        0.553      136.595       31.733        0.054      340.589       14.713      860.093
05/21/2014  14:58:00      -20.256      -23.342       23.811       49.606       63.889       34.872     2460.779     4081.854     1216.081        0.464        0.388       30.906       19.225        0.387      341.125       15.622      860.080
05/21/2014  14:59:00      -70.857      -78.186      -12.439       65.411       64.134       38.741     4278.538     4113.140     1500.860        1.059        0.495      105.517       30.694        0.085      340.643       14.803      860.077
05/21/2014  15:00:00       21.310       -9.566       16.200       46.614       33.761       24.734     2172.879     1139.774      611.782        0.237        0.196       23.359       16.036        0.471      341.265       15.857      860.073
05/21/2014  15:01:00        0.456     -107.166       13.982       58.016       72.488       34.108     3365.828     5254.523     1163.328        1.073        0.489      107.167       26.774        0.062      341.116       15.606      860.076
05/21/2014  15:02:00      -27.782     -105.453       19.533       54.175      105.604       36.113     2934.983    11152.150     1304.141        1.383        0.770      109.051       19.437        0.032      341.092       15.564      860.063
05/21/2014  15:03:00      -33.707      -83.674       13.795       70.987       98.116       49.545     5039.091     9626.722     2454.689        1.272        0.856       90.208       46.383        0.264      341.061       15.512      860.030
05/21/2014  15:04:00      -55.858      -36.901        8.249       68.733       59.468       36.722     4724.193     3536.466     1348.471        0.708        0.480       66.946       37.059        0.306      340.874       15.196      860.006
05/21/2014  15:05:00      -71.362      -69.649        0.897       60.980       49.155       35.216     3718.525     2416.173     1240.156        0.866        0.369       99.717       25.715        0.067      340.819       15.102      859.990
05/21/2014  15:06:00      -60.755      -39.369        1.716       52.237       46.082       31.248     2728.705     2123.576      976.434        0.554        0.291       72.396       27.065        0.140      340.839       15.139      859.974
05/21/2014  15:07:00      -10.985      -93.128       -6.609       40.325       66.950       37.631     1626.134     4482.244     1416.112        0.818        0.376       93.774       28.337        0.091      340.880       15.207      859.968
05/21/2014  15:08:00     -108.929      -96.901       -1.754       92.766       55.503       35.368     8605.507     3080.608     1250.919        1.710        0.647      145.792       35.381        0.059      340.688       14.878      859.956
05/21/2014  15:09:00     -103.162      -68.168       -2.937       69.704       71.289       28.450     4858.640     5082.120      809.424        1.302        0.538      123.650       38.366        0.096      340.517       14.593      859.939
05/21/2014  15:10:00      -85.758      -58.923       -3.594       55.805       26.439       25.965     3114.187      699.031      674.185        0.766        0.224      104.050       25.016        0.058      340.609       14.747      859.931
05/21/2014  15:11:00      -52.191      -14.718        1.756       41.414       35.025       20.741     1715.137     1226.732      430.189        0.316        0.169       54.226       19.284        0.126      340.940       15.308      859.927
05/21/2014  15:12:00      -16.049        9.531       18.238       33.826       36.216       32.090     1144.194     1311.566     1029.788        0.208        0.174       18.666       24.186        1.679      341.111       15.598      859.921
05/21/2014  15:13:00       72.348      -36.814       27.396       60.194       69.474       54.241     3623.306     4826.702     2942.138        0.936        0.570       81.176       56.418        0.483      341.072       15.531      859.912
05/21/2014  15:14:00       24.288      -73.853       15.215       57.183       81.402       52.246     3269.855     6626.321     2729.631        0.945        0.631       77.744       51.998        0.447      341.162       15.683      859.886
05/21/2014  15:15:00      119.817     -195.511      -29.240       71.674       59.039       41.556     5137.159     3485.659     1726.932        3.189        0.517      229.305       37.780        0.027      341.006       15.417      859.856
05/21/2014  15:16:00       76.462      -85.369       -5.695       93.916       88.443       59.833     8820.247     7822.200     3579.964        1.669        1.011      114.605       65.184        0.323      340.946       15.316      859.835
05/21/2014  15:17:00       12.447        2.643       58.294       43.556       51.350       27.346     1897.148     2636.774      747.798        0.442        0.264       12.725       11.911        0.876      341.077       15.540      859.796
05/21/2014  15:18:00       43.305      -26.749       46.962       51.995       86.837       54.990     2703.501     7540.649     3023.949        0.903        0.663       50.900       52.312        1.056      341.119       15.611      859.756
05/21/2014  15:19:00       49.489     -110.925        7.009       87.742       67.779       56.202     7698.699     4593.958     3158.614        1.512        0.773      121.464       53.646        0.195      340.995       15.401      859.757
05/21/2014  15:20:00       27.164      -37.591        6.294       62.914       62.080       39.939     3958.157     3853.876     1595.164        0.580        0.470       46.378       38.243        0.680      341.161       15.682      859.746
05/21/2014  15:21:00        1.996      -47.094       21.119       46.519       67.042       33.921     2163.987     4494.654     1150.617        0.524        0.390       47.136       39.114        0.689      341.286       15.894      859.713
05/21/2014  15:22:00       40.604      -59.337       15.343       87.630       57.266       38.248     7678.971     3279.361     1462.937        0.891        0.621       71.900       30.623        0.181      341.223       15.786      859.712
05/21/2014  15:23:00       10.927      -74.903       25.252       54.760       54.919       38.023     2998.648     3016.054     1445.768        0.691        0.373       75.696       29.206        0.149      341.132       15.633      859.682
05/21/2014  15:24:00       32.757      -75.787        6.767       86.370       76.752       52.446     7459.769     5890.916     2750.544        1.148        0.805       82.563       45.947        0.310      341.087       15.556      859.656
05/21/2014  15:25:00       34.787      -46.320       36.700       42.304       78.332       42.013     1789.646     6135.899     1765.120        0.719        0.485       57.928       32.898        0.323      340.934       15.297      859.632
05/21/2014  15:26:00       43.955      -33.225       28.261       50.692       54.222       41.899     2569.665     2940.032     1755.511        0.555        0.363       55.100       35.945        0.426      340.794       15.061      859.598
05/21/2014  15:27:00       24.615      -21.063       33.627       45.843       57.368       41.330     2101.579     3291.133     1708.164        0.464        0.355       32.397       42.428        1.715      341.099       15.577      859.554
05/21/2014  15:28:00      110.619     -138.678        9.760       79.713       92.986       50.435     6354.188     8646.472     2543.732        2.455        0.877      177.393       53.472        0.091      340.906       15.247      859.511
05/21/2014  15:29:00      184.921     -193.584      -22.186       86.921      107.735       55.622     7555.318    11606.744     3093.786        4.720        1.113      267.714       64.898        0.059      340.710       14.915      859.459
05/21/2014  15:30:00      112.210     -206.851      -24.984       75.572      106.535       59.172     5711.052    11349.768     3501.282        3.828        1.028      235.326       46.557        0.039      340.856       15.160      859.411
05/21/2014  15:31:00       57.168     -179.038       12.668       74.154      116.249       61.188     5498.801    13513.716     3744.013        2.912        1.138      187.944       59.692        0.101      341.052       15.496      859.379
05/21/2014  15:32:00        7.306        9.489       59.109       55.114       55.811       35.113     3037.576     3114.818     1232.908        0.551        0.369       11.976       20.034        2.799      341.155       15.671      859.379
05/21/2014  15:33:00      163.603      -80.488       31.553       86.150      119.255       63.953     7421.808    14221.797     4090.016        2.998        1.287      182.330       63.633        0.122      340.887       15.215      859.393
05/21/2014  15:34:00       95.534      -36.248       27.169       81.368       67.293       46.660     6620.713     4528.371     2177.192        1.225        0.666      102.180       29.401        0.083      340.918       15.270      859.420
05/21/2014  15:35:00       65.936      -42.207       34.865       68.924       76.158       45.153     4750.501     5800.083     2038.813        0.996        0.629       78.288       54.555        0.486      341.047       15.489      859.449
05/21/2014  15:36:00       21.591        9.831       21.530       35.628       45.324       37.605     1269.324     2054.255     1414.137        0.288        0.237       23.724       34.448        2.108      340.939       15.306      859.489
05/21/2014  15:37:00       47.865      -53.179      -15.954       46.762       34.648       23.736     2186.684     1200.501      563.395        0.466        0.198       71.548       19.590        0.075      340.689       14.883      859.545
05/21/2014  15:38:00       56.405       21.698       25.344       52.749       42.199       36.038     2782.456     1780.758     1298.746        0.508        0.293       60.435       11.607        0.037      340.873       15.194      859.597
05/21/2014  15:39:00      119.214       59.134       31.074       67.884       66.731       46.830     4608.256     4453.039     2193.021        1.496        0.563      133.074       33.357        0.063      340.884       15.214      859.632
05/21/2014  15:40:00      120.676      102.010       63.982       67.066       46.896       50.282     4497.807     2199.261     2528.253        1.914        0.461      158.015       44.015        0.078      340.786       15.046      859.671
05/21/2014  15:41:00      106.549      106.808       81.001       53.057       43.641       42.375     2814.999     1904.524     1795.644        1.792        0.326      150.866        6.349        0.002      340.848       15.152      859.705
05/21/2014  15:42:00       93.482      106.849       88.239       77.746       63.300       60.073     6044.511     4006.846     3608.820        2.080        0.683      141.971       58.446        0.169      340.762       15.004      859.737
05/21/2014  15:43:00       33.107        0.388        7.035       40.686       49.771       23.862     1655.380     2477.182      569.416        0.292        0.235       33.109       20.369        0.378      340.672       14.853      859.798
05/21/2014  15:44:00       56.491       39.301       13.346       50.156       35.829       29.795     2515.637     1283.735      887.735        0.480        0.234       68.817       20.494        0.089      340.817       15.099      859.858
05/21/2014  15:45:00      101.286       91.128        8.884       65.849       57.598       36.262     4336.042     3317.557     1314.915        1.380        0.448      136.246       25.243        0.034      340.849       15.153      859.943
05/21/2014  15:46:00       39.210      164.505      -25.723       56.754       85.084       38.699     3220.970     7239.237     1497.632        2.061        0.598      169.113       50.246        0.088      340.836       15.130      860.102
05/21/2014  15:47:00     -100.039      289.627      -38.775       70.241       70.350       43.723     4933.763     4949.101     1911.727        5.359        0.590      306.417       40.655        0.018      340.950       15.321      860.358
05/21/2014  15:48:00     -209.906      456.230      -55.242      170.525      209.407       94.179    29078.692    43851.205     8869.611       16.851        4.090      502.201      100.637        0.040      340.397       14.386      860.624
05/21/2014  15:49:00     -246.702      522.343      -63.043      162.071      223.893       97.986    26267.121    50128.059     9601.246       21.182        4.300      577.671      105.558        0.033      339.605       13.049      860.661
05/21/2014  15:50:00     -275.108      475.652      -63.660      194.699      208.810      119.123    37907.707    43601.471    14190.227       20.082        4.785      549.481      114.736        0.044      339.205       12.377      860.678
05/21/2014  15:51:00     -201.451      388.535      -34.109      142.348      173.592       87.138    20263.024    30134.336     7593.102       12.534        2.900      437.654       81.182        0.034      338.957       11.959      860.701
05/21/2014  15:52:00     -129.264       64.738      -18.977       80.098      144.625       56.094     6415.769    20916.449     3146.537        2.586        1.524      144.569       44.664        0.095      338.759       11.628      860.656
05/21/2014  15:53:00     -261.575      302.324      -39.711      160.760      191.926      108.105    25843.832    36835.756    11686.766       11.787        3.718      399.777      118.970        0.089      338.236       10.746      860.621
05/21/2014  15:54:00     -188.586      103.554      -26.692      105.328      150.717       59.352    11093.982    22715.505     3522.706        4.216        1.867      215.147       55.059        0.065      338.092       10.507      860.661
05/21/2014  15:55:00     -228.002      269.210      -34.899      138.468      191.570       82.500    19173.348    36699.184     6806.171        9.417        3.134      352.787       74.565        0.045      337.524        9.551      860.730
05/21/2014  15:56:00     -282.269      200.547      -50.223      161.552      190.611       91.542    26099.210    36332.393     8379.992        9.660        3.541      346.258       96.440        0.078      337.066        8.786      860.748
05/21/2014  15:57:00     -269.174      140.297      -39.216      195.554      127.160      101.668    38241.378    16169.736    10336.391        7.920        3.237      303.542       97.494        0.103      337.174        8.967      860.744
05/21/2014  15:58:00     -206.958      103.837      -19.753      131.659      169.940       95.341    17334.153    28879.652     9089.873        5.464        2.765      231.546       70.195        0.092      337.272        9.131      860.727
05/21/2014  15:59:00     -244.737       18.234      -26.289      104.585      120.293       54.563    10938.039    14470.457     2977.168        4.465        1.419      245.415       33.318        0.018      337.251        9.095      860.729
05/21/2014  16:00:00     -196.689       26.391      -32.686      139.218      155.790       69.585    19381.755    24270.582     4842.070        4.446        2.425      198.451       68.582        0.119      337.322        9.214      860.693
05/21/2014  16:01:00     -265.413      -67.099      -21.900      114.389      143.687       70.556    13084.911    20645.982     4978.166        5.706        1.935      273.764       50.970        0.035      337.252        9.098      860.663
05/21/2014  16:02:00     -295.399      -95.028      -28.290      128.224      123.426       53.764    16441.446    15233.988     2890.534        6.582        1.728      310.308       45.225        0.021      337.167        8.956      860.652
05/21/2014  16:03:00     -330.448      -78.108      -32.151      115.562      125.178       69.784    13354.527    15669.493     4869.876        7.511        1.695      339.554       49.933        0.022      337.225        9.052      860.648
05/21/2014  16:04:00     -270.666      -58.679      -24.925      115.428      121.337       56.907    13323.536    14722.769     3238.461        5.430        1.564      276.953       52.332        0.036      337.333        9.232      860.662
05/21/2014  16:05:00     -360.169      -77.115      -14.468      129.690      104.385       61.940    16819.452    10896.245     3836.524        8.371        1.578      368.332       48.300        0.017      337.431        9.397      860.650
05/21/2014  16:06:00     -292.514      -59.102      -19.358      115.844       72.725       50.449    13419.876     5288.952     2545.098        5.534        1.063      298.425       52.235        0.031      337.572        9.635      860.618
05/21/2014  16:07:00     -281.354      -73.771      -14.747       97.670       81.054       54.555     9539.410     6569.815     2976.246        5.195        0.954      290.864       51.785        0.032      337.659        9.780      860.576
05/21/2014  16:08:00     -288.463      -51.913      -16.397      111.948       92.230       51.196    12532.344     8506.352     2621.069        5.491        1.183      293.097       50.366        0.030      337.777        9.976      860.547
05/21/2014  16:09:00     -226.164      -47.287      -14.056      106.276       69.725       41.496    11294.572     4861.506     1721.933        3.573        0.894      231.055       41.875        0.033      337.868       10.130      860.516
05/21/2014  16:10:00     -184.378        4.494      -18.108       73.875       41.425       39.627     5457.523     1715.997     1570.270        2.154        0.437      184.432       35.376        0.037      337.987       10.333      860.509
05/21/2014  16:11:00     -249.795      -14.820      -15.713       74.163       55.844       42.762     5500.124     3118.544     1828.568        3.665        0.522      250.234       34.480        0.019      338.104       10.526      860.467
05/21/2014  16:12:00     -210.404      -37.629      -12.921      104.980       84.004       44.668    11020.844     7056.653     1995.273        3.296        1.004      213.743       21.606        0.010      338.198       10.684      860.396
05/21/2014  16:13:00     -240.238      -99.185      -16.365      137.765       97.913       58.895    18979.325     9586.921     3468.670        4.992        1.602      259.908       57.229        0.048      338.258       10.785      860.338
05/21/2014  16:14:00     -315.425      -82.015      -10.832      132.496      113.475       51.955    17555.093    12876.556     2699.316        6.973        1.657      325.913       62.632        0.037      338.319       10.888      860.262
05/21/2014  16:15:00     -287.946      -29.884      -22.867      158.911      103.768       58.188    25252.682    10767.753     3385.845        6.186        1.970      289.492       66.948        0.053      338.403       11.029      860.195
05/21/2014  16:16:00     -166.806       -6.370       12.084      124.807       93.267       52.020    15576.805     8698.655     2706.046        2.749        1.349      166.927       50.067        0.090      338.473       11.145      860.156
05/21/2014  16:17:00     -353.385      -49.726      -17.312      127.791      116.958       62.882    16330.546    13679.276     3954.174        8.080        1.698      356.866       66.594        0.035      338.448       11.102      860.174
05/21/2014  16:18:00     -341.558      -95.267      -36.472      176.420      125.890       68.511    31123.852    15848.199     4693.816        8.936        2.583      354.595       76.417        0.046      338.558       11.288      860.182
05/21/2014  16:19:00     -201.273      -81.710       -4.893      116.170      112.877       50.062    13495.565    12741.170     2506.168        3.797        1.437      217.227       58.563        0.073      338.622       11.396      860.202
05/21/2014  16:20:00     -119.108      -60.666       -0.286       53.718       83.088       46.632     2885.640     6903.586     2174.557        1.491        0.598      133.668       22.576        0.029      338.694       11.518      860.256
05/21/2014  16:21:00      -96.983      -41.487       -2.809      108.760       79.714       57.191    11828.824     6354.396     3270.861        1.629        1.073      105.484       57.998        0.302      338.835       11.756      860.246
05/21/2014  16:22:00     -151.078      -47.951      -15.238       77.708       64.142       41.815     6038.540     4114.231     1748.477        1.863        0.595      158.505       37.422        0.056      338.900       11.864      860.235
05/21/2014  16:23:00     -105.867      -36.999        1.195       40.757       39.463       29.804     1661.117     1557.322      888.266        0.834        0.205      112.146       23.672        0.045      338.901       11.867      860.255
05/21/2014  16:24:00     -103.710      -43.615        3.003       95.052       63.044       41.839     9034.967     3974.524     1750.469        1.371        0.738      112.508       41.539        0.136      339.019       12.065      860.232
05/21/2014  16:25:00     -151.840      -94.495       -5.542       93.601       46.540       34.981     8761.232     2165.993     1223.680        2.208        0.608      178.842       39.398        0.049      339.028       12.080      860.217
05/21/2014  16:26:00     -119.840      -69.357        9.881       80.970       58.729       43.314     6556.114     3449.043     1876.102        1.557        0.594      138.463       35.737        0.067      338.987       12.011      860.207
05/21/2014  16:27:00     -163.540      -97.251       -3.310       92.088       65.040       41.542     8480.212     4230.170     1725.776        2.532        0.722      190.271       43.141        0.051      338.895       11.857      860.221
05/21/2014  16:28:00     -130.757     -113.072        3.262       73.294       82.589       39.430     5371.966     6820.911     1554.686        2.182        0.687      172.866       38.325        0.049      338.910       11.880      860.264
05/21/2014  16:29:00     -172.719     -124.818        0.954       81.709       66.767       44.668     6676.441     4457.798     1995.241        2.927        0.656      213.100       42.130        0.039      338.883       11.834      860.287
05/21/2014  16:30:00     -164.570     -159.465       -2.502       79.738       73.486       45.337     6358.135     5400.175     2055.474        3.316        0.691      229.156       42.964        0.035      338.916       11.888      860.289
05/21/2014  16:31:00     -168.826     -114.209       13.704       85.791       58.588       45.488     7360.174     3432.598     2069.130        2.730        0.643      203.828       43.697        0.046      338.951       11.949      860.307
05/21/2014  16:32:00     -166.002     -155.773       -5.691       71.666       59.459       34.538     5135.961     3535.405     1192.844        3.086        0.493      227.645       33.326        0.021      338.954       11.953      860.315
05/21/2014  16:33:00     -125.103      -71.398       -2.491       52.032       51.400       28.300     2707.319     2641.946      800.874        1.345        0.308      144.043       26.105        0.033      339.008       12.047      860.313
05/21/2014  16:34:00     -121.845      -95.677        1.699       64.687       60.083       31.244     4184.468     3609.966      976.194        1.639        0.439      154.920       30.126        0.038      339.074       12.158      860.311
05/21/2014  16:35:00      -70.965      -80.658       -4.020       55.738       81.545       25.143     3106.680     6649.647      632.182        1.097        0.519      107.433       23.421        0.048      339.162       12.306      860.322
05/21/2014  16:36:00     -120.948      -61.568        2.022       53.442       46.169       30.841     2856.029     2131.574      951.155        1.218        0.297      135.717       21.551        0.025      339.225       12.412      860.330
05/21/2014  16:37:00     -103.918      -98.232       -7.199       54.493       53.939       31.553     2969.443     2909.463      995.570        1.369        0.344      142.998       25.285        0.031      339.308       12.552      860.353
05/21/2014  16:38:00      -58.592      -39.749        6.471       53.086       39.646       25.627     2818.109     1571.798      656.746        0.505        0.252       70.803       26.132        0.136      339.586       13.022      860.359
05/21/2014  16:39:00      -34.712     -133.589       -3.451       57.912       58.211       31.543     3353.852     3388.518      994.936        1.340        0.387      138.025       28.830        0.044      339.311       12.556      860.373
05/21/2014  16:40:00       -4.835      -42.367       17.785       33.494       51.789       27.956     1121.850     2682.105      781.513        0.336        0.229       42.642       25.391        0.355      339.640       13.112      860.374
05/21/2014  16:41:00       -8.455      -22.297       35.143       31.508       66.270       41.119      992.777     4391.742     1690.743        0.444        0.354       23.847       34.096        2.044      339.816       13.408      860.362
05/21/2014  16:42:00       21.917      -28.336       40.682       71.848       85.319       56.087     5162.127     7279.272     3145.733        0.926        0.779       35.823       51.626        2.077      339.775       13.339      860.358
05/21/2014  16:43:00       37.239      -16.113       61.242       59.942       67.270       46.971     3593.065     4525.317     2206.271        0.786        0.516       40.576       35.420        0.762      339.833       13.436      860.372
05/21/2014  16:44:00       20.137      -72.961       39.350       57.502       91.091       63.292     3306.453     8297.570     4005.903        1.144        0.780       75.689       55.363        0.535      339.853       13.471      860.411
05/21/2014  16:45:00        0.565        7.062       62.353       42.995       61.419       38.518     1848.564     3772.260     1483.649        0.552        0.355        7.085       18.914        7.127      339.956       13.646      860.426
05/21/2014  16:46:00       87.623      -87.816       25.275       95.427      113.718       68.923     9106.341    12931.888     4750.426        2.140        1.339      124.054       84.665        0.466      339.766       13.321      860.453
05/21/2014  16:47:00       55.114     -116.634      -18.740       75.351       64.718       36.748     5677.758     4188.450     1350.433        1.410        0.561      129.001       42.643        0.109      339.738       13.276      860.472
05/21/2014  16:48:00      -44.265      -74.560        4.048       44.716       45.036       32.445     1999.539     2028.249     1052.694        0.631        0.254       86.710       25.124        0.084      339.773       13.337      860.501
05/21/2014  16:49:00       31.886     -109.565      -13.657       55.516       86.084       35.779     3081.979     7410.519     1280.130        1.249        0.589      114.110       40.234        0.124      339.883       13.521      860.544
05/21/2014  16:50:00      128.518     -113.906        2.393      101.162       98.251       54.089    10233.764     9653.168     2925.579        2.615        1.141      171.731       63.356        0.136      339.793       13.367      860.558
05/21/2014  16:51:00       55.597      -29.124       57.444       61.402       87.345       50.877     3770.203     7629.062     2588.495        1.061        0.699       62.763       32.110        0.262      339.762       13.317      860.561
05/21/2014  16:52:00       63.447     -133.807        0.775       77.674       88.467       63.542     6033.174     7826.456     4037.625        1.991        0.895      148.087       46.224        0.097      339.727       13.257      860.573
05/21/2014  16:53:00       31.358     -128.437       -1.118       59.060       68.906       48.908     3488.049     4748.046     2392.001        1.405        0.531      132.210       31.773        0.058      339.673       13.168      860.562
05/21/2014  16:54:00      -69.683     -140.213        1.702       59.632      104.061       36.101     3555.993    10828.606     1303.288        2.010        0.784      156.574       29.641        0.036      339.713       13.232      860.552
05/21/2014  16:55:00      -51.153      -57.758      -18.191       59.647       62.118       24.941     3557.755     3858.590      622.035        0.716        0.402       77.153       22.453        0.085      339.577       13.005      860.528
05/21/2014  16:56:00     -118.695      -91.102      -12.701       56.376       40.166       35.355     3178.296     1613.336     1249.977        1.429        0.302      149.626       27.134        0.033      339.568       12.990      860.495
05/21/2014  16:57:00      -27.392      -46.124       -0.351       48.642       41.496       30.010     2366.016     1721.894      900.594        0.393        0.249       53.645       20.800        0.150      339.795       13.373      860.485
05/21/2014  16:58:00     -128.156     -100.717       -8.152       59.027       37.692       30.098     3484.134     1420.664      905.867        1.622        0.291      162.997       21.336        0.017      339.602       13.047      860.482
05/21/2014  16:59:00     -101.003      -61.777       -9.244       54.453       56.374       24.523     2965.145     3178.071      601.393        1.042        0.337      118.397       22.239        0.035      339.641       13.114      860.488
05/21/2014  17:00:00      -40.869      -17.506       -3.666       51.894       32.531       21.138     2692.981     1058.297      446.819        0.309        0.210       44.461       22.731        0.261      339.978       13.683      860.501
05/21/2014  17:01:00       24.689      -55.402        8.910       49.839       40.741       33.227     2483.916     1659.834     1104.057        0.450        0.262       60.654       30.093        0.246      340.010       13.735      860.544
05/21/2014  17:02:00        7.726       11.245       42.560       40.236       36.346       32.442     1618.896     1321.030     1052.490        0.299        0.200       13.643       29.010        4.521      340.035       13.779      860.574
05/21/2014  17:03:00       59.491      -40.186       19.174       87.047       59.359       33.483     7577.182     3523.486     1121.138        0.887        0.611       71.792       47.524        0.438      340.071       13.839      860.601
05/21/2014  17:04:00       32.162      -42.748       19.816       45.192       60.068       41.588     2042.343     3608.113     1729.542        0.532        0.369       53.495       27.277        0.260      340.032       13.772      860.605
05/21/2014  17:05:00        6.324      -75.161       -0.356       59.626       64.300       39.170     3555.211     4134.495     1534.259        0.745        0.461       75.427       22.348        0.088      340.011       13.736      860.594
05/21/2014  17:06:00       88.245      -51.223       25.726      107.796      125.969       67.135    11619.976    15868.193     4507.088        2.153        1.600      102.035       90.584        0.788      339.824       13.419      860.578
05/21/2014  17:07:00       50.411      -73.017       36.333       66.970      113.530       64.910     4485.004    12889.014     4213.313        1.539        1.079       88.728       69.205        0.608      339.736       13.273      860.555
05/21/2014  17:08:00       73.012     -111.488      -10.401       87.796      109.966       60.205     7708.094    12092.463     3624.636        2.064        1.171      133.268       65.477        0.241      339.887       13.526      860.526
05/21/2014  17:09:00       38.533      -46.458       52.882       60.953       85.610       64.827     3715.313     7329.070     4202.582        1.084        0.762       60.359       65.330        1.172      339.905       13.558      860.508
05/21/2014  17:10:00       67.273      -59.829        5.192       83.674      102.143       67.256     7001.376    10433.217     4523.314        1.504        1.098       90.029       71.551        0.632      340.034       13.774      860.492
05/21/2014  17:11:00       80.274      -52.470       53.470      113.129      115.646       77.914    12798.096    13373.919     6070.656        2.214        1.612       95.901       85.517        0.795      340.015       13.743      860.474
05/21/2014  17:12:00      133.441     -111.322       10.942      110.991      139.970       69.868    12319.107    19591.662     4881.560        3.355        1.840      173.779       86.059        0.245      340.041       13.787      860.454
05/21/2014  17:13:00      112.773       38.879      105.975      107.978      137.487       86.843    11659.231    18902.638     7541.789        3.177        1.905      119.287       94.413        0.626      339.934       13.604      860.426
05/21/2014  17:14:00       68.499       58.990       93.525       95.385       94.388       69.467     9098.374     8909.056     4825.644        1.987        1.142       90.399       71.633        0.628      339.930       13.599      860.406
05/21/2014  17:15:00      124.436      -56.288       41.982       91.276       79.257       56.695     8331.228     6281.744     3214.282        1.912        0.891      136.575       44.461        0.106      339.912       13.568      860.412
05/21/2014  17:16:00      109.051      -82.430       24.348       76.238       87.438       53.217     5812.263     7645.462     2832.096        1.778        0.814      136.700       57.156        0.175      339.978       13.680      860.426
05/21/2014  17:17:00       95.819     -148.326      -23.256       63.110       81.275       34.159     3982.810     6605.558     1166.832        2.174        0.588      176.584       17.461        0.010      340.048       13.798      860.463
05/21/2014  17:18:00        7.166      -62.516      -13.797       55.904       49.467       36.794     3125.275     2446.999     1353.815        0.554        0.346       62.926       30.782        0.239      340.300       14.225      860.505
05/21/2014  17:19:00       34.067      -85.883       28.380       75.705       56.047       50.083     5731.285     3141.263     2508.312        1.036        0.569       92.393       37.037        0.161      340.345       14.302      860.551
05/21/2014  17:20:00       44.103      -92.176       -6.128       60.886       56.187       38.324     3707.094     3156.947     1468.763        0.940        0.417      102.184       34.915        0.117      340.198       14.052      860.592
05/21/2014  17:21:00       20.143      -27.557       24.051       75.538       50.418       30.557     5705.974     2541.968      933.744        0.546        0.459       34.134       16.169        0.224      340.201       14.058      860.600
05/21/2014  17:22:00        1.591        7.590       41.002       27.196       26.618       21.454      739.612      708.529      460.257        0.182        0.095        7.755       15.777        4.139      340.302       14.228      860.611
05/21/2014  17:23:00      -37.404      -77.790       -7.521       56.379       31.520       25.026     3178.576      993.516      626.319        0.615        0.240       86.316       10.753        0.016      340.225       14.099      860.606
05/21/2014  17:24:00      -47.638      -13.257      -16.832       41.118       32.072       21.602     1690.715     1028.594      466.650        0.296        0.159       49.449       15.880        0.103      340.060       13.819      860.621
05/21/2014  17:25:00       83.192      -87.663      -13.666       95.944       81.915       42.220     9205.227     6710.129     1782.568        1.624        0.885      120.854       40.524        0.112      340.077       13.848      860.652
05/21/2014  17:26:00       20.743      -28.907       39.250       53.191       59.955       40.564     2829.280     3594.640     1645.448        0.544        0.403       35.579       37.049        1.084      340.060       13.819      860.682
05/21/2014  17:27:00      -12.188      -49.627        1.765       37.970       52.301       28.601     1441.720     2735.365      818.030        0.380        0.250       51.101       20.618        0.163      340.140       13.955      860.707
05/21/2014  17:28:00       59.898      -51.893       12.792       96.223       73.600       40.406     9258.898     5416.946     1632.677        1.137        0.815       79.250       50.051        0.399      340.089       13.869      860.703
05/21/2014  17:29:00       36.480       -1.832       69.796       80.455      105.830       66.399     6472.973    11200.018     4408.776        1.414        1.104       36.526       77.519        4.504      340.069       13.834      860.701
05/21/2014  17:30:00       12.318       21.230       90.535       37.313       94.829       57.654     1392.239     8992.623     3323.964        1.125        0.685       24.545       67.260        7.509      339.973       13.672      860.699
05/21/2014  17:31:00       -1.238        7.764       69.095       29.147       62.662       38.502      849.570     3926.580     1482.407        0.555        0.313        7.862       39.158       24.806      340.059       13.818      860.710
05/21/2014  17:32:00       33.489      -21.472       37.829       32.520       45.573       37.718     1057.580     2076.940     1422.619        0.378        0.228       39.781       32.064        0.650      340.023       13.758      860.729
05/21/2014  17:33:00       15.404      -38.474       15.523       47.091       52.568       34.359     2217.531     2763.387     1180.530        0.406        0.308       41.443       30.785        0.552      340.030       13.770      860.746
05/21/2014  17:34:00       48.113      -91.531       -2.002       43.075       51.127       36.033     1855.420     2613.946     1298.382        0.823        0.288      103.406       19.091        0.034      339.864       13.491      860.757
05/21/2014  17:35:00      114.472     -135.663      -13.556       51.981       37.346       33.804     2702.071     1394.732     1142.722        1.846        0.262      177.506       24.113        0.018      339.895       13.541      860.758
05/21/2014  17:36:00       30.495     -103.366       11.237       44.708       57.107       40.669     1998.836     3261.260     1653.938        0.933        0.346      107.771       30.514        0.080      340.041       13.787      860.733
05/21/2014  17:37:00       80.933     -142.904      -41.755       69.577       55.928       38.495     4840.983     3127.917     1481.848        1.908        0.473      164.231       21.500        0.017      340.012       13.736      860.697
05/21/2014  17:38:00      -31.653      -34.037        6.945       48.363       39.943       27.275     2338.966     1595.452      743.930        0.344        0.234       46.481       13.189        0.081      340.219       14.088      860.656
05/21/2014  17:39:00      -10.721      -77.082        0.155       49.580       47.798       34.664     2458.179     2284.617     1201.568        0.600        0.297       77.824       20.168        0.067      340.135       13.947      860.617
05/21/2014  17:40:00       44.854      -88.027      -12.359       47.903       58.697       47.700     2294.727     3445.348     2275.244        0.896        0.401       98.796       44.808        0.206      340.123       13.925      860.594
05/21/2014  17:41:00       56.734      -85.418       26.104       73.817       82.113       56.340     5448.962     6742.569     3174.229        1.328        0.768      102.542       57.643        0.316      340.004       13.726      860.573
05/21/2014  17:42:00       63.097      -69.858       35.301       67.457       94.484       74.025     4550.432     8927.315     5479.757        1.453        0.948       94.134       73.337        0.607      339.863       13.488      860.571
05/21/2014  17:43:00       -7.839      -26.586       42.415       56.829       80.910       54.899     3229.482     6546.389     3013.947        0.768        0.639       27.718       23.642        0.728      339.923       13.589      860.563
05/21/2014  17:44:00      119.361     -160.103      -26.743      118.890      123.408       63.496    14134.713    15229.530     4031.734        3.699        1.670      199.700       73.490        0.135      339.804       13.384      860.567
05/21/2014  17:45:00      131.871     -163.260       -6.314       70.588      132.979       64.652     4982.706    17683.546     4179.883        3.546        1.342      209.867       82.272        0.154      339.808       13.393      860.587
05/21/2014  17:46:00       91.275     -122.875        9.555       75.174      111.090       68.741     5651.204    12340.878     4725.329        2.311        1.136      153.067       67.626        0.195      339.821       13.415      860.596
05/21/2014  17:47:00      137.930     -162.078      -41.389       98.381       84.999       60.775     9678.785     7224.907     3693.657        3.380        1.030      212.823       58.072        0.074      339.844       13.453      860.601
05/21/2014  17:48:00      122.954     -125.902       -0.280       88.548      103.871       59.377     7840.752    10789.187     3525.678        2.656        1.108      175.980       57.583        0.107      339.807       13.390      860.597
05/21/2014  17:49:00       36.015       -8.742       60.165       65.816       66.979       50.856     4331.743     4486.222     2586.312        0.820        0.570       37.060       45.227        1.489      339.867       13.494      860.588
05/21/2014  17:50:00        4.784     -105.612       23.446       49.592       62.735       63.244     2459.343     3935.681     3999.785        1.106        0.520      105.720       39.797        0.142      340.009       13.734      860.587
05/21/2014  17:51:00       68.755      -73.032        7.195       63.572       69.077       48.078     4041.460     4771.600     2311.479        1.062        0.556      100.304       51.084        0.259      339.978       13.682      860.598
05/21/2014  17:52:00       71.951     -101.951       13.924       56.932       82.895       42.525     3241.297     6871.575     1808.377        1.384        0.596      124.784       53.262        0.182      340.100       13.886      860.604
05/21/2014  17:53:00       64.172      -60.768       30.297       68.897       77.457       51.737     4746.789     5999.550     2676.758        1.107        0.671       88.379       38.381        0.189      340.128       13.934      860.580
05/21/2014  17:54:00       76.214      -89.015       -1.313       69.454       77.635       56.279     4823.872     6027.226     3167.366        1.387        0.701      117.185       47.538        0.165      340.131       13.940      860.558
05/21/2014  17:55:00      114.703     -107.579       -3.611       99.574      117.029       76.510     9914.902    13695.890     5853.720        2.710        1.473      157.258       82.049        0.272      339.955       13.641      860.513
05/21/2014  17:56:00       96.898      -99.235      -11.548       67.162       84.636       63.750     4510.768     7163.255     4064.020        1.755        0.787      138.697       61.029        0.194      339.977       13.679      860.487
05/21/2014  17:57:00      122.996      -91.092       -0.734       87.082      120.537       67.960     7583.330    14529.129     4618.510        2.507        1.337      153.055       77.806        0.258      340.002       13.720      860.454
05/21/2014  17:58:00       62.380      -86.501       39.313       67.742      104.319       57.047     4589.041    10882.536     3254.316        1.582        0.936      106.647       66.839        0.393      340.167       14.000      860.439
05/21/2014  17:59:00       32.573      -83.539       -7.117       64.358       60.670       45.993     4141.953     3680.839     2115.366        0.901        0.497       89.665       37.774        0.177      340.333       14.282      860.465
05/21/2014  18:00:00       16.466       26.623       84.151       53.558       90.160       59.123     2868.447     8128.897     3495.472        1.127        0.725       31.304       58.412        3.482      340.189       14.038      860.488
05/21/2014  18:01:00       73.739      -59.196       33.756       75.295       94.778       62.706     5669.392     8982.962     3932.013        1.433        0.929       94.560       60.615        0.411      340.185       14.029      860.506
05/21/2014  18:02:00       63.929      -70.347       29.771       76.005      111.169       70.664     5776.693    12358.560     4993.342        1.652        1.156       95.056       71.869        0.572      340.132       13.941      860.523
05/21/2014  18:03:00       -2.665       -1.637       78.428       41.633       47.260       32.258     1733.300     2233.478     1040.557        0.558        0.250        3.128       24.401       60.866      340.342       14.297      860.522
05/21/2014  18:04:00       -9.902      -60.791       30.365       33.005       44.600       42.884     1089.328     1989.179     1839.073        0.482        0.246       61.592       13.315        0.047      340.372       14.347      860.517
05/21/2014  18:05:00       54.612     -102.126        6.712       57.751       59.608       49.369     3335.184     3553.066     2437.342        1.139        0.466      115.811       43.677        0.142      340.239       14.123      860.521
05/21/2014  18:06:00       17.968      -54.419       21.789       84.693       97.011       41.577     7172.855     9411.117     1728.629        1.103        0.916       57.308       48.301        0.710      340.298       14.222      860.517
05/21/2014  18:07:00       36.565      -37.233       13.915       45.120       50.214       35.953     2035.857     2521.441     1292.640        0.438        0.292       52.185       39.900        0.585      340.273       14.181      860.496
05/21/2014  18:08:00       34.607      -97.317       -7.419       54.270       46.349       33.859     2945.276     2148.274     1146.442        0.848        0.312      103.287       32.750        0.101      340.384       14.368      860.458
05/21/2014  18:09:00      -50.937      -50.552       -6.160       85.924       41.148       33.528     7382.989     1693.175     1124.106        0.769        0.510       71.764       20.485        0.081      340.524       14.604      860.415
05/21/2014  18:10:00      -21.181      -21.525       -1.602       48.370       41.981       22.876     2339.612     1762.375      523.298        0.277        0.231       30.199       11.561        0.147      340.470       14.513      860.380
05/21/2014  18:11:00      -30.045       -9.720       14.666       58.174       30.168       32.988     3384.220      910.129     1088.182        0.330        0.269       31.578       38.773        1.508      340.510       14.580      860.351
05/21/2014  18:12:00      -65.065      -88.059       -8.748       47.876       44.141       22.756     2292.135     1948.399      517.844        0.841        0.238      109.489       18.922        0.030      340.432       14.448      860.307
05/21/2014  18:13:00      -92.393      -61.422        8.756       69.293       45.234       31.196     4801.524     2046.134      973.194        1.010        0.391      110.946       34.775        0.098      340.545       14.639      860.292
05/21/2014  18:14:00     -141.736      -93.809        2.530       88.493       47.881       33.305     7830.928     2292.602     1109.210        2.006        0.562      169.969       33.777        0.039      340.329       14.274      860.284
05/21/2014  18:15:00     -152.209     -123.695        3.139       83.376      108.223       47.088     6951.489    11712.158     2217.255        2.968        1.044      196.133       48.121        0.060      340.174       14.009      860.277
05/21/2014  18:16:00     -129.564      -68.731       -1.116       75.419       59.849       41.155     5687.956     3581.915     1693.736        1.624        0.548      146.666       40.164        0.075      340.268       14.171      860.289
05/21/2014  18:17:00     -304.901      -71.198       -8.202      124.150       78.741       53.765    15413.192     6200.171     2890.708        6.130        1.225      313.104       50.690        0.026      340.058       13.813      860.294
05/21/2014  18:18:00     -258.974      -94.581       -8.965      110.471       93.373       51.933    12203.870     8718.591     2697.015        4.985        1.181      275.705       53.923        0.038      340.108       13.899      860.299
05/21/2014  18:19:00     -132.588      -60.971       10.257       65.224       52.858       29.883     4254.165     2793.998      892.971        1.467        0.397      145.935       32.983        0.051      340.304       14.231      860.316
05/21/2014  18:20:00      -97.383      -46.185       -2.560       45.135       41.323       22.734     2037.173     1707.626      516.835        0.794        0.213      107.780       15.469        0.021      340.436       14.456      860.312
05/21/2014  18:21:00     -147.385      -44.682      -12.195       69.165       56.731       38.512     4783.853     3218.363     1483.212        1.667        0.474      154.009       32.626        0.045      340.300       14.224      860.295
05/21/2014  18:22:00     -113.515      -18.714       20.960       74.992       67.805       49.052     5623.818     4597.499     2406.074        1.315        0.631      115.048       42.261        0.135      340.500       14.563      860.281
05/21/2014  18:23:00     -109.247      -62.432       -3.331       65.890       71.986       38.568     4341.465     5181.940     1487.512        1.343        0.551      125.828       31.133        0.061      340.557       14.659      860.279
05/21/2014  18:24:00     -108.721      -33.615       -4.992       58.509       53.980       27.920     3423.305     2913.847      779.503        1.004        0.356      113.799       22.992        0.041      340.428       14.441      860.278
05/21/2014  18:25:00     -111.689      -74.181       -2.125       60.580       51.644       31.998     3669.968     2667.082     1023.844        1.267        0.368      134.079       30.573        0.052      340.489       14.544      860.275
05/21/2014  18:26:00      -60.809      -49.853       17.203       91.344       34.554       37.267     8343.648     1193.981     1388.795        0.870        0.546       78.632       49.674        0.399      340.395       14.387      860.273
05/21/2014  18:27:00      -22.788       -8.361        3.750       46.019       39.308       23.453     2117.734     1545.125      550.035        0.241        0.211       24.274       18.800        0.600      340.396       14.388      860.265
05/21/2014  18:28:00      -78.079     -169.212        0.171       59.517       87.914       30.236     3542.262     7728.940      914.195        2.345        0.609      186.357       31.531        0.029      340.392       14.377      860.269
05/21/2014  18:29:00      -92.480     -141.619       -9.155       47.223       46.940       25.070     2230.057     2203.401      628.498        1.688        0.253      169.140       10.317        0.004      340.262       14.159      860.273
05/21/2014  18:30:00      -91.601      -69.555       10.437       62.221       44.540       34.789     3871.497     1983.831     1210.295        1.020        0.353      115.016       30.878        0.072      340.442       14.464      860.275
05/21/2014  18:31:00      -16.644      -16.004       15.134       42.391       30.011       24.462     1796.993      900.632      598.392        0.203        0.165       23.090       18.574        0.647      340.655       14.825      860.290
05/21/2014  18:32:00      -30.687      -73.997       -2.690       51.635       96.955       32.372     2666.179     9400.339     1047.916        0.977        0.656       80.107       21.450        0.072      340.519       14.595      860.296
05/21/2014  18:33:00      -89.202      -55.101        5.995       42.281       66.424       29.466     1787.671     4412.165      868.233        0.905        0.353      104.848       24.203        0.053      340.572       14.686      860.310
05/21/2014  18:34:00      -63.159      -41.602      -11.414       36.584       30.590       24.878     1338.412      935.760      618.936        0.437        0.145       75.630       13.055        0.030      340.707       14.914      860.313
05/21/2014  18:35:00      -63.338      -17.181       -4.685       27.756       22.970       17.345      770.371      527.630      300.859        0.296        0.080       65.626       13.611        0.043      340.695       14.893      860.313
05/21/2014  18:36:00      -64.573      -55.888       10.235      110.322       62.877       39.939    12171.001     3953.495     1595.129        1.256        0.886       85.400       41.073        0.231      340.645       14.810      860.321
05/21/2014  18:37:00      -85.709      -51.090        5.753       64.832       57.900       27.593     4203.187     3352.378      761.359        0.915        0.416       99.781       19.746        0.039      340.586       14.708      860.328
05/21/2014  18:38:00     -117.181      -49.897       -3.320       64.757       38.928       20.099     4193.490     1515.377      403.956        1.117        0.306      127.362       20.230        0.025      340.438       14.458      860.320
05/21/2014  18:39:00     -155.894      -66.597      -14.230       42.306       28.042       12.534     1789.814      786.344      157.102        1.584        0.137      169.523        9.106        0.003      340.323       14.264      860.330
05/21/2014  18:40:00      -68.596      -57.794      -12.113       41.462       34.810       22.733     1719.108     1211.709      516.792        0.582        0.172       89.697       16.805        0.035      340.604       14.737      860.334
05/21/2014  18:41:00      -57.374      -55.821       11.331       46.708       33.611       25.065     2181.595     1129.672      628.242        0.524        0.197       80.049       29.031        0.132      340.808       15.085      860.343
05/21/2014  18:42:00      -64.701        2.741        5.579       61.291       31.838       17.715     3756.623     1013.655      313.818        0.465        0.254       64.759       18.409        0.081      340.811       15.090      860.348
05/21/2014  18:43:00      -96.647        9.429      -16.841       24.971       13.549       14.706      623.543      183.583      216.267        0.537        0.051       97.106       10.774        0.012      340.465       14.505      860.347
05/21/2014  18:44:00      -83.653       22.383        0.164       31.102       25.181       17.737      967.330      634.103      314.616        0.471        0.096       86.596       13.387        0.024      340.631       14.785      860.342
05/21/2014  18:45:00      -86.452      -47.622       -4.863       47.250       33.040       21.097     2232.599     1091.613      445.065        0.677        0.188       98.701       16.478        0.028      340.706       14.912      860.345
05/21/2014  18:46:00     -100.844       -6.988       -7.398       29.349       45.069       20.797      861.357     2031.185      432.534        0.680        0.166      101.086       17.323        0.029      340.536       14.624      860.335
05/21/2014  18:47:00      -83.421       -0.460       -2.491       42.932       34.953       19.768     1843.132     1221.695      390.768        0.521        0.173       83.422       19.598        0.055      340.828       15.118      860.334
05/21/2014  18:48:00      -24.661      -27.523        6.902       28.621       31.819       20.629      819.157     1012.460      425.567        0.183        0.113       36.955       17.880        0.234      340.748       14.983      860.334
05/21/2014  18:49:00      -41.711      -25.374       20.718       44.651       35.143       32.248     1993.672     1235.045     1039.951        0.354        0.213       48.823       10.912        0.050      340.924       15.279      860.326
05/21/2014  18:50:00      -96.735      -52.308        6.664       61.958       40.549       30.776     3838.752     1644.234      947.132        0.928        0.322      109.972       33.169        0.091      340.588       14.713      860.336
05/21/2014  18:51:00     -121.087      -78.174       -7.319       35.841       37.514       22.849     1284.605     1407.296      522.085        1.202        0.161      144.129       17.953        0.016      340.542       14.635      860.330
05/21/2014  18:52:00      -20.550      -47.969       -1.816       38.643       38.181       18.571     1493.280     1457.772      344.881        0.301        0.165       52.186       12.528        0.058      340.822       15.107      860.337
05/21/2014  18:53:00      -16.391      -55.645        9.870       45.751       33.074       21.861     2093.187     1093.915      477.905        0.356        0.183       58.009       21.908        0.143      340.814       15.096      860.344
05/21/2014  18:54:00      -26.214      -56.323        3.187       38.386       34.938       21.716     1473.469     1220.640      471.564        0.352        0.158       62.125       21.627        0.121      340.635       14.792      860.352
05/21/2014  18:55:00      -78.084      -75.701       -5.604       39.096       48.146       23.116     1528.475     2318.058      534.341        0.812        0.219      108.755       22.828        0.044      340.608       14.746      860.342
05/21/2014  18:56:00      -71.049      -43.701       -1.617       43.911       23.153       20.030     1928.212      536.053      401.190        0.491        0.143       83.413       24.754        0.088      340.604       14.739      860.337
05/21/2014  18:57:00      -78.436      -52.960      -12.340       28.013       31.331       18.496      784.727      981.642      342.092        0.561        0.105       94.641       14.554        0.024      340.685       14.875      860.323
05/21/2014  18:58:00       -6.603        8.635        8.989       16.621       27.348       14.799      276.269      747.923      219.006        0.072        0.062       10.870        6.375        0.344      340.796       15.064      860.317
05/21/2014  18:59:00       29.664       44.232       16.279       27.697       27.930       22.515      767.098      780.101      506.940        0.258        0.103       53.258       12.796        0.058      340.570       14.682      860.319
05/21/2014  19:00:00       22.535       26.763       -8.451       28.351       26.639       16.921      803.763      709.636      286.331        0.155        0.090       34.987       12.686        0.131      340.641       14.803      860.330
05/21/2014  19:01:00       -6.042        7.474       17.592       45.390       31.332       18.743     2060.252      981.699      351.290        0.190        0.170        9.611       20.924        4.740      340.866       15.184      860.338
05/21/2014  19:02:00       35.850       24.842        6.755       23.174       23.536       20.049      537.041      553.936      401.951        0.172        0.075       43.616       11.483        0.069      340.652       14.820      860.338
05/21/2014  19:03:00       21.216       24.431       -8.573       15.234       18.014       13.709      232.088      324.508      187.945        0.093        0.037       32.357        9.867        0.093      340.598       14.729      860.340
05/21/2014  19:04:00        0.759      -34.793        7.334       31.941       42.968       19.601     1020.204     1846.253      384.186        0.226        0.163       34.802       17.464        0.252      340.822       15.107      860.319
05/21/2014  19:05:00       97.487     -114.616      -12.486       77.015       64.785       40.379     5931.373     4197.088     1630.496        1.728        0.588      150.468       31.744        0.045      340.609       14.748      860.296
05/21/2014  19:06:00       83.144      -75.253       16.336       65.190       51.236       47.684     4249.780     2625.120     2273.762        1.099        0.457      112.143       45.091        0.162      340.429       14.442      860.273
05/21/2014  19:07:00       -1.596      -52.366        4.637       30.662       35.513       29.918      940.143     1261.161      895.115        0.293        0.155       52.390       16.737        0.102      340.544       14.637      860.270
05/21/2014  19:08:00        2.447      -31.644      -17.566       25.805       25.100       13.626      665.873      630.018      185.661        0.140        0.074       31.739       14.224        0.201      340.493       14.553      860.269
05/21/2014  19:09:00       25.527      -77.116       -6.161       35.515       41.682       25.397     1261.291     1737.404      645.005        0.514        0.182       81.231       18.970        0.055      340.583       14.703      860.272
05/21/2014  19:10:00       59.641      -84.169      -18.740       29.008       25.457       22.625      841.441      648.069      511.908        0.650        0.100      103.157       13.463        0.017      340.608       14.746      860.284
05/21/2014  19:11:00       12.029      -44.418        2.816       31.643       45.404       28.636     1001.265     2061.497      820.027        0.300        0.194       46.018       13.657        0.088      340.589       14.715      860.289
05/21/2014  19:12:00       21.429        3.175       18.805       27.120       19.570       18.272      735.478      382.991      333.862        0.114        0.073       21.663       10.807        0.249      340.623       14.774      860.305
05/21/2014  19:13:00      -31.172        2.873       11.255       32.501       17.286       15.403     1056.324      298.807      237.253        0.135        0.080       31.304       15.131        0.234      340.841       15.139      860.339
05/21/2014  19:14:00      -28.278       -2.937       -1.314       35.531       24.918       20.557     1262.479      620.917      422.578        0.156        0.115       28.430       13.633        0.230      340.782       15.042      860.343
05/21/2014  19:15:00       71.271     -115.302       -5.897       41.407       42.442       28.257     1714.507     1801.314      798.469        1.136        0.216      135.551        9.618        0.005      340.684       14.874      860.347
05/21/2014  19:16:00       29.765      -46.980       10.525       32.218       49.284       34.569     1037.996     2428.910     1194.994        0.393        0.233       55.616       36.075        0.421      340.757       14.998      860.357
05/21/2014  19:17:00       36.197      -51.978        9.559       31.261       50.090       33.294      977.233     2508.998     1108.513        0.435        0.230       63.340       29.025        0.210      340.590       14.717      860.367
05/21/2014  19:18:00       43.338       -5.297       45.946       51.489       47.857       24.326     2651.101     2290.312      591.772        0.477        0.277       43.660       32.707        0.561      340.477       14.526      860.366
05/21/2014  19:19:00       44.750      -69.770       21.905       33.089       53.133       24.939     1094.909     2823.156      621.967        0.594        0.227       82.888       21.945        0.070      340.506       14.573      860.355
05/21/2014  19:20:00       35.412      -63.745       20.563       27.650       43.940       25.204      764.534     1930.684      635.217        0.453        0.167       72.921       20.636        0.080      340.555       14.655      860.342
05/21/2014  19:21:00       26.176      -28.481       28.666       37.926       54.431       32.375     1438.354     2962.755     1048.139        0.388        0.272       38.683       38.475        0.989      340.544       14.638      860.325
05/21/2014  19:22:00      116.547      -90.705      -10.309       49.428       49.627       38.479     2443.110     2462.881     1480.638        1.415        0.319      147.684       33.280        0.051      340.373       14.348      860.313
05/21/2014  19:23:00      122.131      -82.638        3.881       61.436       51.289       38.814     3774.394     2630.553     1506.504        1.483        0.396      147.462       31.372        0.045      340.295       14.216      860.308
05/21/2014  19:24:00      102.233      -88.360        3.257       50.928       63.195       46.365     2593.686     3993.646     2149.694        1.350        0.437      135.126       32.002        0.056      340.387       14.373      860.302
05/21/2014  19:25:00       61.232      -89.828       11.539       52.447       43.274       38.702     2750.641     1872.631     1497.859        0.904        0.306      108.713       27.525        0.064      340.326       14.268      860.302
05/21/2014  19:26:00       40.442      -92.256        4.960       43.549       61.110       36.382     1896.473     3734.384     1323.631        0.856        0.348      100.731       23.371        0.054      340.406       14.405      860.293
05/21/2014  19:27:00      120.552     -145.953      -12.322       66.918       55.583       33.789     4477.965     3089.515     1141.698        2.235        0.435      189.301       31.602        0.028      340.397       14.387      860.281
05/21/2014  19:28:00      116.968     -113.309      -10.963       49.051       50.424       45.532     2405.997     2542.586     2073.199        1.683        0.351      162.851       37.885        0.054      340.340       14.293      860.272
05/21/2014  19:29:00       78.686      -73.119       16.978       57.828       45.758       36.572     3344.107     2093.767     1337.514        0.930        0.339      107.414       19.278        0.032      340.258       14.153      860.261
05/21/2014  19:30:00        3.130      -50.736       -0.814       32.483       54.911       24.454     1055.151     3015.200      597.998        0.363        0.233       50.832       14.628        0.083      340.298       14.222      860.253
05/21/2014  19:31:00        8.743      -62.078       20.571       27.259       47.422       35.316      743.056     2248.819     1247.223        0.430        0.212       62.691       29.154        0.216      340.366       14.337      860.248
05/21/2014  19:32:00       84.607      -83.095       -6.966       32.508       50.923       22.952     1056.757     2593.186      526.814        0.914        0.209      118.587       18.522        0.024      340.368       14.340      860.253
05/21/2014  19:33:00       99.005      -98.444      -13.168       42.059       64.440       32.822     1768.957     4152.563     1077.285        1.333        0.350      139.618       32.261        0.053      340.358       14.324      860.258
05/21/2014  19:34:00       32.935      -14.631       21.679       42.453       43.162       35.283     1802.221     1862.975     1244.866        0.334        0.246       36.039       31.585        0.768      340.311       14.243      860.260
05/21/2014  19:35:00       36.584      -59.720        6.401       24.107       21.029       21.513      581.128      442.201      462.817        0.322        0.074       70.035       18.163        0.067      340.494       14.551      860.260
05/21/2014  19:36:00       -5.952      -19.417        4.909       18.665       29.827       18.586      348.379      889.636      345.451        0.101        0.079       20.309       11.242        0.306      340.471       14.515      860.252
05/21/2014  19:37:00       -9.026      -43.708        8.921       42.949       27.815       32.810     1844.647      773.680     1076.471        0.288        0.185       44.630       17.784        0.159      340.418       14.424      860.241
05/21/2014  19:38:00       61.983      -73.365       -9.231       64.319       42.236       33.510     4136.936     1783.862     1122.890        0.818        0.352       96.043       32.814        0.117      340.322       14.261      860.227
05/21/2014  19:39:00       90.421      -93.463       -1.942       40.540       46.990       27.866     1643.516     2208.032      776.500        1.077        0.231      130.044       27.455        0.045      340.305       14.233      860.225
05/21/2014  19:40:00       52.471      -70.849        5.952       31.975       50.687       28.964     1022.427     2569.185      838.936        0.612        0.222       88.164       19.297        0.048      340.294       14.214      860.234
05/21/2014  19:41:00       -4.209      -56.271        3.113       34.580       44.466       27.560     1195.783     1977.181      759.568        0.356        0.197       56.428        4.988        0.008      340.220       14.089      860.242
05/21/2014  19:42:00       10.344      -65.045      -12.709       44.151       39.066       19.767     1949.313     1526.176      390.717        0.418        0.193       65.862       11.373        0.030      340.229       14.105      860.244
05/21/2014  19:43:00       14.884      -44.845       12.190       22.787       42.376       21.875      519.260     1795.696      478.504        0.259        0.140       47.250       17.221        0.133      340.359       14.326      860.257
05/21/2014  19:44:00        4.298      -34.621       -6.318       24.557       20.591       12.882      603.037      423.970      165.939        0.122        0.060       34.887       11.916        0.117      340.486       14.540      860.268
05/21/2014  19:45:00       15.612       -6.571       22.124       13.352       16.860       13.962      178.268      284.244      194.949        0.072        0.033       16.939       12.306        0.528      340.366       14.336      860.269
05/21/2014  19:46:00       56.989      -61.889       -0.752       27.632       26.317       15.571      763.550      692.569      242.465        0.439        0.085       84.131       14.865        0.031      340.378       14.357      860.276
05/21/2014  19:47:00       76.112      -64.673        9.040       31.138       37.289       28.725      969.552     1390.447      825.131        0.662        0.159       99.878       27.398        0.075      340.293       14.213      860.283
05/21/2014  19:48:00       50.315     -116.794       -5.232       28.436       48.530       21.118      808.594     2355.193      445.956        0.990        0.180      127.171       14.578        0.013      340.233       14.113      860.296
05/21/2014  19:49:00       16.960      -65.808       -6.204       31.084       36.427       16.826      966.245     1326.930      283.113        0.362        0.129       67.958        7.771        0.013      340.344       14.299      860.312
05/21/2014  19:50:00        8.621      -54.085      -11.041       24.885       25.533       16.657      619.276      651.926      277.460        0.233        0.077       54.768       13.497        0.061      340.318       14.255      860.334
05/21/2014  19:51:00       -5.542       -5.818       -0.682       16.239       13.400       15.151      263.719      179.558      229.538        0.037        0.034        8.036       11.762        2.142      340.244       14.129      860.347
05/21/2014  19:52:00       16.878      -35.793        1.946       26.990       30.469       16.350      728.478      928.339      267.309        0.175        0.096       39.572       16.203        0.168      340.281       14.193      860.345
05/21/2014  19:53:00       69.266      -48.647       10.974       48.480       47.214       30.176     2350.308     2229.167      910.562        0.639        0.275       84.643       37.704        0.198      340.259       14.158      860.357
05/21/2014  19:54:00        6.821       -2.851       38.470       21.363       35.909       19.812      456.378     1289.431      392.496        0.184        0.107        7.393       19.823        7.190      340.208       14.068      860.342
05/21/2014  19:55:00       20.534      -19.910        5.353       14.131       15.218       15.826      199.687      231.583      250.469        0.076        0.034       28.601        4.118        0.021      340.241       14.125      860.333
05/21/2014  19:56:00       13.659      -27.922       15.116       30.709       38.412       24.724      943.024     1475.449      611.252        0.211        0.151       31.084       21.065        0.459      340.245       14.132      860.314
05/21/2014  19:57:00        2.507       18.258       39.767       38.135       28.001       27.424     1454.252      784.032      752.059        0.246        0.150       18.430       28.759        2.435      340.116       13.915      860.293
05/21/2014  19:58:00       -0.204      -19.433       -1.613       40.409       24.310       19.365     1632.919      590.982      374.992        0.149        0.130       19.434       14.273        0.539      340.309       14.239      860.259
05/21/2014  19:59:00       20.783      -33.199       28.377       33.229       48.310       28.960     1104.173     2333.839      838.695        0.331        0.214       39.167       21.303        0.296      340.250       14.142      860.212
05/21/2014  20:00:00       49.877      -64.156        8.924       58.937       61.731       45.446     3473.532     3810.737     2065.310        0.801        0.467       81.263       43.595        0.288      340.238       14.119      860.184
05/21/2014  20:01:00        6.292      -47.674       26.322       28.615       32.023       24.011      818.792     1025.493      576.518        0.271        0.121       48.088       16.371        0.116      340.296       14.218      860.154
05/21/2014  20:02:00       25.799      -16.081       34.288       34.006       46.653       29.205     1156.423     2176.523      852.929        0.314        0.209       30.400       26.436        0.756      340.192       14.042      860.143
05/21/2014  20:03:00       28.416      -22.409       31.620       39.481       57.986       41.023     1558.786     3362.325     1682.903        0.446        0.330       36.189       36.286        1.005      340.128       13.935      860.120
05/21/2014  20:04:00       -3.391      -14.179       28.485       19.791       38.835       21.170      391.666     1508.172      448.186        0.169        0.117       14.579       11.132        0.583      340.098       13.885      860.120
05/21/2014  20:05:00       42.966      -23.149       23.121       43.618       35.914       27.281     1902.507     1289.798      744.278        0.343        0.197       48.805       27.375        0.315      340.064       13.827      860.105
05/21/2014  20:06:00       62.478      -40.510       18.906       55.968       40.085       26.107     3132.394     1606.827      681.568        0.566        0.271       74.462       25.001        0.113      340.125       13.929      860.093
05/21/2014  20:07:00       24.537       -7.389       34.171       40.088       55.627       33.166     1607.078     3094.312     1099.971        0.381        0.290       25.625       28.271        1.217      339.996       13.713      860.096
05/21/2014  20:08:00       12.968      -42.902       23.481       41.400       44.194       39.235     1714.001     1953.137     1539.400        0.388        0.260       44.819       29.952        0.447      340.035       13.779      860.101
05/21/2014  20:09:00       20.795      -34.257       22.001       37.129       43.291       37.920     1378.571     1874.115     1437.960        0.339        0.235       40.075       29.693        0.549      340.040       13.788      860.118
05/21/2014  20:10:00       35.296      -31.818       23.649       41.670       43.760       34.381     1736.398     1914.923     1182.049        0.382        0.242       47.521       25.484        0.288      340.007       13.729      860.134
05/21/2014  20:11:00       88.725      -75.675        3.590       56.589       61.940       40.633     3202.287     3836.565     1651.028        1.115        0.434      116.614       36.421        0.098      340.011       13.738      860.155
05/21/2014  20:12:00       92.265     -118.457       -4.098       53.827       50.194       32.730     2897.337     2519.476     1071.250        1.452        0.324      150.150       24.609        0.027      340.020       13.753      860.168
05/21/2014  20:13:00      107.908      -62.092        2.928       66.356       67.754       45.268     4403.117     4590.593     2049.214        1.327        0.552      124.497       53.140        0.182      339.936       13.611      860.178
05/21/2014  20:14:00       68.232      -84.372        5.108       58.981       90.737       40.830     3478.730     8233.290     1667.122        1.259        0.669      108.510       41.424        0.146      339.945       13.625      860.177
05/21/2014  20:15:00       94.750      -87.649      -10.073       55.462       64.128       30.312     3076.012     4112.404      918.801        1.243        0.405      129.073       28.443        0.049      339.935       13.607      860.180
05/21/2014  20:16:00       59.640      -72.290        6.877       41.611       58.258       30.753     1731.481     3393.943      945.731        0.745        0.304       93.716       38.175        0.166      339.915       13.576      860.189
05/21/2014  20:17:00       16.163      -46.478       21.509       29.947       43.852       22.225      896.796     1922.998      493.940        0.310        0.166       49.209       18.918        0.148      339.858       13.482      860.207
05/21/2014  20:18:00      -16.224      -20.621       15.415       21.625       28.891       18.582      467.633      834.711      345.304        0.129        0.082       26.238       14.569        0.308      339.823       13.419      860.237
05/21/2014  20:19:00      -13.974     -101.428        0.008       31.346       30.853       22.917      982.601      951.885      525.211        0.647        0.123      102.386        9.657        0.009      339.914       13.575      860.273
05/21/2014  20:20:00       -6.995      -60.872        0.376       24.782       26.450       21.112      614.129      699.625      445.713        0.276        0.088       61.273        7.803        0.016      339.920       13.585      860.308
05/21/2014  20:21:00      -36.106      -24.121        0.772       21.134       20.311       14.512      446.633      412.547      210.611        0.148        0.053       43.422       12.922        0.089      339.926       13.594      860.323
05/21/2014  20:22:00       10.598      -17.898        1.328       24.294       17.052       19.780      590.200      290.777      391.253        0.085        0.064       20.801       14.815        0.507      339.954       13.641      860.323
05/21/2014  20:23:00      -27.457      -11.760       14.597       21.326       15.000       10.464      454.803      225.015      109.490        0.095        0.039       29.870        6.934        0.054      339.896       13.545      860.321
05/21/2014  20:24:00      -14.725        1.768       13.880       33.997       29.326       20.894     1155.811      860.014      436.578        0.143        0.123       14.831       18.997        1.641      339.851       13.468      860.324
05/21/2014  20:25:00      -25.411      -25.102       -8.859       26.929       19.677       11.386      725.184      387.167      129.651        0.130        0.062       35.719       11.741        0.108      339.960       13.651      860.338
05/21/2014  20:26:00       53.764      -35.170        6.786       41.878       54.427       32.115     1753.767     2962.317     1031.388        0.496        0.287       64.246       28.434        0.196      339.959       13.650      860.360
05/21/2014  20:27:00       10.015      -33.183       16.201       44.651       64.749       42.773     1993.746     4192.395     1829.527        0.474        0.401       34.661       35.030        1.021      339.817       13.410      860.375
05/21/2014  20:28:00       20.012      -58.058       15.897       42.216       39.136       32.059     1782.159     1531.652     1027.769        0.418        0.217       61.410       17.295        0.079      339.914       13.573      860.396
05/21/2014  20:29:00       65.449      -50.333       24.163       60.888       63.640       41.050     3707.372     4050.112     1685.138        0.842        0.472       82.565       41.684        0.255      339.857       13.478      860.423
05/21/2014  20:30:00       33.361      -34.588       16.001       47.777       47.270       34.457     2282.628     2234.483     1187.267        0.413        0.285       48.054       32.171        0.448      339.850       13.466      860.445
05/21/2014  20:31:00       18.630      -42.063       19.225       48.181       44.303       37.791     2321.372     1962.730     1428.188        0.410        0.286       46.004       33.176        0.520      339.788       13.363      860.474
05/21/2014  20:32:00       -2.518      -28.915       25.181       29.719       35.189       30.428      883.191     1238.292      925.871        0.226        0.152       29.024       10.231        0.124      339.807       13.394      860.491
05/21/2014  20:33:00       30.210       -7.515       33.114       45.847       48.757       28.106     2101.908     2377.227      789.972        0.367        0.263       31.130       24.059        0.597      339.755       13.308      860.515
05/21/2014  20:34:00       45.600      -34.828       29.155       41.296       55.290       30.371     1705.332     3056.940      922.399        0.491        0.284       57.379       34.440        0.360      339.884       13.523      860.531
05/21/2014  20:35:00       26.284       -3.388       45.425       46.194       46.364       33.206     2133.891     2149.629     1102.632        0.407        0.269       26.502       28.304        1.141      339.727       13.259      860.531
05/21/2014  20:36:00        9.492      -46.619       26.382       44.311       48.543       40.688     1963.422     2356.379     1655.483        0.447        0.299       47.575       32.176        0.457      339.847       13.460      860.528
05/21/2014  20:37:00       47.131      -50.814       19.650       57.952       55.347       49.454     3358.459     3063.328     2445.714        0.703        0.443       69.306       50.595        0.533      339.858       13.480      860.530
05/21/2014  20:38:00       43.399      -49.864       -5.204       47.481       38.040       37.759     2254.455     1447.064     1425.776        0.476        0.256       66.105       29.320        0.197      339.796       13.375      860.517
05/21/2014  20:39:00       18.694      -33.397       -1.207       37.799       44.766       39.448     1428.734     2003.974     1556.164        0.323        0.249       38.273       27.360        0.511      339.811       13.400      860.498
05/21/2014  20:40:00       18.316      -37.023       20.661       27.992       45.631       27.555      783.576     2082.205      759.300        0.288        0.181       41.306       20.400        0.244      339.783       13.354      860.474
05/21/2014  20:41:00       38.204      -64.882        8.865       36.943       60.954       30.333     1364.782     3715.406      920.072        0.587        0.300       75.294       37.735        0.251      339.764       13.320      860.453
05/21/2014  20:42:00       72.230      -53.955        1.323       33.926       27.621       28.222     1150.972      762.937      796.477        0.542        0.136       90.157       24.359        0.073      339.803       13.389      860.415
05/21/2014  20:43:00       -0.110      -41.432       44.890       22.859       65.076       26.944      522.523     4234.935      725.973        0.461        0.274       41.433       17.641        0.181      339.733       13.268      860.395
05/21/2014  20:44:00        1.742       17.422       43.376       30.871       39.603       20.768      953.009     1568.416      431.319        0.257        0.148       17.509       22.481        1.649      339.701       13.215      860.381
05/21/2014  20:45:00       66.450      -59.178       -6.720       17.272       18.337       18.292      298.311      336.263      334.598        0.447        0.048       88.981       12.159        0.019      339.772       13.336      860.379
05/21/2014  20:46:00       63.706      -49.912      -14.560       32.475       29.368       24.095     1054.619      862.472      580.571        0.463        0.125       80.930       18.244        0.051      339.734       13.270      860.395
05/21/2014  20:47:00       36.830      -60.825        4.110       43.381       39.874       37.667     1881.943     1589.923     1418.825        0.498        0.245       71.106       25.391        0.128      339.704       13.218      860.411
05/21/2014  20:48:00       44.400      -53.340       -5.785       27.422       39.175       21.906      751.992     1534.658      479.882        0.381        0.138       69.401       22.020        0.101      339.772       13.335      860.438
05/21/2014  20:49:00      -26.071       -9.302        7.002       33.875       23.390       17.294     1147.505      547.080      299.088        0.140        0.100       27.681       11.755        0.180      339.775       13.339      860.448
05/21/2014  20:50:00      -13.626       14.831        1.397       19.889       15.716       14.558      395.557      246.980      211.934        0.063        0.043       20.140       14.373        0.509      339.647       13.126      860.478
05/21/2014  20:51:00        6.151        9.850        5.101       18.557       11.956       10.557      344.361      142.936      111.443        0.038        0.030       11.613        7.702        0.440      339.632       13.098      860.490
05/21/2014  20:52:00      -28.790       11.295       -7.245        9.679       21.239        9.195       93.684      451.084       84.549        0.082        0.031       30.926        3.313        0.011      339.698       13.213      860.504
05/21/2014  20:53:00      -41.807      -11.185       -0.036       26.505       23.009       15.109      702.512      529.429      228.278        0.167        0.073       43.278       12.361        0.082      339.694       13.204      860.505
05/21/2014  20:54:00      -71.202      -35.503       -0.195       26.000       29.366       14.127      676.020      862.386      199.574        0.403        0.087       79.562        9.267        0.014      339.553       12.965      860.508
05/21/2014  20:55:00      -16.188      -29.178       14.679       24.383       32.053       20.262      594.531     1027.371      410.552        0.168        0.102       33.368       13.089        0.154      339.534       12.934      860.519
05/21/2014  20:56:00      -61.303      -10.781       -4.992       33.454       23.543       16.783     1119.172      554.257      281.661        0.293        0.098       62.244       17.569        0.080      339.611       13.062      860.515
05/21/2014  20:57:00      -39.954      -16.445        0.686       23.573       19.261       14.885      555.704      370.996      221.571        0.151        0.057       43.206       14.441        0.112      339.510       12.891      860.521
05/21/2014  20:58:00      -36.778      -38.842       -1.176       20.072       17.077       12.326      402.871      291.613      151.924        0.185        0.042       53.491       12.057        0.051      339.539       12.941      860.527
05/21/2014  20:59:00      -59.636      -23.158       -4.488       23.114       20.031       11.249      534.275      401.241      126.537        0.259        0.053       63.974        7.165        0.013      339.527       12.920      860.540
05/21/2014  21:00:00      -80.956      -30.487       -9.916       16.455       15.435        9.233      270.780      238.251       85.256        0.409        0.030       86.506        8.250        0.009      339.496       12.870      860.566
05/21/2014  21:01:00      -42.736      -25.523        0.863       20.624       19.615       16.773      425.357      384.760      281.341        0.178        0.055       49.777       13.584        0.074      339.582       13.014      860.573
05/21/2014  21:02:00       -4.377        5.208        4.497       21.322       11.038       11.303      454.644      121.826      127.752        0.039        0.035        6.803        3.582        0.277      339.499       12.875      860.578
05/21/2014  21:03:00        8.772       19.068        5.512       12.319       10.555       10.805      151.753      111.418      116.741        0.043        0.019       20.989        5.150        0.060      339.463       12.814      860.580
05/21/2014  21:04:00        3.492       37.932        0.260        9.044       14.891       12.916       81.800      221.733      166.829        0.096        0.024       38.092        8.539        0.050      339.397       12.703      860.573
05/21/2014  21:05:00      -13.829       36.160       -3.602       16.258       15.892       12.114      264.306      252.554      146.750        0.109        0.033       38.714        7.568        0.038      339.526       12.917      860.544
05/21/2014  21:06:00      -56.172       37.741       -9.004       23.005       18.274       14.842      529.232      333.942      220.286        0.287        0.054       67.674       11.097        0.027      339.600       13.044      860.515
05/21/2014  21:07:00      -44.732       -2.320       -4.156       21.036       25.942       15.523      442.533      672.962      240.973        0.169        0.068       44.792       14.710        0.108      339.733       13.270      860.498
05/21/2014  21:08:00      -55.267      -24.210        1.065       21.400       25.946       16.554      457.953      673.179      274.027        0.252        0.070       60.337        6.057        0.010      339.433       12.762      860.499
05/21/2014  21:09:00      -56.244      -17.368       -3.259       29.833       31.955       17.840      890.014     1021.116      318.259        0.285        0.111       58.865       15.743        0.072      339.449       12.790      860.498
05/21/2014  21:10:00      -15.442      -15.073        8.511       22.269       26.756       16.194      495.920      715.884      262.233        0.101        0.074       21.579       10.598        0.241      339.504       12.882      860.495
05/21/2014  21:11:00      -32.090        2.466       -4.595       27.292       22.232       16.339      744.847      494.271      266.955        0.128        0.075       32.185       13.072        0.165      339.629       13.094      860.483
05/21/2014  21:12:00      -26.114       -4.768        4.503       36.221       24.934       18.824     1311.938      621.717      354.356        0.151        0.114       26.546       17.990        0.459      339.510       12.894      860.463
05/21/2014  21:13:00      -65.274       -8.387       -1.168       43.091       28.170       18.868     1856.799      793.563      356.010        0.367        0.150       65.811       20.472        0.097      339.688       13.193      860.458
05/21/2014  21:14:00      -95.052      -11.509       -6.542       37.441       37.848       24.818     1401.793     1432.452      615.931        0.633        0.173       95.746       21.177        0.049      339.656       13.138      860.460
05/21/2014  21:15:00     -141.257        3.998      -11.729       40.520       28.937       26.016     1641.891      837.370      676.823        1.163        0.158      141.314       23.352        0.027      339.425       12.749      860.480
05/21/2014  21:16:00     -155.636       -6.222      -17.670       29.746       24.375       21.217      884.835      594.143      450.158        1.325        0.096      155.760       12.030        0.006      339.371       12.659      860.512
05/21/2014  21:17:00     -107.607      -10.011      -10.780       45.697       33.531       22.779     2088.181     1124.357      518.864        0.776        0.187      108.071       14.617        0.018      339.247       12.450      860.534
05/21/2014  21:18:00     -108.456        9.388       -9.191       45.251       31.715       23.884     2047.618     1005.846      570.454        0.778        0.181      108.862       19.367        0.032      339.409       12.722      860.541
05/21/2014  21:19:00     -124.785       28.194      -19.379       28.311       46.181       19.696      801.530     2132.650      387.917        1.003        0.166      127.930       14.560        0.013      339.263       12.476      860.533
05/21/2014  21:20:00     -104.863        3.766      -14.629       24.902       36.233       23.735      620.117     1312.828      563.329        0.686        0.125      104.930       13.423        0.016      339.355       12.632      860.527
05/21/2014  21:21:00      -66.503      -18.823        0.196       32.906       32.023       23.696     1082.777     1025.466      561.504        0.372        0.133       69.116       21.488        0.097      339.409       12.722      860.526
05/21/2014  21:22:00      -99.709      -11.862       -9.341       27.410       34.385       15.205      751.332     1182.349      231.182        0.617        0.108      100.412        9.987        0.010      339.234       12.428      860.521
05/21/2014  21:23:00      -66.354      -26.576       -3.256       33.890       26.411       18.536     1148.522      697.524      343.568        0.365        0.109       71.478       16.951        0.056      339.242       12.443      860.516
05/21/2014  21:24:00      -69.381       12.999       -7.247       38.838       27.990       22.043     1508.396      783.436      485.916        0.391        0.139       70.588       19.582        0.077      339.356       12.633      860.506
05/21/2014  21:25:00      -56.642      -34.580        8.667       34.094       37.645       23.524     1162.403     1417.121      553.373        0.381        0.157       66.364       17.352        0.068      339.168       12.315      860.502
05/21/2014  21:26:00      -47.486        2.616       -1.533       27.503       25.515       14.749      756.417      651.019      217.538        0.194        0.081       47.558       12.488        0.069      339.171       12.321      860.501
05/21/2014  21:27:00      -27.728        5.622        4.617       39.600       12.126       17.668     1568.140      147.038      312.172        0.142        0.101       28.292       19.157        0.458      339.171       12.322      860.517
05/21/2014  21:28:00      -24.877       19.920        0.138       23.040       13.086       12.235      530.842      171.248      149.702        0.093        0.043       31.870       11.911        0.140      339.171       12.322      860.534
05/21/2014  21:29:00       -7.952       31.329       -0.648       39.870       16.867       13.793     1589.595      284.486      190.257        0.155        0.103       32.322       11.155        0.119      339.362       12.643      860.556
05/21/2014  21:30:00       46.666       37.538       -8.513       21.245       19.556       12.136      451.337      382.448      147.272        0.232        0.049       59.890       11.395        0.036      339.162       12.306      860.577
05/21/2014  21:31:00       83.248       32.665        9.657       23.846       15.273       19.924      568.637      233.259      396.961        0.464        0.060       89.428       15.840        0.031      339.116       12.227      860.601
05/21/2014  21:32:00       88.813       30.613        8.346       28.116       19.654       15.566      790.502      386.280      242.293        0.516        0.071       93.941       11.374        0.015      339.103       12.208      860.625
05/21/2014  21:33:00       64.923       31.853        6.289       24.821       18.122       17.089      616.077      328.394      292.030        0.325        0.062       72.316       11.599        0.026      338.992       12.020      860.663
05/21/2014  21:34:00       67.614       32.556        3.298       28.010       26.572       17.217      784.572      706.051      296.412        0.371        0.089       75.044        7.528        0.010      339.018       12.065      860.692
05/21/2014  21:35:00       64.839       35.290        1.301       13.275       10.243       11.649      176.220      104.927      135.704        0.293        0.021       73.821        5.499        0.006      338.974       11.991      860.714
05/21/2014  21:36:00       30.436       24.536        3.327       17.431       17.321       12.378      303.828      300.021      153.224        0.115        0.038       39.095        9.447        0.058      338.984       12.007      860.728
05/21/2014  21:37:00       50.507       30.637        3.298        9.912       11.417        9.543       98.242      130.339       91.067        0.191        0.016       59.073        7.075        0.014      339.111       12.220      860.743
05/21/2014  21:38:00       51.883       28.088       10.241        8.784        6.559        7.951       77.150       43.018       63.216        0.188        0.009       58.998        2.639        0.002      339.157       12.298      860.765
05/21/2014  21:39:00       28.031       23.495        2.204       21.723       11.319       11.150      471.900      128.109      124.330        0.103        0.036       36.575        9.074        0.062      339.215       12.394      860.802
05/21/2014  21:40:00        4.900       17.444       -3.686        9.614       12.989        6.774       92.437      168.707       45.888        0.032        0.015       18.120        6.029        0.111      339.288       12.516      860.844
05/21/2014  21:41:00       14.761       34.339       -4.988       12.840       19.061       13.249      164.870      363.335      175.535        0.106        0.035       37.377       12.058        0.104      339.330       12.590      860.886
05/21/2014  21:42:00       42.045       47.121        4.284       18.536       14.478       15.880      343.585      209.605      252.188        0.241        0.040       63.151       12.891        0.042      339.250       12.454      860.920
05/21/2014  21:43:00       54.237       41.261        6.067       19.159       13.933       12.583      367.084      194.117      158.320        0.270        0.036       68.148        7.499        0.012      339.251       12.455      860.954
05/21/2014  21:44:00       46.760       30.448       -1.603       20.758       15.230       12.409      430.889      231.942      153.983        0.197        0.041       55.800        5.151        0.009      339.290       12.522      860.977
05/21/2014  21:45:00       39.113       32.321       -5.671       12.775       11.933       11.232      163.207      142.396      126.152        0.152        0.022       50.739        6.551        0.017      339.274       12.494      860.997
05/21/2014  21:46:00       34.527       25.009       -2.623       19.553       20.799       15.974      382.331      432.606      255.169        0.145        0.054       42.633       11.661        0.075      339.254       12.461      861.024
05/21/2014  21:47:00       39.687       32.976       -0.686       23.962       21.349       19.936      574.178      455.768      397.445        0.204        0.071       51.599       15.054        0.085      339.289       12.520      861.043
05/21/2014  21:48:00       44.934       34.049        7.766       28.895       29.135       25.613      834.906      848.875      656.000        0.279        0.117       56.377       18.809        0.111      339.263       12.475      861.059
05/21/2014  21:49:00       63.071       49.845       16.832       37.458       28.209       25.281     1403.138      795.754      639.123        0.479        0.142       80.390       13.742        0.029      339.220       12.406      861.089
05/21/2014  21:50:00      101.562       68.301       14.473       36.485       31.984       28.144     1331.122     1022.993      792.096        0.917        0.157      122.392       17.999        0.022      339.189       12.350      861.133
05/21/2014  21:51:00      109.449       82.787       26.540       45.131       27.568       30.350     2036.802      760.014      921.103        1.163        0.186      137.233       13.679        0.010      339.185       12.347      861.173
05/21/2014  21:52:00      134.441      102.241       21.580       65.347       29.339       36.192     4270.214      860.753     1309.837        1.772        0.322      168.901       26.562        0.025      339.184       12.341      861.218
05/21/2014  21:53:00      124.490       94.544       21.444       46.574       32.960       37.206     2169.119     1086.367     1384.281        1.477        0.232      156.321       23.070        0.022      339.152       12.289      861.268
05/21/2014  21:54:00       97.064       70.344       16.033       48.777       37.025       30.505     2379.223     1370.822      930.553        0.965        0.234      119.874       19.919        0.028      339.125       12.242      861.316
05/21/2014  21:55:00      125.486       98.385       16.714       57.167       41.939       38.297     3268.108     1758.847     1466.644        1.610        0.325      159.457       19.595        0.015      339.131       12.252      861.362
05/21/2014  21:56:00      151.764       88.238       16.582       53.371       45.644       33.296     2848.434     2083.338     1108.647        1.857        0.302      175.551       20.189        0.013      339.151       12.286      861.393
05/21/2014  21:57:00      201.410      139.202       14.139       64.284       45.787       45.919     4132.491     2096.471     2108.571        3.424        0.417      244.833       28.419        0.013      339.186       12.341      861.406
05/21/2014  21:58:00      160.056       94.156       15.425       69.940       41.122       38.959     4891.655     1691.019     1517.821        2.141        0.405      185.697       33.146        0.032      339.170       12.317      861.415
05/21/2014  21:59:00      145.268      102.378       15.974       59.831       52.462       46.666     3579.735     2752.245     2177.718        2.017        0.425      177.719       29.204        0.027      339.198       12.366      861.416
05/21/2014  22:00:00      114.561       79.090       11.987       47.453       44.604       28.217     2251.827     1989.500      796.204        1.228        0.252      139.210       21.016        0.023      339.221       12.405      861.422
05/21/2014  22:01:00       74.824       51.704       10.601       37.471       53.099       33.487     1404.064     2819.545     1121.394        0.686        0.267       90.950       15.263        0.028      339.237       12.433      861.436
05/21/2014  22:02:00       45.784       35.141       10.415       42.097       33.578       24.229     1772.183     1127.470      587.060        0.346        0.174       57.715       16.073        0.078      339.250       12.455      861.434
05/21/2014  22:03:00       45.693       65.669        0.735       47.558       26.611       29.788     2261.790      708.152      887.352        0.513        0.193       80.002       15.412        0.037      339.286       12.516      861.440
05/21/2014  22:04:00       46.759       67.703        1.889       38.311       45.500       35.319     1467.752     2070.278     1247.397        0.578        0.239       82.281       29.594        0.129      339.274       12.495      861.439
05/21/2014  22:05:00       58.434       69.400        9.174       54.435       38.359       24.739     2963.131     1471.412      612.028        0.668        0.252       90.724       19.859        0.048      339.285       12.512      861.457
05/21/2014  22:06:00       47.402       93.479       -8.940       47.783       47.715       35.010     2283.191     2276.712     1225.701        0.842        0.289      104.810       36.060        0.118      339.295       12.529      861.482
05/21/2014  22:07:00       80.567       60.446       -4.552       50.781       38.231       30.172     2578.755     1461.582      910.361        0.756        0.248      100.721       26.659        0.070      339.258       12.466      861.507
05/21/2014  22:08:00       77.919       66.632       -0.676       46.284       34.052       25.909     2142.174     1159.526      671.252        0.724        0.199      102.525       18.503        0.033      339.246       12.447      861.517
05/21/2014  22:09:00      113.909       64.296       10.208       44.739       44.028       35.029     2001.538     1938.493     1227.045        1.119        0.258      130.803       19.402        0.022      339.238       12.434      861.525
05/21/2014  22:10:00       90.107       58.522       19.923       43.285       29.544       24.013     1873.620      872.836      576.621        0.763        0.166      107.443       19.361        0.032      339.221       12.407      861.511
05/21/2014  22:11:00       66.554       45.976       11.597       23.436       24.442       21.062      549.259      597.413      443.627        0.413        0.080       80.891       14.398        0.032      339.190       12.354      861.459
05/21/2014  22:12:00       53.590       42.677       14.711       15.325       15.527       18.971      234.864      241.091      359.909        0.287        0.042       68.507        6.755        0.010      339.183       12.344      861.409
05/21/2014  22:13:00       80.477       24.515       20.898       33.017       21.463       29.118     1090.102      460.643      847.844        0.496        0.120       84.128       23.044        0.075      339.182       12.341      861.375
05/21/2014  22:14:00       53.784       40.175        9.249       26.713       30.445       17.760      713.592      926.883      315.412        0.327        0.098       67.132       10.373        0.024      339.175       12.328      861.339
05/21/2014  22:15:00       27.040        1.015       14.640       21.355       20.065       16.994      456.033      402.592      288.788        0.105        0.057       27.059       16.514        0.372      339.210       12.385      861.321
05/21/2014  22:16:00      -16.345       16.114       -1.061       13.602       13.912        6.759      185.017      193.541       45.691        0.048        0.021       22.953        6.901        0.090      339.193       12.362      861.291
05/21/2014  22:17:00      -78.438      -20.295       -8.934       36.900       23.725       13.900     1361.634      562.896      193.211        0.438        0.106       81.021       10.900        0.018      339.165       12.312      861.281
05/21/2014  22:18:00     -133.853      -64.963       -6.025       32.051       22.490       15.250     1027.268      505.820      232.547        1.197        0.088      148.785        7.390        0.002      339.150       12.287      861.256
05/21/2014  22:19:00     -113.971      -65.078       -1.028       50.596       31.463       23.298     2559.960      989.908      542.816        1.066        0.205      131.242       23.986        0.033      339.168       12.317      861.222
05/21/2014  22:20:00     -164.730      -52.091       -2.894       44.630       32.006       23.213     1991.832     1024.397      538.853        1.671        0.178      172.770       23.827        0.019      339.074       12.158      861.179
05/21/2014  22:21:00     -139.564      -41.750        4.176       47.158       41.530       24.838     2223.838     1724.776      616.916        1.290        0.228      145.675       27.929        0.037      339.053       12.124      861.141
05/21/2014  22:22:00      -88.021      -32.969        8.626       49.677       38.561       24.684     2467.755     1486.939      609.310        0.674        0.228       93.993       26.460        0.079      339.077       12.162      861.091
05/21/2014  22:23:00     -109.997      -74.417       -1.693       40.577       39.791       19.931     1646.493     1583.354      397.252        1.063        0.181      132.805       15.421        0.013      339.129       12.249      861.038
05/21/2014  22:24:00     -105.926      -56.567        1.518       50.621       33.260       26.233     2562.509     1106.257      688.167        0.939        0.218      120.084       28.824        0.058      339.102       12.205      860.988
05/21/2014  22:25:00     -122.721      -96.697       -5.614       52.111       35.434       28.704     2715.565     1255.595      823.933        1.462        0.240      156.239       19.912        0.016      339.118       12.231      860.944
05/21/2014  22:26:00     -123.780      -46.349       -2.685       47.593       28.387       19.148     2265.053      805.843      366.640        1.046        0.172      132.173       25.004        0.036      339.093       12.191      860.913
05/21/2014  22:27:00     -103.531      -65.801       -8.137       31.777       31.929       16.758     1009.782     1019.441      280.847        0.871        0.116      122.672       16.227        0.017      339.118       12.232      860.887
05/21/2014  22:28:00     -109.537      -40.438       -7.451       30.195       30.731       13.866      911.711      944.380      192.271        0.787        0.102      116.763        8.899        0.006      339.093       12.190      860.892
05/21/2014  22:29:00      -97.242      -39.537        4.003       44.624       33.661       28.305     1991.335     1133.056      801.181        0.748        0.196      104.972       25.526        0.059      339.053       12.123      860.900
05/21/2014  22:30:00      -93.339      -49.021        7.881       75.319       43.023       24.949     5673.027     1850.983      622.468        0.966        0.407      105.428       34.397        0.106      339.004       12.041      860.902
05/21/2014  22:31:00     -124.836      -31.151        6.831       75.398       48.495       34.168     5684.903     2351.790     1167.441        1.290        0.460      128.665       34.267        0.071      339.010       12.051      860.886
05/21/2014  22:32:00     -127.674      -39.426        1.780       60.142       55.541       36.078     3617.076     3084.800     1301.649        1.293        0.400      133.623       33.818        0.064      339.082       12.171      860.853
05/21/2014  22:33:00      -72.597       -5.141       10.844       55.817       46.194       27.385     3115.548     2133.921      749.957        0.571        0.300       72.779       26.359        0.131      339.150       12.286      860.809
05/21/2014  22:34:00      -67.306      -55.165       -6.989       35.978       30.026       20.197     1294.404      901.586      407.922        0.511        0.130       87.024       17.351        0.040      339.163       12.308      860.769
05/21/2014  22:35:00      -40.306      -80.669       -0.651       38.609       27.276       21.551     1490.645      744.007      464.465        0.542        0.135       90.177       18.098        0.040      339.095       12.193      860.732
05/21/2014  22:36:00      -87.494     -110.887      -13.688       34.394       24.229       19.913     1182.961      587.062      396.534        1.115        0.108      141.248       13.222        0.009      339.079       12.166      860.692
05/21/2014  22:37:00      -53.113      -96.804        2.351       22.351       28.956       19.206      499.562      838.434      368.869        0.695        0.085      110.417       10.719        0.009      339.161       12.305      860.661
05/21/2014  22:38:00      -49.779      -99.848       -1.944       35.410       35.736       20.373     1253.854     1277.096      415.076        0.770        0.147      111.568       18.318        0.027      339.225       12.414      860.634
05/21/2014  22:39:00      -50.041      -39.037       -1.716       28.276       37.876       17.476      799.558     1434.625      305.402        0.328        0.127       63.467       19.046        0.090      339.170       12.322      860.623
05/21/2014  22:40:00      -13.252      -16.684        5.968       28.784       36.218       20.484      828.536     1311.737      419.585        0.152        0.128       21.307       20.771        0.950      339.190       12.352      860.616
05/21/2014  22:41:00      -10.712       -7.773       -9.680       19.971       18.458       13.238      398.838      340.710      175.254        0.059        0.046       13.235        8.141        0.378      339.168       12.317      860.622
05/21/2014  22:42:00        5.721      -28.476        9.293       24.597       19.624       14.436      605.016      385.114      208.408        0.106        0.060       29.045       13.381        0.212      339.315       12.563      860.634
05/21/2014  22:43:00       -0.551      -10.366        0.823       16.283       25.168       14.601      265.134      633.409      213.181        0.061        0.056       10.381       11.556        1.239      339.139       12.266      860.630
05/21/2014  22:44:00       -8.753      -13.436        4.050       14.180       14.255       11.103      201.081      203.205      123.268        0.040        0.026       16.036        9.296        0.336      339.201       12.371      860.613
05/21/2014  22:45:00       -9.722      -11.958        2.372       22.796       22.528       15.087      519.678      507.520      227.629        0.075        0.063       15.411       15.734        1.042      339.189       12.352      860.599
05/21/2014  22:46:00       -8.611      -12.802        1.785       18.483       13.347       10.594      341.627      178.141      112.225        0.044        0.032       15.429        7.451        0.233      339.114       12.225      860.587
05/21/2014  22:47:00      -10.336       -8.939       13.940       25.410       16.180       12.326      645.667      261.802      151.938        0.072        0.053       13.666       10.045        0.540      339.067       12.147      860.556
05/21/2014  22:48:00      -25.944      -32.226        2.889       34.959       24.208       16.326     1222.123      586.042      266.546        0.190        0.104       41.372        7.314        0.031      339.163       12.310      860.531
05/21/2014  22:49:00      -71.999      -68.532       -2.484       26.571       33.292       17.793      706.033     1108.369      316.596        0.601        0.107       99.401       12.931        0.017      339.137       12.264      860.512
05/21/2014  22:50:00      -76.357      -55.684        0.929       42.182       25.900       18.336     1779.319      670.786      336.208        0.586        0.139       94.505       19.669        0.043      339.071       12.153      860.517
05/21/2014  22:51:00      -94.717      -56.556       -5.318       24.346       26.230       17.855      592.734      688.016      318.811        0.690        0.080      110.317       13.264        0.014      339.010       12.051      860.520
05/21/2014  22:52:00     -102.055      -40.188        3.839       39.565       37.267       20.238     1565.407     1388.849      409.585        0.770        0.168      109.683       19.473        0.032      338.962       11.970      860.517
05/21/2014  22:53:00     -120.047        9.693      -11.990       39.706       30.900       25.585     1576.557      954.805      654.582        0.892        0.159      120.438       15.841        0.017      338.926       11.910      860.508
05/21/2014  22:54:00      -80.209      -23.621        2.051       43.639       28.991       24.037     1904.394      840.471      577.794        0.516        0.166       83.615       15.463        0.034      338.925       11.907      860.506
05/21/2014  22:55:00     -108.292      -56.953        1.888       55.297       37.363       23.694     3057.802     1396.007      561.383        0.999        0.251      122.355       26.039        0.045      338.936       11.926      860.506
05/21/2014  22:56:00      -99.052      -51.876        4.289       67.657       45.889       25.058     4577.443     2105.785      627.928        0.991        0.366      111.814       27.844        0.062      338.838       11.764      860.502
05/21/2014  22:57:00     -120.084      -48.887        5.371       47.187       39.713       26.385     2226.602     1577.115      696.159        1.067        0.225      129.654       24.624        0.036      338.766       11.639      860.527
05/21/2014  22:58:00      -98.324      -31.768       -1.571       35.363       31.632       21.510     1250.577     1000.611      462.667        0.670        0.136      103.329       21.430        0.043      338.779       11.663      860.534
05/21/2014  22:59:00      -62.309      -56.345       -5.403       36.867       28.458       19.174     1359.171      809.830      367.648        0.481        0.127       84.007       17.811        0.045      338.816       11.725      860.559
05/21/2014  23:00:00      -76.208      -27.878       -3.270       31.882       30.840       19.057     1016.476      951.116      363.170        0.446        0.117       81.147       19.536        0.058      338.785       11.671      860.577
05/21/2014  23:01:00      -48.720      -19.878        5.560       37.210       23.928       17.130     1384.612      572.556      293.423        0.252        0.113       52.619       19.904        0.143      338.767       11.642      860.594
05/21/2014  23:02:00      -90.542      -11.932      -14.883       41.437       23.744       14.380     1717.021      563.801      206.787        0.552        0.124       91.325       17.645        0.037      338.817       11.726      860.615
05/21/2014  23:03:00      -37.629      -33.141        4.048       36.990       22.070       12.502     1368.274      487.085      156.296        0.227        0.101       50.143       17.673        0.124      338.749       11.612      860.629
05/21/2014  23:04:00       -2.725        9.576       15.983       12.254       17.637        9.414      150.158      311.074       88.620        0.045        0.027        9.956        9.828        0.974      338.829       11.747      860.649
05/21/2014  23:05:00      -33.384       -6.886        2.986       20.047       19.141       10.860      401.892      366.374      117.935        0.103        0.044       34.086        9.843        0.083      338.763       11.636      860.677
05/21/2014  23:06:00      -34.988       -6.561       -2.692       21.553       21.066       20.873      464.515      443.781      435.701        0.131        0.067       35.598       17.137        0.232      338.927       11.910      860.697
05/21/2014  23:07:00      -25.165       23.492        2.439       24.512       13.844       17.443      600.843      191.668      304.258        0.114        0.055       34.426        9.994        0.084      339.036       12.093      860.694
05/21/2014  23:08:00      -55.481       12.913       -7.040       21.626       25.974       16.754      467.704      674.668      280.700        0.236        0.071       56.964       12.703        0.050      339.178       12.333      860.679
05/21/2014  23:09:00      -71.125        6.956       -5.588       24.708       20.575       14.033      610.466      423.331      196.931        0.318        0.062       71.464       14.075        0.039      339.123       12.241      860.667
05/21/2014  23:10:00      -69.592       23.372        0.310       44.649       20.912       15.776     1993.555      437.305      248.873        0.403        0.134       73.412       16.966        0.053      339.159       12.301      860.672
05/21/2014  23:11:00      -91.971       58.229      -12.307       29.022       32.112       22.883      842.289     1031.152      523.639        0.720        0.120      108.855       24.696        0.051      339.171       12.322      860.673
05/21/2014  23:12:00      -82.262       61.640      -11.494       31.891       31.775       24.918     1017.062     1009.654      620.913        0.667        0.132      102.794       21.254        0.043      339.143       12.273      860.678
05/21/2014  23:13:00      -76.662       87.829      -18.505       24.561       26.150       18.096      603.239      683.820      327.467        0.777        0.081      116.580       13.770        0.014      339.014       12.057      860.679
05/21/2014  23:14:00      -57.376       72.406      -14.372       27.751       34.121       19.251      770.094     1164.250      370.615        0.552        0.115       92.383       16.540        0.032      339.131       12.255      860.690
05/21/2014  23:15:00      -30.618       52.767       -7.051       21.729       21.720       17.693      472.153      471.757      313.056        0.251        0.063       61.006       15.325        0.063      339.146       12.279      860.679
05/21/2014  23:16:00      -28.969       44.442       -6.061       21.922       31.034       18.903      480.575      963.086      357.317        0.233        0.090       53.050       16.324        0.095      339.139       12.267      860.658
05/21/2014  23:17:00       -4.577        7.144       10.111       14.462        9.791        8.660      209.150       95.861       74.996        0.028        0.019        8.484        4.255        0.252      339.179       12.336      860.625
05/21/2014  23:18:00       23.373       20.225        3.372       20.293       15.182       11.614      411.802      230.492      134.881        0.087        0.039       30.909        9.475        0.094      339.119       12.234      860.594
05/21/2014  23:19:00       24.397       20.823       17.554       19.877       13.441       14.393      395.098      180.673      207.160        0.106        0.039       32.075        4.960        0.024      339.064       12.143      860.568
05/21/2014  23:20:00       -7.125        5.100       11.961        9.764        7.971        6.266       95.341       63.540       39.269        0.021        0.010        8.762        4.960        0.320      338.921       11.901      860.561
05/21/2014  23:21:00       14.694       29.884       -1.437       19.916       22.099        9.994      396.636      488.363       99.881        0.105        0.049       33.301       10.155        0.093      338.941       11.936      860.552
05/21/2014  23:22:00      -29.264       -7.026        2.752       11.011       19.298        7.025      121.234      372.427       49.352        0.073        0.027       30.095        4.587        0.023      339.001       12.036      860.538
05/21/2014  23:23:00        8.895        6.911       11.809       10.841       10.321       13.628      117.537      106.524      185.731        0.034        0.020       11.264        7.304        0.420      338.980       12.001      860.521
05/21/2014  23:24:00       15.584       14.875        7.215       10.808       12.564       11.872      116.804      157.862      140.934        0.047        0.021       21.543        8.969        0.173      338.971       11.984      860.499
05/21/2014  23:25:00       -1.043       28.772       37.893       14.749       13.531       19.503      217.528      183.083      380.386        0.152        0.039       28.790       11.940        0.172      338.810       11.714      860.495
05/21/2014  23:26:00       -2.188       17.312       37.703       16.930       24.769       15.363      286.633      613.486      236.036        0.143        0.057       17.450       14.273        0.669      338.806       11.706      860.500
05/21/2014  23:27:00        4.044       12.272       32.836       18.795       16.014       15.933      353.263      256.456      253.859        0.105        0.043       12.921       10.321        0.638      338.799       11.694      860.495
05/21/2014  23:28:00       -3.594      -61.114        8.184       28.848       29.544       24.850      832.203      872.872      617.509        0.307        0.116       61.220       14.011        0.052      338.974       11.990      860.498
05/21/2014  23:29:00       18.729      -59.897        8.916       28.841       32.626       23.761      831.818     1064.454      564.596        0.324        0.123       62.757       21.766        0.120      339.020       12.068      860.511
05/21/2014  23:30:00        1.213      -60.777       -2.508       26.106       25.996       17.992      681.523      675.818      323.719        0.269        0.084       60.789        9.101        0.022      339.015       12.058      860.518
05/21/2014  23:31:00      -24.118      -25.487       16.960       18.073       31.495       21.513      326.640      991.925      462.808        0.165        0.089       35.090       14.418        0.169      338.934       11.924      860.513
05/21/2014  23:32:00       -9.618       -0.215       24.561       10.031       13.719       12.108      100.616      188.211      146.598        0.057        0.022        9.621        8.258        0.737      338.889       11.847      860.494
05/21/2014  23:33:00       -7.188        9.232       30.199        8.676       14.335        8.489       75.273      205.487       72.060        0.070        0.018       11.700        7.849        0.450      338.876       11.826      860.489
05/21/2014  23:34:00      -10.035       11.853       38.278       10.411       13.572       11.291      108.391      184.211      127.483        0.106        0.021       15.531        8.581        0.305      338.884       11.838      860.488
05/21/2014  23:35:00       -9.742        9.717       25.503        9.394       12.214       11.252       88.242      149.192      126.608        0.060        0.018       13.760        9.931        0.521      338.840       11.765      860.490
05/21/2014  23:36:00       -5.354        5.125       18.769        6.347       10.479       10.646       40.278      109.812      113.344        0.034        0.013        7.411        7.760        1.096      338.913       11.887      860.495
05/21/2014  23:37:00      -30.775       -3.425        5.404       14.973       10.059        9.710      224.176      101.186       94.285        0.070        0.021       30.965        9.349        0.091      338.872       11.818      860.505
05/21/2014  23:38:00      -44.117      -15.600       -0.469       17.383       12.641        7.779      302.184      159.803       60.506        0.136        0.026       46.794        7.870        0.028      338.845       11.773      860.506
05/21/2014  23:39:00      -52.352      -14.170       -6.089       17.577       14.135       11.169      308.935      199.789      124.751        0.181        0.032       54.236        9.501        0.031      338.875       11.823      860.512
05/21/2014  23:40:00      -50.205      -25.580        0.355       24.724       20.419       13.804      611.299      416.926      190.549        0.220        0.061       56.346       12.202        0.047      338.964       11.973      860.524
05/21/2014  23:41:00      -29.160      -33.783        3.673       32.779       26.258       18.464     1074.478      689.492      340.930        0.205        0.105       44.627       18.328        0.169      338.946       11.944      860.535
05/21/2014  23:42:00      -20.760      -20.553        3.129       21.072       14.311       13.830      444.039      204.799      191.283        0.085        0.042       29.213       12.676        0.188      338.976       11.994      860.536
05/21/2014  23:43:00      -53.340      -14.560       -7.703       12.882       10.254        8.241      165.953      105.151       67.922        0.173        0.017       55.292        4.907        0.008      338.932       11.919      860.508
05/21/2014  23:44:00      -37.259       24.887       -6.328       21.041       28.294       13.912      442.734      800.566      193.537        0.174        0.072       44.806       10.197        0.052      339.113       12.224      860.485
05/21/2014  23:45:00      -10.760       34.021        6.989       21.084       17.720       16.836      444.548      313.992      283.464        0.118        0.052       35.682       10.098        0.080      339.041       12.102      860.465
05/21/2014  23:46:00       20.938       51.889       -6.911       11.242       16.820       10.725      126.384      282.904      115.016        0.185        0.026       55.954        8.270        0.022      338.937       11.928      860.449
05/21/2014  23:47:00       14.005       37.152      -10.494        8.718        8.673        5.129       75.997       75.229       26.308        0.093        0.009       39.704        2.425        0.004      338.945       11.941      860.442
05/21/2014  23:48:00       12.093       21.945       -6.552       10.309       15.108       10.711      106.268      228.254      114.720        0.056        0.022       25.057       10.420        0.173      338.895       11.858      860.433
05/21/2014  23:49:00       20.636       13.572        0.230       12.725       21.898       15.974      161.926      479.544      255.166        0.075        0.045       24.699       15.619        0.400      338.879       11.830      860.430
05/21/2014  23:50:00       11.688        7.416        1.780       19.537       22.692       18.639      381.710      514.942      347.427        0.072        0.062       13.843        8.195        0.350      338.820       11.730      860.427
05/21/2014  23:51:00        6.416       21.967       -6.486       25.442       26.037       15.491      647.312      677.936      239.985        0.107        0.078       22.884       16.955        0.549      338.745       11.606      860.429
05/21/2014  23:52:00       24.976       68.277      -15.142       15.412       19.914       13.001      237.522      396.582      169.036        0.316        0.040       72.702       13.013        0.032      338.786       11.674      860.428
05/21/2014  23:53:00       16.606       72.161      -10.520       10.741       23.368       10.910      115.364      546.061      119.028        0.319        0.039       74.047       11.663        0.025      338.810       11.714      860.438
05/21/2014  23:54:00       14.713       99.454      -18.119       12.427       16.349        7.662      154.422      267.293       58.699        0.546        0.024      100.536        9.726        0.009      338.846       11.774      860.447
05/21/2014  23:55:00       -7.496      126.343      -25.777       17.567       13.461        7.801      308.615      181.209       60.860        0.862        0.028      126.565        8.152        0.004      338.748       11.610      860.462
05/21/2014  23:56:00      -13.993      121.801      -24.055       15.343       15.357        7.332      235.421      235.829       53.764        0.807        0.026      122.602        2.675        0.000      338.771       11.650      860.472
05/21/2014  23:57:00        0.105      121.155      -19.609        7.713       11.692        6.180       59.488      136.700       38.187        0.765        0.012      121.155        4.377        0.001      338.833       11.753      860.484
05/21/2014  23:58:00       19.490      108.367      -18.375       20.762       19.229       11.526      431.058      369.771      132.843        0.670        0.047      110.105        9.624        0.008      338.904       11.873      860.495
05/21/2014  23:59:00       21.067      116.836      -23.700       21.677       18.416        9.447      469.900      339.143       89.243        0.778        0.045      118.720        7.343        0.004      338.789       11.681      860.501
